Mi HomeGuard - helping people stay independent longer.


Humidity


Temperature

Click to expand.

Last sensor readings.  

Lowest: 26%

s1 Conserv HT*
Wed Dec 12 09:48, 87.6% 5.8c

Wed Dec 12 09:48, 87.6% 5.8c
Wed Dec 12 08:49, 88.2% 6.1c
Wed Dec 12 07:57, 86.5% 5.8c
Wed Dec 12 07:53, 86.6% 5.9c
Wed Dec 12 06:57, 86.0% 6.0c
Wed Dec 12 06:57, 86.0% 6.0c
Wed Dec 12 06:00, 86.0% 6.2c
Wed Dec 12 05:59, 86.0% 6.2c
Wed Dec 12 05:07, 85.6% 6.3c
Wed Dec 12 05:00, 85.7% 6.4c
Wed Dec 12 04:06, 85.2% 6.7c
Wed Dec 12 04:03, 84.7% 6.8c
Wed Dec 12 03:38, 85.2% 6.7c
Wed Dec 12 02:40, 85.1% 6.8c
Wed Dec 12 01:49, 85.2% 6.8c
Wed Dec 12 00:49, 85.3% 6.8c
Tue Dec 11 23:56, 85.5% 6.9c
Tue Dec 11 22:57, 85.6% 6.9c
Tue Dec 11 21:57, 86.0% 6.9c
Tue Dec 11 20:59, 86.5% 6.9c
Tue Dec 11 20:06, 86.6% 7.0c
Tue Dec 11 19:33, 87.0% 7.1c
Tue Dec 11 19:12, 88.8% 7.7c
Tue Dec 11 19:09, 90.0% 7.6c
Tue Dec 11 18:59, 85.9% 7.1c
Tue Dec 11 18:30, 85.5% 7.6c
Tue Dec 11 18:15, 87.7% 8.1c
Tue Dec 11 18:12, 88.0% 7.8c
Tue Dec 11 17:20, 84.7% 7.5c
Tue Dec 11 16:25, 83.5% 7.5c
Tue Dec 11 15:38, 83.2% 7.6c
Tue Dec 11 15:30, 83.3% 7.6c
Tue Dec 11 14:38, 83.8% 7.7c
Tue Dec 11 13:42, 85.0% 7.7c
Tue Dec 11 13:42, 85.0% 7.7c
Tue Dec 11 13:16, 89.2% 7.7c
Tue Dec 11 13:13, 87.7% 7.1c
Tue Dec 11 12:48, 85.0% 6.9c
Tue Dec 11 11:55, 85.0% 6.6c
Tue Dec 11 11:47, 85.2% 6.5c
Tue Dec 11 10:55, 85.5% 6.4c
Tue Dec 11 09:54, 85.4% 5.9c
Tue Dec 11 09:00, 86.0% 5.8c
Tue Dec 11 08:09, 86.2% 6.1c
Tue Dec 11 08:08, 86.0% 6.2c
Tue Dec 11 07:44, 89.1% 6.6c
Tue Dec 11 07:43, 89.7% 6.1c
Tue Dec 11 07:41, 88.0% 5.6c
Tue Dec 11 07:15, 85.0% 5.4c
Tue Dec 11 06:16, 84.8% 5.3c
Tue Dec 11 05:15, 84.8% 5.4c
Tue Dec 11 04:22, 85.0% 5.2c
Tue Dec 11 03:29, 85.1% 5.2c
Tue Dec 11 02:31, 85.4% 5.0c
Tue Dec 11 01:33, 85.7% 4.8c
Tue Dec 11 00:40, 85.8% 4.9c
Mon Dec 10 23:59, 85.6% 5.0c
Mon Dec 10 23:50, 85.6% 5.1c
Mon Dec 10 22:57, 85.8% 5.4c
Mon Dec 10 22:28, 90.7% 5.5c
Mon Dec 10 21:58, 84.6% 5.3c
Mon Dec 10 21:00, 84.7% 5.3c
Mon Dec 10 20:03, 85.2% 5.3c
Mon Dec 10 19:06, 84.8% 5.1c
Mon Dec 10 18:15, 84.9% 5.1c
Mon Dec 10 17:20, 85.3% 5.0c
Mon Dec 10 16:20, 84.9% 5.3c
Mon Dec 10 16:07, 84.6% 5.4c
Mon Dec 10 15:39, 83.7% 5.9c
Mon Dec 10 15:22, 83.2% 6.5c
Mon Dec 10 15:18, 83.2% 6.4c
Mon Dec 10 15:00, 82.4% 7.0c
Mon Dec 10 14:41, 81.5% 7.5c
Mon Dec 10 14:27, 80.8% 8.0c
Mon Dec 10 14:23, 80.5% 8.2c
Mon Dec 10 14:12, 79.7% 8.5c
Mon Dec 10 13:53, 78.8% 9.0c
Mon Dec 10 13:35, 77.7% 9.5c
Mon Dec 10 13:32, 77.6% 9.6c
Mon Dec 10 13:20, 76.5% 10.0c
Mon Dec 10 13:09, 74.9% 10.5c
Mon Dec 10 13:00, 73.5% 11.0c
Mon Dec 10 12:34, 72.0% 11.5c
Mon Dec 10 12:32, 72.3% 11.6c
Mon Dec 10 12:22, 73.1% 11.1c
Mon Dec 10 12:17, 74.3% 10.6c
Mon Dec 10 12:14, 75.8% 10.1c
Mon Dec 10 12:10, 77.4% 9.6c
Mon Dec 10 11:56, 77.3% 9.0c
Mon Dec 10 11:46, 75.2% 9.6c
Mon Dec 10 11:42, 76.5% 9.0c
Mon Dec 10 11:37, 77.9% 8.5c
Mon Dec 10 11:35, 79.0% 8.2c
Mon Dec 10 11:34, 79.5% 8.0c
Mon Dec 10 11:32, 81.2% 7.4c
Mon Dec 10 11:30, 82.6% 6.9c
Mon Dec 10 11:00, 83.3% 6.4c
Mon Dec 10 10:55, 84.8% 5.9c
Mon Dec 10 10:49, 86.2% 5.4c
Mon Dec 10 10:38, 86.6% 4.9c
Mon Dec 10 10:36, 86.7% 4.8c
Mon Dec 10 10:17, 87.2% 4.4c
Mon Dec 10 09:59, 88.0% 3.9c
Mon Dec 10 09:36, 88.7% 3.2c
Mon Dec 10 08:41, 88.8% 3.0c
Mon Dec 10 07:44, 88.6% 3.3c
Mon Dec 10 07:44, 88.6% 3.3c
Mon Dec 10 07:34, 88.4% 3.4c
Mon Dec 10 06:48, 88.0% 3.8c
Mon Dec 10 06:28, 87.9% 3.9c
Mon Dec 10 05:48, 87.8% 4.0c
Mon Dec 10 04:50, 87.6% 4.2c
Mon Dec 10 04:47, 87.3% 4.4c
Mon Dec 10 04:30, 87.9% 4.2c
Mon Dec 10 03:52, 88.2% 4.0c
Mon Dec 10 03:03, 88.7% 3.7c
Mon Dec 10 02:53, 88.8% 3.6c
Mon Dec 10 02:00, 89.2% 3.2c
Mon Dec 10 01:09, 89.2% 2.8c
Mon Dec 10 00:13, 89.2% 3.1c
Sun Dec 9 23:21, 89.6% 3.2c
Sun Dec 9 22:24, 89.3% 2.8c
Sun Dec 9 21:25, 89.4% 3.1c
Sun Dec 9 21:08, 89.4% 3.2c
Sun Dec 9 20:47, 89.7% 3.7c
Sun Dec 9 20:28, 94.6% 4.6c
Sun Dec 9 20:25, 94.3% 4.2c
Sun Dec 9 20:25, 93.6% 3.9c
Sun Dec 9 20:09, 87.6% 3.5c
Sun Dec 9 19:31, 87.2% 3.9c
Sun Dec 9 19:09, 87.0% 4.0c
Sun Dec 9 18:36, 86.6% 4.3c
Sun Dec 9 18:05, 86.4% 4.5c
Sun Dec 9 17:47, 86.5% 5.0c
Sun Dec 9 17:43, 86.3% 5.2c
Sun Dec 9 17:40, 85.8% 5.5c
Sun Dec 9 17:36, 85.8% 5.7c
Sun Dec 9 17:32, 88.2% 5.7c
Sun Dec 9 17:28, 91.8% 5.4c
Sun Dec 9 17:26, 85.6% 4.8c
Sun Dec 9 16:56, 84.6% 5.3c
Sun Dec 9 16:34, 83.6% 5.8c
Sun Dec 9 16:33, 83.6% 5.8c
Sun Dec 9 16:12, 82.7% 6.3c
Sun Dec 9 15:51, 81.8% 6.8c
Sun Dec 9 15:41, 81.1% 7.1c
Sun Dec 9 15:34, 80.6% 7.3c
Sun Dec 9 15:18, 79.5% 7.8c
Sun Dec 9 15:02, 78.3% 8.3c
Sun Dec 9 14:49, 77.1% 8.8c
Sun Dec 9 14:42, 76.2% 9.1c
Sun Dec 9 14:38, 75.6% 9.3c
Sun Dec 9 14:29, 73.9% 9.8c
Sun Dec 9 14:21, 72.6% 10.4c
Sun Dec 9 13:52, 72.9% 10.9c
Sun Dec 9 13:51, 72.9% 11.0c
Sun Dec 9 13:40, 71.9% 11.4c
Sun Dec 9 13:30, 70.7% 11.9c
Sun Dec 9 12:57, 69.1% 12.8c
Sun Dec 9 12:42, 70.2% 12.4c
Sun Dec 9 12:24, 68.9% 12.9c
Sun Dec 9 12:18, 70.4% 12.4c
Sun Dec 9 12:13, 71.8% 11.9c
Sun Dec 9 12:10, 73.2% 11.4c
Sun Dec 9 12:06, 74.8% 10.9c
Sun Dec 9 12:03, 75.6% 10.4c
Sun Dec 9 11:55, 75.4% 10.3c
Sun Dec 9 11:49, 73.8% 10.8c
Sun Dec 9 11:41, 75.0% 11.4c
Sun Dec 9 11:36, 71.5% 10.8c
Sun Dec 9 11:32, 73.2% 10.3c
Sun Dec 9 11:29, 74.7% 9.8c
Sun Dec 9 11:26, 75.9% 9.3c
Sun Dec 9 11:05, 76.5% 8.7c
Sun Dec 9 11:01, 76.3% 8.8c
Sun Dec 9 10:59, 78.9% 8.1c
Sun Dec 9 10:58, 79.5% 7.9c
Sun Dec 9 10:55, 81.0% 7.4c
Sun Dec 9 10:52, 82.7% 6.9c
Sun Dec 9 10:50, 84.5% 6.4c
Sun Dec 9 10:48, 86.1% 5.8c
Sun Dec 9 10:46, 86.9% 5.3c
Sun Dec 9 10:38, 87.5% 4.8c
Sun Dec 9 10:09, 88.9% 4.3c
Sun Dec 9 10:02, 89.2% 4.0c
Sun Dec 9 09:06, 89.4% 3.8c
Sun Dec 9 08:15, 89.3% 3.9c
Sun Dec 9 08:02, 89.3% 3.8c
Sun Dec 9 07:22, 89.1% 4.1c
Sun Dec 9 06:27, 88.8% 4.4c
Sun Dec 9 06:26, 88.7% 4.3c
Sun Dec 9 05:29, 88.3% 4.7c
Sun Dec 9 05:25, 88.0% 4.8c
Sun Dec 9 04:27, 88.5% 4.8c
Sun Dec 9 03:51, 88.0% 5.0c
Sun Dec 9 03:28, 87.7% 5.4c
Sun Dec 9 03:25, 87.3% 5.5c
Sun Dec 9 03:24, 87.7% 5.3c
Sun Dec 9 03:07, 87.5% 5.6c
Sun Dec 9 02:07, 86.8% 5.9c
Sun Dec 9 02:03, 86.7% 5.8c
Sun Dec 9 01:25, 85.9% 6.3c
Sun Dec 9 01:09, 85.6% 6.6c
Sun Dec 9 00:41, 85.1% 6.8c
Sun Dec 9 00:17, 84.9% 7.0c
Sat Dec 8 23:26, 84.9% 7.2c
Sat Dec 8 21:37, 84.6% 7.4c
Sat Dec 8 20:40, 84.6% 7.5c
Sat Dec 8 19:43, 85.0% 7.6c
Sat Dec 8 18:47, 84.7% 7.3c
Sat Dec 8 17:48, 85.0% 7.2c
Sat Dec 8 17:45, 84.3% 7.4c
Sat Dec 8 16:45, 85.5% 7.1c
Sat Dec 8 16:12, 85.4% 7.3c
Sat Dec 8 15:52, 85.3% 7.5c
Sat Dec 8 15:29, 85.0% 7.8c
Sat Dec 8 15:02, 84.7% 8.3c
Sat Dec 8 14:55, 84.4% 8.5c
Sat Dec 8 14:45, 84.1% 8.8c
Sat Dec 8 14:36, 83.3% 9.3c
Sat Dec 8 14:08, 84.1% 9.8c
Sat Dec 8 14:02, 84.8% 9.6c
Sat Dec 8 13:54, 85.9% 9.3c
Sat Dec 8 13:47, 86.6% 8.8c
Sat Dec 8 13:17, 82.2% 8.3c
Sat Dec 8 13:04, 82.0% 8.4c
Sat Dec 8 12:09, 81.5% 8.8c
Sat Dec 8 11:18, 83.8% 8.8c
Sat Dec 8 11:18, 83.9% 8.7c
Sat Dec 8 10:20, 83.0% 8.1c
Sat Dec 8 09:29, 82.9% 8.2c
Sat Dec 8 09:26, 82.8% 8.2c
Sat Dec 8 09:12, 84.2% 8.8c
Sat Dec 8 08:32, 81.6% 8.1c
Sat Dec 8 07:40, 81.5% 8.2c
Sat Dec 8 06:42, 81.7% 8.1c
Sat Dec 8 06:39, 80.8% 8.2c
Sat Dec 8 04:52, 82.0% 7.6c
Sat Dec 8 04:00, 81.9% 7.7c
Sat Dec 8 03:04, 81.8% 7.7c
Sat Dec 8 02:55, 81.8% 7.6c
Sat Dec 8 02:12, 81.6% 7.8c
Sat Dec 8 01:17, 80.5% 8.3c
Sat Dec 8 00:20, 80.2% 8.2c
Fri Dec 7 23:22, 80.3% 8.1c
Fri Dec 7 22:23, 80.6% 8.1c
Fri Dec 7 21:25, 81.2% 8.0c
Fri Dec 7 20:30, 82.6% 7.9c
Fri Dec 7 19:44, 82.8% 8.1c
Fri Dec 7 19:31, 83.0% 8.5c
Fri Dec 7 19:19, 88.3% 8.7c
Fri Dec 7 18:35, 81.0% 8.0c
Fri Dec 7 18:06, 82.2% 8.3c
Fri Dec 7 17:55, 88.3% 8.6c
Fri Dec 7 17:43, 85.0% 8.0c
Fri Dec 7 17:40, 79.6% 7.5c
Fri Dec 7 17:09, 79.6% 7.5c
Fri Dec 7 16:47, 79.5% 7.6c
Fri Dec 7 15:51, 79.0% 7.9c
Fri Dec 7 15:44, 78.8% 8.0c
Fri Dec 7 15:17, 78.3% 8.5c
Fri Dec 7 14:59, 77.6% 8.9c
Fri Dec 7 14:50, 78.1% 9.0c
Fri Dec 7 14:23, 76.7% 9.5c
Fri Dec 7 14:04, 76.1% 10.0c
Fri Dec 7 13:59, 75.7% 10.0c
Fri Dec 7 13:43, 76.3% 10.5c
Fri Dec 7 13:06, 77.8% 11.0c
Fri Dec 7 12:55, 74.7% 11.1c
Fri Dec 7 12:46, 73.6% 11.6c
Fri Dec 7 12:40, 72.7% 12.1c
Fri Dec 7 12:20, 72.3% 12.6c
Fri Dec 7 12:14, 74.0% 12.1c
Fri Dec 7 12:11, 74.7% 11.8c
Fri Dec 7 12:08, 75.4% 11.5c
Fri Dec 7 11:33, 75.5% 11.0c
Fri Dec 7 11:29, 77.1% 10.5c
Fri Dec 7 11:25, 78.6% 10.0c
Fri Dec 7 11:19, 79.8% 9.5c
Fri Dec 7 11:19, 79.9% 9.4c
Fri Dec 7 11:09, 81.2% 8.9c
Fri Dec 7 10:48, 83.4% 8.4c
Fri Dec 7 10:45, 84.8% 7.9c
Fri Dec 7 10:41, 85.6% 7.4c
Fri Dec 7 10:27, 86.3% 7.0c
Fri Dec 7 09:28, 86.8% 6.7c
Fri Dec 7 08:34, 86.3% 6.8c
Fri Dec 7 08:23, 86.1% 6.8c
Fri Dec 7 07:40, 85.1% 7.4c
Fri Dec 7 07:35, 85.0% 7.5c
Fri Dec 7 07:06, 84.1% 7.9c
Fri Dec 7 06:37, 83.2% 8.4c
Fri Dec 7 06:32, 83.1% 8.4c
Fri Dec 7 05:47, 82.3% 8.9c
Fri Dec 7 04:50, 82.3% 9.0c
Fri Dec 7 04:24, 82.8% 8.9c
Fri Dec 7 03:51, 83.2% 8.4c
Fri Dec 7 03:41, 83.5% 8.4c
Fri Dec 7 03:08, 84.3% 7.9c
Fri Dec 7 02:58, 84.6% 7.6c
Fri Dec 7 02:17, 84.9% 7.3c
Fri Dec 7 02:01, 85.0% 7.2c
Fri Dec 7 01:01, 85.1% 7.2c
Fri Dec 7 00:08, 85.7% 7.0c
Fri Dec 7 00:08, 85.7% 7.0c
Thu Dec 6 23:12, 85.5% 6.8c
Thu Dec 6 22:14, 85.7% 6.8c
Thu Dec 6 21:21, 86.4% 6.7c
Thu Dec 6 20:22, 87.3% 6.5c
Thu Dec 6 19:44, 87.4% 6.8c
Thu Dec 6 19:29, 87.6% 7.2c
Thu Dec 6 19:24, 87.6% 7.3c
Thu Dec 6 19:10, 91.0% 7.9c
Thu Dec 6 19:06, 90.8% 7.4c
Thu Dec 6 18:45, 84.4% 7.2c
Thu Dec 6 18:37, 84.3% 7.3c
Thu Dec 6 17:40, 83.9% 7.7c
Thu Dec 6 17:23, 83.7% 7.8c
Thu Dec 6 16:45, 83.3% 8.2c
Thu Dec 6 16:34, 83.1% 8.3c
Thu Dec 6 15:52, 82.3% 8.9c
Thu Dec 6 14:55, 81.6% 9.0c
Thu Dec 6 14:00, 81.8% 8.9c
Thu Dec 6 13:02, 80.5% 8.9c
Thu Dec 6 12:05, 80.5% 8.9c
Thu Dec 6 11:10, 83.8% 8.9c
Thu Dec 6 10:50, 85.2% 8.8c
Thu Dec 6 10:20, 83.0% 8.3c
Thu Dec 6 10:11, 80.9% 8.1c
Thu Dec 6 09:17, 81.6% 7.9c
Thu Dec 6 08:40, 82.8% 7.8c
Thu Dec 6 08:20, 88.1% 7.7c
Thu Dec 6 08:17, 88.8% 7.7c
Thu Dec 6 08:14, 85.0% 7.1c
Thu Dec 6 07:51, 82.4% 6.6c
Thu Dec 6 07:25, 83.1% 6.1c
Thu Dec 6 07:22, 83.2% 6.1c
Thu Dec 6 06:33, 83.7% 5.6c
Thu Dec 6 06:16, 83.9% 5.6c
Thu Dec 6 05:40, 83.9% 5.5c
Thu Dec 6 04:41, 83.9% 5.4c
Thu Dec 6 03:48, 83.8% 5.4c
Thu Dec 6 02:53, 83.8% 5.4c
Thu Dec 6 02:01, 83.9% 5.3c
Thu Dec 6 01:08, 83.9% 5.3c
Thu Dec 6 00:12, 84.2% 5.2c
Wed Dec 5 23:14, 84.6% 5.2c
Wed Dec 5 22:18, 84.8% 5.1c
Wed Dec 5 21:27, 85.5% 5.0c
Wed Dec 5 20:48, 85.4% 5.1c
Wed Dec 5 20:32, 85.2% 5.4c
Wed Dec 5 20:17, 85.1% 5.6c
Wed Dec 5 19:40, 86.1% 5.9c
Wed Dec 5 19:16, 91.1% 5.8c
Wed Dec 5 18:42, 83.7% 5.4c
Wed Dec 5 17:48, 84.3% 5.3c
Wed Dec 5 16:51, 85.0% 5.1c
Wed Dec 5 15:54, 85.6% 5.1c
Wed Dec 5 14:57, 86.2% 5.1c
Wed Dec 5 14:02, 86.7% 5.1c
Wed Dec 5 13:44, 86.4% 5.3c
Wed Dec 5 13:22, 91.3% 5.8c
Wed Dec 5 13:20, 91.8% 5.3c
Wed Dec 5 13:09, 85.8% 4.8c
Wed Dec 5 12:47, 85.7% 4.8c
Wed Dec 5 12:16, 85.3% 5.2c
Wed Dec 5 12:08, 85.2% 5.3c
Wed Dec 5 11:57, 84.5% 5.8c
Wed Dec 5 11:48, 86.4% 6.3c
Wed Dec 5 11:46, 88.4% 5.8c
Wed Dec 5 11:42, 84.5% 5.3c
Wed Dec 5 11:29, 84.2% 5.8c
Wed Dec 5 11:17, 86.0% 6.7c
Wed Dec 5 11:14, 87.5% 6.3c
Wed Dec 5 11:04, 85.2% 5.2c
Wed Dec 5 10:32, 85.5% 5.4c
Wed Dec 5 10:16, 89.3% 5.9c
Wed Dec 5 10:09, 85.7% 5.2c
Wed Dec 5 09:44, 85.5% 5.4c
Wed Dec 5 09:36, 85.4% 6.0c
Wed Dec 5 09:29, 87.4% 6.5c
Wed Dec 5 09:23, 88.9% 6.0c
Wed Dec 5 09:19, 89.6% 5.4c
Wed Dec 5 09:15, 89.7% 4.9c
Wed Dec 5 09:15, 89.6% 4.8c
Wed Dec 5 09:04, 91.5% 4.3c
Wed Dec 5 08:31, 86.0% 3.8c
Wed Dec 5 08:15, 89.5% 4.5c
Wed Dec 5 08:11, 91.2% 4.3c
Wed Dec 5 08:10, 89.9% 3.6c
Wed Dec 5 08:07, 83.6% 3.4c
Wed Dec 5 07:39, 83.7% 3.3c
Wed Dec 5 06:40, 84.1% 3.1c
Wed Dec 5 05:45, 84.4% 2.9c
Wed Dec 5 05:31, 84.5% 2.9c
Wed Dec 5 04:54, 84.6% 2.8c
Wed Dec 5 03:58, 84.8% 2.6c
Wed Dec 5 02:59, 84.8% 2.7c
Wed Dec 5 02:05, 84.8% 2.7c
Wed Dec 5 01:04, 84.8% 2.6c
Wed Dec 5 00:11, 85.0% 2.4c
Tue Dec 4 23:17, 85.0% 2.4c
Tue Dec 4 22:20, 84.8% 2.5c
Tue Dec 4 21:21, 85.1% 2.4c
Tue Dec 4 20:28, 85.1% 2.3c
Tue Dec 4 20:25, 84.8% 2.4c
Tue Dec 4 19:27, 85.2% 2.3c
Tue Dec 4 19:23, 85.0% 2.3c
Tue Dec 4 18:31, 84.7% 2.5c
Tue Dec 4 18:25, 84.7% 2.6c
Tue Dec 4 17:43, 84.2% 3.0c
Tue Dec 4 17:26, 83.8% 3.4c
Tue Dec 4 17:08, 82.8% 3.5c
Tue Dec 4 16:34, 82.5% 3.9c
Tue Dec 4 16:22, 82.3% 4.0c
Tue Dec 4 15:46, 81.4% 4.5c
Tue Dec 4 15:33, 81.1% 4.8c
Tue Dec 4 15:12, 80.1% 5.0c
Tue Dec 4 14:35, 79.6% 5.6c
Tue Dec 4 14:33, 79.7% 5.5c
Tue Dec 4 13:42, 79.0% 6.0c
Tue Dec 4 13:39, 79.0% 6.0c
Tue Dec 4 12:48, 78.3% 6.5c
Tue Dec 4 11:56, 78.4% 6.8c
Tue Dec 4 11:44, 82.3% 6.5c
Tue Dec 4 10:59, 75.5% 6.6c
Tue Dec 4 10:55, 76.7% 6.2c
Tue Dec 4 10:51, 78.5% 5.7c
Tue Dec 4 10:46, 79.8% 5.2c
Tue Dec 4 10:42, 80.9% 4.7c
Tue Dec 4 10:37, 81.4% 4.2c
Tue Dec 4 10:12, 82.3% 3.7c
Tue Dec 4 10:09, 82.4% 3.5c
Tue Dec 4 09:38, 83.2% 3.1c
Tue Dec 4 09:12, 83.8% 2.7c
Tue Dec 4 09:06, 84.1% 2.6c
Tue Dec 4 08:15, 84.7% 2.0c
Tue Dec 4 07:20, 85.1% 2.0c
Tue Dec 4 07:20, 85.1% 2.0c
Tue Dec 4 06:21, 85.3% 2.1c
Tue Dec 4 06:09, 85.3% 2.1c
Tue Dec 4 05:23, 85.3% 2.3c
Tue Dec 4 04:30, 85.5% 2.4c
Tue Dec 4 04:30, 85.5% 2.4c
Tue Dec 4 03:31, 85.3% 2.6c
Tue Dec 4 03:28, 85.2% 2.6c
Tue Dec 4 02:32, 85.3% 2.8c
Tue Dec 4 01:39, 85.1% 3.1c
Tue Dec 4 01:37, 85.1% 3.2c
Tue Dec 4 00:46, 84.8% 3.5c
Tue Dec 4 00:14, 84.6% 3.6c
Mon Dec 3 23:49, 84.5% 3.8c
Mon Dec 3 23:02, 84.1% 4.1c
Mon Dec 3 22:57, 84.0% 4.2c
Mon Dec 3 21:58, 83.8% 4.5c
Mon Dec 3 21:01, 83.7% 4.5c
Mon Dec 3 20:34, 83.5% 4.6c
Mon Dec 3 20:08, 83.2% 4.9c
Mon Dec 3 19:15, 83.3% 5.0c
Mon Dec 3 18:35, 82.5% 5.1c
Mon Dec 3 18:21, 82.2% 5.3c
Mon Dec 3 17:39, 80.9% 5.6c
Mon Dec 3 17:24, 80.5% 5.9c
Mon Dec 3 17:01, 79.8% 6.2c
Mon Dec 3 16:35, 78.9% 6.7c
Mon Dec 3 16:29, 78.7% 6.8c
Mon Dec 3 16:18, 78.2% 7.2c
Mon Dec 3 16:05, 77.7% 7.7c
Mon Dec 3 15:54, 78.0% 8.2c
Mon Dec 3 15:47, 78.2% 8.7c
Mon Dec 3 15:33, 78.6% 9.2c
Mon Dec 3 15:30, 78.3% 9.4c
Mon Dec 3 15:27, 77.2% 9.7c
Mon Dec 3 15:24, 79.0% 9.4c
Mon Dec 3 15:18, 78.6% 9.5c
Mon Dec 3 14:57, 75.1% 10.0c
Mon Dec 3 14:37, 71.9% 10.5c
Mon Dec 3 14:32, 65.7% 10.7c
Mon Dec 3 14:31, 65.5% 10.7c
Mon Dec 3 14:26, 65.7% 11.2c
Mon Dec 3 14:21, 65.3% 11.7c
Mon Dec 3 14:18, 64.1% 12.2c
Mon Dec 3 13:38, 65.2% 12.7c
Mon Dec 3 13:37, 65.5% 12.7c
Mon Dec 3 13:06, 68.6% 13.2c
Mon Dec 3 12:57, 62.6% 13.0c
Mon Dec 3 12:48, 62.1% 12.4c
Mon Dec 3 12:20, 62.2% 12.5c
Mon Dec 3 11:54, 64.0% 11.9c
Mon Dec 3 11:50, 63.0% 12.3c
Mon Dec 3 11:48, 62.4% 12.4c
Mon Dec 3 11:39, 63.6% 12.9c
Mon Dec 3 11:35, 68.2% 12.4c
Mon Dec 3 11:34, 71.1% 11.9c
Mon Dec 3 11:32, 75.9% 11.4c
Mon Dec 3 11:06, 73.1% 10.9c
Mon Dec 3 10:59, 74.5% 10.4c
Mon Dec 3 10:56, 76.5% 9.8c
Mon Dec 3 10:53, 78.2% 9.3c
Mon Dec 3 10:52, 78.8% 9.1c
Mon Dec 3 10:50, 80.1% 8.8c
Mon Dec 3 10:47, 82.4% 8.3c
Mon Dec 3 10:45, 84.5% 7.8c
Mon Dec 3 10:42, 86.9% 7.2c
Mon Dec 3 10:41, 87.9% 6.7c
Mon Dec 3 10:11, 89.2% 6.2c
Mon Dec 3 09:59, 91.2% 5.7c
Mon Dec 3 09:53, 93.3% 5.7c
Mon Dec 3 09:09, 91.2% 4.9c
Mon Dec 3 08:40, 88.8% 5.2c
Mon Dec 3 08:23, 88.6% 5.7c
Mon Dec 3 08:14, 88.9% 6.1c
Mon Dec 3 07:14, 86.3% 6.2c
Mon Dec 3 07:07, 86.1% 6.2c
Mon Dec 3 06:20, 86.0% 6.5c
Mon Dec 3 05:40, 85.5% 6.7c
Mon Dec 3 05:24, 85.4% 6.8c
Mon Dec 3 04:34, 85.5% 7.2c
Mon Dec 3 04:27, 85.4% 7.3c
Mon Dec 3 03:42, 85.5% 7.7c
Mon Dec 3 03:34, 85.5% 7.8c
Mon Dec 3 02:43, 85.5% 8.2c
Mon Dec 3 02:21, 85.4% 8.2c
Mon Dec 3 01:49, 85.5% 8.5c
Mon Dec 3 00:57, 85.9% 8.6c
Mon Dec 3 00:06, 86.0% 8.7c
Sun Dec 2 23:15, 85.5% 8.8c
Sun Dec 2 22:39, 85.2% 8.7c
Sun Dec 2 22:14, 84.4% 9.0c
Sun Dec 2 22:11, 83.3% 9.2c
Sun Dec 2 21:17, 84.5% 8.7c
Sun Dec 2 20:23, 84.1% 8.7c
Sun Dec 2 19:25, 83.9% 8.8c
Sun Dec 2 18:34, 83.3% 8.9c
Sun Dec 2 17:40, 83.1% 8.6c
Sun Dec 2 16:48, 82.5% 8.7c
Sun Dec 2 16:38, 81.0% 9.2c
Sun Dec 2 15:43, 82.4% 8.8c
Sun Dec 2 14:46, 81.6% 9.1c
Sun Dec 2 13:47, 82.1% 9.1c
Sun Dec 2 13:27, 82.4% 9.0c
Sun Dec 2 12:51, 83.0% 8.6c
Sun Dec 2 12:19, 83.2% 8.5c
Sun Dec 2 11:58, 84.5% 8.7c
Sun Dec 2 11:36, 82.3% 9.0c
Sun Dec 2 11:27, 81.5% 9.5c
Sun Dec 2 11:13, 82.1% 10.0c
Sun Dec 2 11:08, 83.7% 9.5c
Sun Dec 2 11:05, 85.0% 9.0c
Sun Dec 2 11:05, 85.1% 9.0c
Sun Dec 2 11:02, 86.4% 8.5c
Sun Dec 2 11:00, 87.3% 8.0c
Sun Dec 2 10:32, 84.2% 7.4c
Sun Dec 2 10:08, 84.3% 7.2c
Sun Dec 2 09:16, 84.6% 6.9c
Sun Dec 2 08:18, 84.8% 6.7c

s2 Liv-Room HT*
Wed Dec 12 09:38, 52.0% 18.8c

Wed Dec 12 09:38, 52.0% 18.8c
Wed Dec 12 08:40, 52.3% 18.9c
Wed Dec 12 07:50, 52.1% 18.8c
Wed Dec 12 07:28, 51.7% 18.6c
Wed Dec 12 06:54, 51.3% 18.2c
Wed Dec 12 06:02, 49.9% 18.0c
Wed Dec 12 05:16, 49.9% 18.1c
Wed Dec 12 05:10, 49.9% 18.2c
Wed Dec 12 04:18, 50.0% 18.4c
Wed Dec 12 03:26, 50.1% 18.6c
Wed Dec 12 03:21, 50.1% 18.7c
Wed Dec 12 02:27, 50.1% 19.1c
Wed Dec 12 02:03, 50.1% 19.2c
Wed Dec 12 01:34, 50.2% 19.4c
Wed Dec 12 00:58, 50.2% 19.7c
Wed Dec 12 00:35, 50.4% 19.9c
Tue Dec 11 23:45, 50.9% 20.4c
Tue Dec 11 22:54, 51.1% 20.5c
Tue Dec 11 21:57, 51.4% 20.5c
Tue Dec 11 21:04, 51.1% 20.2c
Tue Dec 11 20:13, 51.5% 20.2c
Tue Dec 11 20:02, 51.7% 20.2c
Tue Dec 11 19:22, 52.6% 19.9c
Tue Dec 11 18:26, 52.6% 19.6c
Tue Dec 11 18:22, 52.7% 19.7c
Tue Dec 11 17:30, 51.5% 19.3c
Tue Dec 11 16:36, 51.8% 19.3c
Tue Dec 11 15:43, 51.6% 19.2c
Tue Dec 11 14:43, 51.6% 19.4c
Tue Dec 11 13:43, 52.4% 19.5c
Tue Dec 11 12:49, 51.3% 19.5c
Tue Dec 11 11:53, 50.8% 19.5c
Tue Dec 11 10:54, 50.9% 19.4c
Tue Dec 11 09:59, 50.4% 19.2c
Tue Dec 11 09:32, 50.3% 19.2c
Tue Dec 11 09:04, 50.2% 19.0c
Tue Dec 11 08:22, 50.4% 18.7c
Tue Dec 11 08:04, 50.3% 18.3c
Tue Dec 11 07:11, 49.2% 17.8c
Tue Dec 11 06:11, 48.9% 17.9c
Tue Dec 11 05:15, 48.5% 17.9c
Tue Dec 11 04:24, 48.5% 18.1c
Tue Dec 11 04:04, 48.5% 18.2c
Tue Dec 11 03:26, 48.6% 18.5c
Tue Dec 11 02:43, 48.8% 18.7c
Tue Dec 11 02:29, 48.9% 18.8c
Tue Dec 11 01:38, 49.1% 19.2c
Tue Dec 11 01:34, 49.1% 19.2c
Tue Dec 11 00:44, 49.1% 19.6c
Tue Dec 11 00:36, 49.4% 19.7c
Mon Dec 10 23:52, 49.8% 20.1c
Mon Dec 10 23:41, 49.8% 20.2c
Mon Dec 10 22:59, 50.4% 20.5c
Mon Dec 10 22:03, 51.1% 20.8c
Mon Dec 10 21:09, 50.9% 20.9c
Mon Dec 10 20:11, 51.0% 20.8c
Mon Dec 10 19:41, 52.1% 20.7c
Mon Dec 10 19:21, 52.3% 20.5c
Mon Dec 10 18:30, 52.4% 20.3c
Mon Dec 10 17:32, 52.5% 20.0c
Mon Dec 10 16:38, 50.6% 19.9c
Mon Dec 10 15:42, 49.6% 19.9c
Mon Dec 10 14:48, 50.1% 20.0c
Mon Dec 10 14:36, 49.9% 20.2c
Mon Dec 10 14:30, 49.2% 20.7c
Mon Dec 10 14:29, 49.2% 21.2c
Mon Dec 10 14:29, 55.4% 21.4c
Mon Dec 10 14:28, 64.6% 21.4c
Mon Dec 10 14:28, 72.2% 21.2c
Mon Dec 10 14:28, 58.9% 20.4c
Mon Dec 10 13:56, 50.0% 20.0c
Mon Dec 10 12:59, 49.2% 20.0c
Mon Dec 10 12:18, 48.2% 20.0c
Mon Dec 10 12:02, 48.4% 19.9c
Mon Dec 10 11:01, 48.4% 19.8c
Mon Dec 10 10:06, 48.6% 19.6c
Mon Dec 10 09:57, 48.7% 19.5c
Mon Dec 10 09:10, 50.5% 19.1c
Mon Dec 10 09:04, 50.6% 19.0c
Mon Dec 10 08:40, 51.0% 18.5c
Mon Dec 10 08:19, 50.5% 18.0c
Mon Dec 10 07:27, 49.0% 18.0c
Mon Dec 10 07:22, 49.1% 18.0c
Mon Dec 10 06:35, 49.1% 17.6c
Mon Dec 10 05:56, 48.5% 17.5c
Mon Dec 10 05:42, 48.7% 17.6c
Mon Dec 10 04:47, 48.6% 17.9c
Mon Dec 10 04:19, 48.6% 18.0c
Mon Dec 10 03:47, 48.5% 18.2c
Mon Dec 10 02:57, 48.5% 18.5c
Mon Dec 10 02:56, 48.5% 18.6c
Mon Dec 10 02:03, 48.5% 19.0c
Mon Dec 10 01:51, 48.6% 19.0c
Mon Dec 10 01:03, 48.6% 19.5c
Mon Dec 10 00:54, 48.7% 19.5c
Mon Dec 10 00:10, 48.9% 20.0c
Mon Dec 10 00:05, 48.8% 20.1c
Sun Dec 9 23:23, 49.0% 20.6c
Sun Dec 9 23:12, 49.1% 20.7c
Sun Dec 9 22:16, 50.2% 20.9c
Sun Dec 9 21:17, 52.0% 20.9c
Sun Dec 9 20:30, 51.9% 21.1c
Sun Dec 9 20:26, 52.8% 21.1c
Sun Dec 9 19:34, 56.2% 21.0c
Sun Dec 9 18:44, 57.7% 20.7c
Sun Dec 9 18:36, 58.0% 20.7c
Sun Dec 9 18:04, 55.8% 20.2c
Sun Dec 9 17:02, 49.8% 19.9c
Sun Dec 9 16:48, 49.0% 19.8c
Sun Dec 9 15:53, 47.5% 19.4c
Sun Dec 9 15:47, 47.6% 19.4c
Sun Dec 9 15:00, 46.6% 19.1c
Sun Dec 9 14:04, 46.7% 19.1c
Sun Dec 9 13:08, 46.4% 18.9c
Sun Dec 9 13:01, 47.5% 18.9c
Sun Dec 9 12:11, 48.2% 18.8c
Sun Dec 9 11:11, 51.0% 19.1c
Sun Dec 9 10:20, 53.1% 18.9c
Sun Dec 9 10:14, 53.5% 18.9c
Sun Dec 9 09:48, 55.6% 18.4c
Sun Dec 9 09:24, 51.7% 17.9c
Sun Dec 9 08:57, 49.7% 17.9c
Sun Dec 9 08:31, 49.6% 18.1c
Sun Dec 9 07:40, 49.9% 18.2c
Sun Dec 9 06:44, 50.6% 18.2c
Sun Dec 9 05:52, 49.8% 18.1c
Sun Dec 9 04:55, 49.9% 18.4c
Sun Dec 9 04:49, 49.9% 18.4c
Sun Dec 9 03:57, 50.0% 18.7c
Sun Dec 9 03:22, 50.1% 18.9c
Sun Dec 9 03:04, 50.2% 19.1c
Sun Dec 9 02:20, 50.6% 19.4c
Sun Dec 9 02:05, 50.7% 19.5c
Sun Dec 9 01:19, 50.9% 19.9c
Sun Dec 9 01:07, 51.0% 20.1c
Sun Dec 9 00:15, 51.4% 20.5c
Sat Dec 8 23:26, 53.3% 20.4c
Sat Dec 8 22:28, 51.9% 19.9c
Sat Dec 8 21:32, 52.1% 20.0c
Sat Dec 8 20:35, 52.0% 20.0c
Sat Dec 8 19:37, 50.3% 20.0c
Sat Dec 8 18:45, 51.2% 20.0c
Sat Dec 8 18:25, 51.7% 19.9c
Sat Dec 8 18:03, 52.5% 19.4c
Sat Dec 8 17:54, 52.6% 19.1c
Sat Dec 8 16:59, 50.5% 18.8c
Sat Dec 8 16:34, 50.6% 18.9c
Sat Dec 8 16:09, 50.7% 19.1c
Sat Dec 8 15:17, 51.0% 19.4c
Sat Dec 8 13:27, 52.4% 19.4c
Sat Dec 8 12:51, 51.9% 19.4c
Sat Dec 8 12:28, 50.5% 19.3c
Sat Dec 8 11:32, 50.7% 19.2c
Sat Dec 8 10:34, 51.0% 19.1c
Sat Dec 8 09:43, 51.4% 19.0c
Sat Dec 8 08:47, 52.1% 18.9c
Sat Dec 8 08:46, 52.2% 18.8c
Sat Dec 8 07:54, 54.7% 18.2c
Sat Dec 8 07:53, 54.6% 18.4c
Sat Dec 8 07:02, 51.2% 17.8c
Sat Dec 8 06:06, 49.8% 17.7c
Sat Dec 8 05:29, 49.7% 17.8c
Sat Dec 8 05:12, 49.7% 17.9c
Sat Dec 8 04:21, 49.6% 18.2c
Sat Dec 8 03:53, 49.5% 18.3c
Sat Dec 8 03:25, 49.5% 18.5c
Sat Dec 8 02:36, 49.5% 18.8c
Sat Dec 8 02:28, 49.5% 19.0c
Sat Dec 8 01:30, 49.4% 19.3c
Sat Dec 8 01:29, 49.4% 19.4c
Sat Dec 8 00:36, 49.5% 19.8c
Sat Dec 8 00:29, 49.5% 20.0c
Fri Dec 7 23:43, 50.1% 20.4c
Fri Dec 7 23:30, 50.3% 20.4c
Fri Dec 7 22:33, 51.0% 20.6c
Fri Dec 7 21:38, 51.8% 20.8c
Fri Dec 7 20:46, 52.8% 21.1c
Fri Dec 7 19:46, 54.5% 20.9c
Fri Dec 7 19:32, 54.8% 20.9c
Fri Dec 7 18:59, 54.9% 20.4c
Fri Dec 7 18:52, 53.6% 20.3c
Fri Dec 7 17:53, 49.9% 19.9c
Fri Dec 7 17:53, 49.9% 19.9c
Fri Dec 7 17:51, 48.9% 19.9c
Fri Dec 7 17:02, 48.6% 19.4c
Fri Dec 7 16:10, 48.4% 19.3c
Fri Dec 7 15:42, 48.5% 19.4c
Fri Dec 7 15:18, 47.9% 19.6c
Fri Dec 7 14:19, 48.6% 19.9c
Fri Dec 7 13:25, 50.4% 19.9c
Fri Dec 7 13:05, 50.5% 19.9c
Fri Dec 7 12:29, 50.8% 19.8c
Fri Dec 7 11:54, 51.7% 19.4c
Fri Dec 7 11:34, 51.5% 19.2c
Fri Dec 7 10:43, 52.5% 19.1c
Fri Dec 7 09:47, 53.1% 19.0c
Fri Dec 7 09:06, 53.6% 18.9c
Fri Dec 7 08:51, 53.8% 18.7c
Fri Dec 7 07:54, 53.4% 18.4c
Fri Dec 7 07:54, 53.4% 18.4c
Fri Dec 7 07:01, 52.7% 18.3c
Fri Dec 7 06:09, 52.5% 18.2c
Fri Dec 7 05:16, 52.4% 18.4c
Fri Dec 7 05:12, 52.3% 18.5c
Fri Dec 7 04:21, 52.1% 18.6c
Fri Dec 7 03:30, 52.1% 18.9c
Fri Dec 7 03:13, 52.1% 18.9c
Fri Dec 7 02:36, 52.1% 19.1c
Fri Dec 7 01:42, 52.3% 19.4c
Fri Dec 7 01:35, 52.3% 19.4c
Fri Dec 7 00:48, 52.5% 19.8c
Thu Dec 6 23:54, 52.6% 20.0c
Thu Dec 6 23:46, 52.3% 19.9c
Thu Dec 6 22:58, 53.0% 20.3c
Thu Dec 6 22:15, 53.6% 20.4c
Thu Dec 6 22:05, 53.7% 20.5c
Thu Dec 6 21:05, 54.3% 20.7c
Thu Dec 6 20:05, 54.8% 20.9c
Thu Dec 6 19:13, 57.0% 21.0c
Thu Dec 6 18:45, 59.6% 20.7c
Thu Dec 6 18:19, 58.2% 20.1c
Thu Dec 6 17:53, 60.4% 20.1c
Thu Dec 6 17:20, 59.6% 19.7c
Thu Dec 6 17:11, 59.0% 19.6c
Thu Dec 6 16:25, 58.1% 19.3c
Thu Dec 6 15:26, 60.7% 19.2c
Thu Dec 6 15:06, 59.8% 19.1c
Thu Dec 6 14:33, 55.7% 19.1c
Thu Dec 6 13:37, 55.4% 19.1c
Thu Dec 6 12:46, 54.0% 19.2c
Thu Dec 6 11:45, 55.1% 19.2c
Thu Dec 6 10:53, 54.8% 19.0c
Thu Dec 6 10:03, 52.7% 19.0c
Thu Dec 6 09:10, 53.1% 19.0c
Thu Dec 6 08:49, 53.7% 19.0c
Thu Dec 6 08:19, 54.9% 18.7c
Thu Dec 6 08:07, 54.8% 18.5c
Thu Dec 6 07:22, 50.0% 18.1c
Thu Dec 6 06:22, 48.8% 17.9c
Thu Dec 6 06:22, 48.8% 17.9c
Thu Dec 6 05:22, 48.8% 18.2c
Thu Dec 6 05:14, 48.7% 18.2c
Thu Dec 6 04:23, 48.7% 18.5c
Thu Dec 6 03:39, 48.7% 18.7c
Thu Dec 6 03:26, 48.7% 18.9c
Thu Dec 6 02:34, 48.8% 19.2c
Thu Dec 6 02:27, 48.7% 19.2c
Thu Dec 6 01:42, 48.8% 19.6c
Thu Dec 6 01:23, 48.8% 19.7c
Thu Dec 6 00:51, 48.8% 20.0c
Thu Dec 6 00:27, 48.9% 20.2c
Wed Dec 5 23:59, 48.8% 20.6c
Wed Dec 5 23:40, 49.0% 20.8c
Wed Dec 5 23:04, 49.2% 21.2c
Wed Dec 5 22:07, 49.8% 21.4c
Wed Dec 5 21:12, 51.6% 21.4c
Wed Dec 5 20:42, 51.5% 21.3c
Wed Dec 5 20:15, 51.4% 21.1c
Wed Dec 5 19:20, 51.7% 21.1c
Wed Dec 5 18:21, 52.3% 20.9c
Wed Dec 5 17:24, 48.7% 20.8c
Wed Dec 5 17:24, 48.6% 20.7c
Wed Dec 5 16:27, 48.6% 20.4c
Wed Dec 5 15:34, 49.0% 20.2c
Wed Dec 5 15:32, 48.9% 20.2c
Wed Dec 5 14:40, 48.4% 20.1c
Wed Dec 5 13:47, 48.4% 20.0c
Wed Dec 5 13:31, 48.0% 19.7c
Wed Dec 5 12:51, 48.1% 19.2c
Wed Dec 5 12:50, 47.9% 19.1c
Wed Dec 5 11:51, 46.6% 19.0c
Wed Dec 5 10:58, 47.0% 19.0c
Wed Dec 5 10:04, 47.1% 18.9c
Wed Dec 5 09:12, 48.6% 18.7c
Wed Dec 5 09:07, 48.6% 18.6c
Wed Dec 5 08:11, 49.2% 18.2c
Wed Dec 5 08:08, 49.0% 18.1c
Wed Dec 5 07:28, 48.4% 17.7c
Wed Dec 5 07:10, 48.2% 17.5c
Wed Dec 5 06:10, 47.5% 17.1c
Wed Dec 5 05:38, 47.4% 17.2c
Wed Dec 5 05:14, 47.5% 17.4c
Wed Dec 5 04:16, 47.6% 17.7c
Wed Dec 5 04:16, 47.6% 17.7c
Wed Dec 5 04:08, 47.6% 17.7c
Wed Dec 5 03:19, 47.7% 18.1c
Wed Dec 5 02:46, 47.7% 18.2c
Wed Dec 5 02:27, 47.9% 18.4c
Wed Dec 5 01:41, 47.9% 18.7c
Wed Dec 5 01:27, 47.9% 18.9c
Wed Dec 5 00:47, 48.2% 19.2c
Wed Dec 5 00:29, 48.2% 19.4c
Tue Dec 4 23:57, 48.4% 19.7c
Tue Dec 4 23:34, 48.6% 20.0c
Tue Dec 4 22:36, 49.2% 20.5c
Tue Dec 4 21:42, 50.1% 20.6c
Tue Dec 4 20:47, 51.0% 20.6c
Tue Dec 4 19:56, 51.0% 20.5c
Tue Dec 4 19:02, 50.4% 20.4c
Tue Dec 4 18:09, 50.4% 20.5c
Tue Dec 4 17:11, 49.1% 20.4c
Tue Dec 4 16:52, 48.9% 20.2c
Tue Dec 4 16:12, 46.1% 20.1c
Tue Dec 4 16:11, 46.1% 20.1c
Tue Dec 4 15:13, 43.2% 19.8c
Tue Dec 4 15:02, 42.9% 19.9c
Tue Dec 4 14:17, 46.0% 20.0c
Tue Dec 4 13:22, 45.8% 20.1c
Tue Dec 4 12:24, 44.5% 20.1c
Tue Dec 4 11:50, 49.0% 19.8c
Tue Dec 4 11:29, 49.0% 19.6c
Tue Dec 4 10:32, 48.5% 19.7c
Tue Dec 4 09:41, 48.2% 19.7c
Tue Dec 4 09:05, 48.7% 19.3c
Tue Dec 4 08:43, 49.5% 18.9c
Tue Dec 4 08:34, 49.7% 18.8c
Tue Dec 4 07:52, 48.8% 18.3c
Tue Dec 4 07:49, 48.8% 18.2c
Tue Dec 4 07:23, 48.9% 17.8c
Tue Dec 4 06:58, 48.6% 17.6c
Tue Dec 4 06:07, 48.8% 17.6c
Tue Dec 4 05:19, 48.6% 17.2c
Tue Dec 4 05:14, 48.7% 17.4c
Tue Dec 4 04:23, 48.8% 17.6c
Tue Dec 4 03:56, 48.9% 17.8c
Tue Dec 4 03:31, 49.0% 18.0c
Tue Dec 4 02:41, 49.2% 18.3c
Tue Dec 4 02:39, 49.2% 18.3c
Tue Dec 4 01:48, 49.4% 18.7c
Tue Dec 4 01:38, 49.4% 18.8c
Tue Dec 4 00:51, 49.6% 19.3c
Tue Dec 4 00:51, 49.6% 19.3c
Tue Dec 4 00:45, 49.6% 19.3c
Mon Dec 3 23:54, 49.9% 19.8c
Mon Dec 3 23:52, 50.0% 19.9c
Mon Dec 3 22:59, 50.6% 20.4c
Mon Dec 3 22:08, 49.8% 20.5c
Mon Dec 3 22:08, 49.8% 20.5c
Mon Dec 3 21:13, 49.0% 20.5c
Mon Dec 3 20:20, 51.9% 20.4c
Mon Dec 3 19:37, 53.0% 20.3c
Mon Dec 3 19:26, 53.6% 20.2c
Mon Dec 3 18:29, 54.9% 19.8c
Mon Dec 3 18:27, 55.0% 19.8c
Mon Dec 3 18:01, 55.9% 19.3c
Mon Dec 3 17:44, 55.6% 18.8c
Mon Dec 3 17:31, 53.3% 18.4c
Mon Dec 3 16:40, 52.1% 18.2c
Mon Dec 3 15:45, 51.5% 18.1c
Mon Dec 3 14:51, 52.7% 18.2c
Mon Dec 3 14:14, 53.4% 18.3c
Mon Dec 3 13:51, 53.4% 18.4c
Mon Dec 3 12:52, 52.9% 18.6c
Mon Dec 3 12:01, 51.6% 18.8c
Mon Dec 3 11:05, 52.2% 19.1c
Mon Dec 3 10:05, 53.3% 19.2c
Mon Dec 3 09:05, 54.0% 19.0c
Mon Dec 3 08:22, 54.2% 18.8c
Mon Dec 3 08:07, 54.1% 18.6c
Mon Dec 3 07:39, 53.6% 18.3c
Mon Dec 3 07:14, 52.8% 18.1c
Mon Dec 3 06:21, 52.6% 17.8c
Mon Dec 3 06:19, 52.6% 17.8c
Mon Dec 3 05:26, 52.8% 18.1c
Mon Dec 3 04:34, 53.1% 18.3c
Mon Dec 3 04:28, 53.2% 18.3c
Mon Dec 3 03:40, 53.4% 18.6c
Mon Dec 3 02:56, 53.5% 18.8c
Mon Dec 3 02:49, 53.6% 18.9c
Mon Dec 3 01:51, 53.8% 19.3c
Mon Dec 3 01:40, 53.7% 19.3c
Mon Dec 3 00:59, 53.7% 19.7c
Mon Dec 3 00:39, 53.9% 19.8c
Mon Dec 3 00:00, 54.1% 20.3c
Sun Dec 2 23:50, 54.2% 20.3c
Sun Dec 2 23:04, 55.1% 20.8c
Sun Dec 2 22:09, 56.3% 21.0c
Sun Dec 2 22:09, 56.3% 21.0c
Sun Dec 2 21:11, 57.5% 21.0c
Sun Dec 2 20:17, 59.1% 20.8c
Sun Dec 2 20:07, 59.7% 20.8c
Sun Dec 2 19:18, 61.9% 20.3c
Sun Dec 2 19:16, 62.0% 20.3c
Sun Dec 2 18:34, 58.6% 19.8c
Sun Dec 2 18:20, 57.6% 19.6c
Sun Dec 2 17:58, 55.7% 19.3c
Sun Dec 2 17:37, 55.2% 18.8c
Sun Dec 2 17:21, 55.2% 18.4c
Sun Dec 2 17:15, 55.2% 18.3c
Sun Dec 2 16:21, 52.7% 17.4c
Sun Dec 2 15:21, 52.7% 17.7c
Sun Dec 2 14:57, 52.7% 17.8c
Sun Dec 2 14:28, 52.7% 17.9c
Sun Dec 2 13:34, 53.1% 18.2c
Sun Dec 2 12:47, 53.9% 18.3c
Sun Dec 2 12:40, 54.1% 18.2c
Sun Dec 2 11:59, 54.9% 17.8c
Sun Dec 2 11:49, 54.5% 17.6c
Sun Dec 2 10:51, 52.3% 17.3c
Sun Dec 2 10:07, 51.2% 17.2c
Sun Dec 2 09:52, 51.2% 17.4c
Sun Dec 2 09:00, 51.3% 17.5c
Sun Dec 2 08:09, 51.2% 17.7c
Sun Dec 2 07:20, 51.5% 17.8c
Sun Dec 2 07:18, 51.4% 17.7c
Sun Dec 2 06:25, 51.3% 17.3c
Sun Dec 2 05:56, 51.0% 17.3c
Sun Dec 2 05:26, 51.1% 17.4c
Sun Dec 2 04:27, 51.0% 17.6c
Sun Dec 2 03:34, 50.9% 17.8c
Sun Dec 2 03:31, 50.8% 17.9c
Sun Dec 2 02:37, 50.9% 18.1c
Sun Dec 2 01:45, 50.7% 18.3c
Sun Dec 2 01:43, 50.7% 18.3c
Sun Dec 2 00:46, 50.7% 18.6c
Sun Dec 2 00:46, 50.7% 18.6c
Sun Dec 2 00:11, 50.4% 18.8c
Sat Dec 1 23:50, 50.1% 19.0c
Sat Dec 1 22:59, 50.0% 19.2c
Sat Dec 1 22:15, 49.9% 19.3c
Sat Dec 1 22:03, 49.9% 19.4c
Sat Dec 1 21:08, 49.9% 19.6c
Sat Dec 1 20:09, 50.1% 19.8c
Sat Dec 1 19:11, 50.1% 20.1c
Sat Dec 1 18:20, 50.5% 20.3c
Sat Dec 1 17:29, 51.1% 20.3c
Sat Dec 1 16:31, 51.5% 20.1c
Sat Dec 1 15:57, 52.5% 19.8c
Sat Dec 1 15:34, 51.5% 19.6c
Sat Dec 1 14:41, 52.8% 19.5c
Sat Dec 1 13:42, 52.8% 19.4c
Sat Dec 1 12:45, 49.5% 19.2c
Sat Dec 1 11:51, 49.4% 19.4c
Sat Dec 1 10:53, 51.0% 19.5c
Sat Dec 1 09:58, 51.7% 19.7c
Sat Dec 1 09:22, 52.8% 19.3c
Sat Dec 1 09:03, 52.7% 18.8c
Sat Dec 1 09:01, 52.6% 18.7c
Sat Dec 1 08:28, 52.1% 18.3c
Sat Dec 1 08:02, 51.4% 17.9c
Sat Dec 1 07:11, 51.3% 17.7c
Sat Dec 1 07:07, 51.3% 17.8c
Sat Dec 1 06:13, 50.8% 17.6c
Sat Dec 1 05:21, 50.7% 16.9c
Sat Dec 1 04:29, 49.8% 17.1c
Sat Dec 1 03:34, 49.5% 17.3c
Sat Dec 1 03:33, 49.4% 17.2c
Sat Dec 1 02:42, 49.5% 17.6c
Sat Dec 1 02:06, 49.5% 17.8c
Sat Dec 1 01:50, 49.5% 17.9c
Sat Dec 1 00:57, 49.3% 18.3c
Sat Dec 1 00:53, 49.4% 18.4c
Sat Dec 1 00:08, 49.6% 18.8c
Fri Nov 30 23:55, 49.8% 19.0c
Fri Nov 30 23:31, 50.0% 19.3c
Fri Nov 30 23:03, 50.9% 19.7c
Fri Nov 30 22:07, 51.0% 19.9c
Fri Nov 30 21:16, 51.8% 19.9c
Fri Nov 30 20:23, 51.2% 20.0c
Fri Nov 30 19:30, 51.8% 19.9c
Fri Nov 30 18:47, 52.6% 19.8c
Fri Nov 30 18:31, 52.8% 19.7c
Fri Nov 30 17:38, 51.3% 19.3c
Fri Nov 30 17:36, 51.2% 19.3c
Fri Nov 30 17:07, 51.3% 18.8c
Fri Nov 30 16:39, 52.0% 18.3c
Fri Nov 30 16:29, 52.3% 18.3c
Fri Nov 30 16:03, 52.9% 17.8c
Fri Nov 30 15:45, 53.3% 17.2c
Fri Nov 30 15:43, 52.9% 17.1c
Fri Nov 30 14:58, 51.1% 16.7c
Fri Nov 30 14:45, 51.2% 16.9c
Fri Nov 30 13:54, 51.6% 17.1c
Fri Nov 30 12:56, 51.7% 17.3c
Fri Nov 30 12:47, 51.7% 17.2c
Fri Nov 30 12:04, 51.8% 17.5c
Fri Nov 30 11:03, 51.8% 17.8c
Fri Nov 30 11:02, 51.8% 17.8c
Fri Nov 30 10:06, 51.9% 18.2c
Fri Nov 30 09:49, 51.9% 18.3c
Fri Nov 30 09:11, 51.7% 18.7c
Fri Nov 30 08:19, 51.8% 19.0c
Fri Nov 30 07:54, 52.3% 18.8c
Fri Nov 30 07:26, 52.7% 18.1c
Fri Nov 30 07:26, 52.8% 18.2c
Fri Nov 30 07:02, 53.5% 17.7c
Fri Nov 30 06:31, 53.6% 16.9c
Fri Nov 30 05:33, 53.0% 16.9c
Fri Nov 30 04:43, 53.2% 17.0c
Fri Nov 30 03:46, 53.3% 17.2c
Fri Nov 30 03:31, 53.3% 17.2c
Fri Nov 30 02:49, 53.4% 17.3c
Fri Nov 30 01:52, 53.5% 17.5c
Fri Nov 30 01:07, 53.5% 17.7c
Fri Nov 30 00:53, 53.6% 17.8c
Thu Nov 29 23:58, 53.7% 18.1c
Thu Nov 29 23:12, 53.7% 18.2c
Thu Nov 29 23:02, 53.8% 18.3c
Thu Nov 29 22:07, 53.9% 18.5c
Thu Nov 29 21:09, 53.9% 18.6c
Thu Nov 29 20:21, 53.8% 18.7c
Thu Nov 29 20:17, 53.9% 18.8c
Thu Nov 29 19:22, 53.8% 19.2c
Thu Nov 29 18:25, 54.0% 19.5c
Thu Nov 29 18:03, 54.0% 19.3c
Thu Nov 29 17:43, 54.5% 18.8c
Thu Nov 29 17:30, 54.8% 18.4c
Thu Nov 29 17:21, 54.9% 18.2c
Thu Nov 29 16:58, 55.4% 17.7c
Thu Nov 29 16:35, 55.3% 17.3c
Thu Nov 29 15:45, 54.7% 17.2c
Thu Nov 29 15:43, 54.7% 17.3c
Thu Nov 29 14:47, 54.8% 17.4c
Thu Nov 29 13:54, 55.0% 17.6c
Thu Nov 29 13:17, 55.1% 17.7c
Thu Nov 29 13:02, 55.2% 17.9c
Thu Nov 29 12:04, 56.3% 18.1c
Thu Nov 29 11:24, 56.6% 18.2c
Thu Nov 29 11:04, 56.7% 18.4c
Thu Nov 29 10:04, 57.1% 18.7c
Thu Nov 29 09:10, 56.6% 18.8c
Thu Nov 29 08:14, 54.8% 19.0c
Thu Nov 29 07:16, 55.0% 18.8c
Thu Nov 29 07:08, 55.3% 18.7c
Thu Nov 29 06:43, 55.9% 18.2c
Thu Nov 29 06:15, 55.4% 17.7c
Thu Nov 29 05:41, 54.6% 17.7c
Thu Nov 29 05:21, 54.6% 17.8c
Thu Nov 29 04:31, 54.6% 18.0c
Thu Nov 29 03:38, 54.6% 18.3c
Thu Nov 29 03:33, 54.6% 18.2c
Thu Nov 29 02:42, 54.6% 18.6c
Thu Nov 29 02:01, 54.7% 18.7c
Thu Nov 29 01:43, 54.7% 19.0c
Thu Nov 29 00:54, 54.8% 19.3c
Thu Nov 29 00:43, 54.8% 19.4c
Thu Nov 29 00:00, 54.9% 19.8c
Wed Nov 28 23:51, 54.9% 19.9c
Wed Nov 28 22:52, 55.6% 20.5c
Wed Nov 28 21:55, 56.3% 20.5c
Wed Nov 28 20:56, 56.6% 20.4c
Wed Nov 28 19:59, 57.7% 20.3c
Wed Nov 28 19:00, 58.7% 20.4c
Wed Nov 28 18:23, 59.0% 20.3c
Wed Nov 28 18:05, 58.8% 20.1c
Wed Nov 28 17:26, 57.5% 19.8c
Wed Nov 28 17:08, 57.6% 19.6c
Wed Nov 28 16:15, 59.9% 19.5c
Wed Nov 28 15:40, 59.6% 19.3c
Wed Nov 28 15:15, 60.2% 18.9c

s3 Loft HTP*
Wed Dec 12 09:43, 85.7% 7.8c

Wed Dec 12 09:43, 85.7% 7.8c
1019.3 mb
Wed Dec 12 09:03, 85.6% 8.0c
1019.1 mb
Wed Dec 12 08:43, 85.8% 8.1c
1018.9 mb
Wed Dec 12 08:25, 85.8% 8.2c
1018.9 mb
Wed Dec 12 07:48, 85.8% 8.3c
1018.6 mb
Wed Dec 12 07:46, 85.7% 8.3c
1018.7 mb
Wed Dec 12 07:11, 85.7% 8.3c
1018.9 mb
Wed Dec 12 06:47, 85.7% 8.3c
1018.8 mb
Wed Dec 12 06:07, 85.6% 8.4c
1018.6 mb
Wed Dec 12 05:46, 85.8% 8.5c
1018.5 mb
Wed Dec 12 05:36, 85.8% 8.5c
1018.4 mb
Wed Dec 12 04:55, 85.9% 8.6c
1018.1 mb
Wed Dec 12 03:56, 86.0% 8.7c
1018.3 mb
Wed Dec 12 03:48, 86.0% 8.8c
1018.1 mb
Wed Dec 12 03:16, 86.1% 8.8c
1018.4 mb
Wed Dec 12 02:58, 86.0% 8.8c
1018.8 mb
Wed Dec 12 02:52, 86.1% 8.8c
1018.7 mb
Wed Dec 12 02:03, 86.2% 8.9c
1018.9 mb
Wed Dec 12 01:30, 86.1% 8.9c
1018.9 mb
Wed Dec 12 01:20, 86.3% 8.9c
1018.6 mb
Wed Dec 12 01:07, 86.3% 8.9c
1019.1 mb
Wed Dec 12 00:14, 86.3% 8.9c
1018.9 mb
Tue Dec 11 23:19, 86.4% 9.0c
1018.9 mb
Tue Dec 11 22:28, 86.4% 9.1c
1018.9 mb
Tue Dec 11 21:35, 86.4% 9.1c
1019.0 mb
Tue Dec 11 21:22, 86.4% 9.1c
1018.9 mb
Tue Dec 11 21:04, 86.4% 9.1c
1019.2 mb
Tue Dec 11 20:35, 86.2% 9.1c
1019.0 mb
Tue Dec 11 19:42, 86.3% 9.2c
1018.9 mb
Tue Dec 11 19:04, 86.4% 9.2c
1018.9 mb
Tue Dec 11 18:51, 86.3% 9.2c
1019.1 mb
Tue Dec 11 17:58, 86.3% 9.4c
1019.3 mb
Tue Dec 11 17:09, 86.3% 9.4c
1019.2 mb
Tue Dec 11 17:02, 86.3% 9.4c
1019.3 mb
Tue Dec 11 16:23, 86.5% 9.4c
1019.5 mb
Tue Dec 11 16:02, 86.5% 9.4c
1019.7 mb
Tue Dec 11 15:04, 86.6% 9.3c
1019.7 mb
Tue Dec 11 14:55, 86.6% 9.3c
1019.7 mb
Tue Dec 11 14:18, 86.6% 9.2c
1020.0 mb
Tue Dec 11 14:06, 86.6% 9.1c
1020.3 mb
Tue Dec 11 13:57, 86.6% 9.1c
1020.3 mb
Tue Dec 11 13:33, 86.5% 9.1c
1020.5 mb
Tue Dec 11 13:11, 86.6% 9.0c
1020.8 mb
Tue Dec 11 13:07, 86.6% 8.9c
1020.9 mb
Tue Dec 11 12:30, 86.6% 8.7c
1021.1 mb
Tue Dec 11 12:17, 86.4% 8.7c
1021.3 mb
Tue Dec 11 12:07, 86.4% 8.6c
1021.5 mb
Tue Dec 11 11:47, 86.4% 8.6c
1021.6 mb
Tue Dec 11 11:14, 86.3% 8.4c
1022.0 mb
Tue Dec 11 10:47, 86.3% 8.4c
1021.9 mb
Tue Dec 11 10:24, 86.2% 8.2c
1022.0 mb
Tue Dec 11 09:27, 86.1% 7.9c
1022.0 mb
Tue Dec 11 09:07, 86.1% 7.9c
1022.0 mb
Tue Dec 11 08:34, 86.0% 7.8c
1022.0 mb
Tue Dec 11 07:34, 85.8% 7.5c
1022.1 mb
Tue Dec 11 06:49, 85.6% 7.4c
1022.0 mb
Tue Dec 11 06:35, 85.7% 7.4c
1022.1 mb
Tue Dec 11 05:43, 85.7% 7.3c
1022.3 mb
Tue Dec 11 05:39, 85.8% 7.3c
1022.4 mb
Tue Dec 11 04:46, 85.7% 7.2c
1022.5 mb
Tue Dec 11 04:41, 85.7% 7.2c
1022.7 mb
Tue Dec 11 04:26, 85.7% 7.2c
1022.8 mb
Tue Dec 11 03:56, 85.7% 7.1c
1023.1 mb
Tue Dec 11 03:42, 85.7% 7.1c
1023.2 mb
Tue Dec 11 03:22, 85.7% 7.1c
1023.3 mb
Tue Dec 11 02:46, 85.6% 7.1c
1023.7 mb
Tue Dec 11 02:32, 85.6% 7.1c
1023.6 mb
Tue Dec 11 01:53, 85.7% 7.2c
1023.8 mb
Tue Dec 11 01:23, 85.6% 7.2c
1023.9 mb
Tue Dec 11 00:56, 85.7% 7.2c
1024.1 mb
Tue Dec 11 00:54, 85.7% 7.3c
1024.3 mb
Tue Dec 11 00:24, 85.7% 7.4c
1024.4 mb
Tue Dec 11 00:01, 85.7% 7.5c
1024.7 mb
Mon Dec 10 23:45, 85.8% 7.5c
1024.7 mb
Mon Dec 10 23:15, 85.9% 7.6c
1024.9 mb
Mon Dec 10 23:08, 85.9% 7.6c
1025.0 mb
Mon Dec 10 22:41, 86.0% 7.7c
1025.2 mb
Mon Dec 10 22:13, 86.0% 7.7c
1025.4 mb
Mon Dec 10 21:15, 86.1% 7.8c
1025.4 mb
Mon Dec 10 20:28, 86.1% 7.7c
1025.4 mb
Mon Dec 10 20:22, 86.1% 7.7c
1025.6 mb
Mon Dec 10 19:28, 86.0% 7.7c
1025.8 mb
Mon Dec 10 19:03, 86.0% 7.8c
1025.7 mb
Mon Dec 10 18:37, 85.9% 7.8c
1025.9 mb
Mon Dec 10 17:44, 85.8% 7.9c
1026.0 mb
Mon Dec 10 16:57, 85.8% 8.1c
1026.0 mb
Mon Dec 10 16:44, 85.9% 8.2c
1025.9 mb
Mon Dec 10 16:31, 85.9% 8.3c
1025.7 mb
Mon Dec 10 15:47, 86.0% 8.8c
1025.9 mb
Mon Dec 10 15:39, 86.0% 8.8c
1025.9 mb
Mon Dec 10 15:25, 86.1% 8.9c
1026.2 mb
Mon Dec 10 14:53, 85.8% 9.2c
1026.0 mb
Mon Dec 10 13:56, 85.9% 9.3c
1026.1 mb
Mon Dec 10 13:37, 86.0% 9.2c
1025.9 mb
Mon Dec 10 13:07, 86.1% 8.7c
1025.8 mb
Mon Dec 10 12:58, 86.2% 8.4c
1025.8 mb
Mon Dec 10 12:44, 86.4% 8.2c
1025.9 mb
Mon Dec 10 12:24, 86.5% 7.6c
1025.8 mb
Mon Dec 10 12:02, 86.7% 7.1c
1025.7 mb
Mon Dec 10 12:01, 86.8% 7.1c
1025.8 mb
Mon Dec 10 11:40, 86.6% 6.6c
1025.8 mb
Mon Dec 10 11:11, 86.4% 6.1c
1025.8 mb
Mon Dec 10 11:07, 86.3% 6.0c
1025.9 mb
Mon Dec 10 10:36, 86.0% 5.6c
1025.8 mb
Mon Dec 10 10:18, 86.0% 5.4c
1025.6 mb
Mon Dec 10 10:16, 85.9% 5.4c
1025.5 mb
Mon Dec 10 09:31, 85.7% 5.3c
1025.3 mb
Mon Dec 10 09:23, 85.5% 5.2c
1025.0 mb
Mon Dec 10 09:19, 85.5% 5.2c
1025.0 mb
Mon Dec 10 08:59, 85.5% 5.4c
1024.8 mb
Mon Dec 10 08:35, 85.6% 5.5c
1024.5 mb
Mon Dec 10 08:26, 85.5% 5.4c
1024.4 mb
Mon Dec 10 08:07, 85.4% 5.4c
1024.3 mb
Mon Dec 10 07:58, 85.4% 5.4c
1024.0 mb
Mon Dec 10 07:34, 85.4% 5.5c
1023.9 mb
Mon Dec 10 07:08, 85.5% 5.5c
1023.8 mb
Mon Dec 10 06:43, 85.5% 5.6c
1023.5 mb
Mon Dec 10 06:38, 85.6% 5.6c
1023.4 mb
Mon Dec 10 06:01, 85.5% 5.4c
1023.3 mb
Mon Dec 10 05:45, 85.5% 5.4c
1023.0 mb
Mon Dec 10 05:44, 85.4% 5.5c
1023.0 mb
Mon Dec 10 05:09, 85.5% 5.4c
1022.7 mb
Mon Dec 10 04:48, 85.4% 5.3c
1022.5 mb
Mon Dec 10 04:32, 85.4% 5.2c
1022.5 mb
Mon Dec 10 03:51, 85.2% 5.0c
1022.4 mb
Mon Dec 10 03:30, 85.2% 4.9c
1022.2 mb
Mon Dec 10 03:02, 85.1% 4.8c
1021.9 mb
Mon Dec 10 02:59, 85.0% 4.8c
1021.9 mb
Mon Dec 10 02:59, 85.0% 4.8c
1021.9 mb
Mon Dec 10 02:27, 85.0% 4.8c
1021.7 mb
Mon Dec 10 02:19, 85.0% 4.8c
1021.4 mb
Mon Dec 10 01:58, 84.9% 4.8c
1021.2 mb
Mon Dec 10 01:55, 85.0% 4.7c
1021.2 mb
Mon Dec 10 01:23, 84.9% 4.8c
1020.9 mb
Mon Dec 10 01:02, 84.8% 4.8c
1020.7 mb
Mon Dec 10 00:51, 84.8% 4.9c
1020.6 mb
Mon Dec 10 00:44, 84.8% 4.9c
1020.4 mb
Mon Dec 10 00:17, 84.8% 5.0c
1020.1 mb
Mon Dec 10 00:09, 84.9% 4.9c
1020.0 mb
Sun Dec 9 23:40, 84.8% 5.0c
1019.9 mb
Sun Dec 9 23:16, 84.8% 5.1c
1019.6 mb
Sun Dec 9 23:13, 84.8% 5.0c
1019.6 mb
Sun Dec 9 22:19, 84.9% 5.3c
1019.4 mb
Sun Dec 9 22:15, 84.8% 5.3c
1019.3 mb
Sun Dec 9 22:02, 84.9% 5.3c
1019.1 mb
Sun Dec 9 21:46, 84.8% 5.4c
1018.9 mb
Sun Dec 9 21:30, 84.9% 5.5c
1018.6 mb
Sun Dec 9 21:20, 84.9% 5.6c
1018.4 mb
Sun Dec 9 20:56, 84.8% 5.7c
1018.3 mb
Sun Dec 9 20:34, 84.9% 5.8c
1018.1 mb
Sun Dec 9 20:23, 84.8% 5.9c
1018.0 mb
Sun Dec 9 20:16, 84.9% 6.0c
1017.8 mb
Sun Dec 9 19:45, 84.9% 6.2c
1017.5 mb
Sun Dec 9 19:28, 84.9% 6.3c
1017.4 mb
Sun Dec 9 19:27, 84.8% 6.3c
1017.3 mb
Sun Dec 9 19:00, 85.0% 6.4c
1017.0 mb
Sun Dec 9 18:41, 84.9% 6.6c
1016.8 mb
Sun Dec 9 18:33, 84.9% 6.6c
1016.5 mb
Sun Dec 9 18:32, 84.9% 6.6c
1016.5 mb
Sun Dec 9 18:17, 84.9% 6.8c
1016.2 mb
Sun Dec 9 18:04, 85.0% 6.8c
1016.0 mb
Sun Dec 9 17:52, 84.9% 6.9c
1015.7 mb
Sun Dec 9 17:34, 85.0% 7.0c
1015.5 mb
Sun Dec 9 17:34, 85.0% 7.0c
1015.5 mb
Sun Dec 9 17:11, 85.0% 7.1c
1015.2 mb
Sun Dec 9 17:04, 85.0% 7.1c
1015.0 mb
Sun Dec 9 16:44, 85.1% 7.3c
1014.7 mb
Sun Dec 9 16:41, 85.1% 7.3c
1014.7 mb
Sun Dec 9 16:28, 85.0% 7.4c
1014.5 mb
Sun Dec 9 16:20, 85.1% 7.4c
1014.2 mb
Sun Dec 9 16:02, 85.2% 7.5c
1014.0 mb
Sun Dec 9 15:45, 85.2% 7.6c
1013.7 mb
Sun Dec 9 15:42, 85.2% 7.6c
1013.6 mb
Sun Dec 9 15:38, 85.1% 7.6c
1013.4 mb
Sun Dec 9 15:28, 85.1% 7.6c
1013.2 mb
Sun Dec 9 15:18, 85.1% 7.6c
1012.9 mb
Sun Dec 9 15:05, 85.1% 7.7c
1012.7 mb
Sun Dec 9 14:52, 85.1% 7.7c
1012.4 mb
Sun Dec 9 14:44, 76.2% 7.7c
1012.4 mb
Sun Dec 9 14:35, 85.2% 7.8c
1012.2 mb
Sun Dec 9 14:19, 85.2% 7.7c
1011.9 mb
Sun Dec 9 14:09, 85.3% 7.7c
1011.7 mb
Sun Dec 9 13:52, 85.2% 7.6c
1011.4 mb
Sun Dec 9 13:47, 85.2% 7.6c
1011.2 mb
Sun Dec 9 13:42, 85.2% 7.6c
1011.1 mb
Sun Dec 9 13:28, 85.4% 7.7c
1010.8 mb
Sun Dec 9 13:18, 85.4% 7.6c
1010.6 mb
Sun Dec 9 13:10, 85.4% 7.6c
1010.3 mb
Sun Dec 9 13:01, 85.4% 7.5c

s4 Hallway PiR
Wed Dec 12 10:11, no_motion 30m

Wed Dec 12 10:11, no_motion 30m
Wed Dec 12 10:01, no_motion 20m
Wed Dec 12 09:51, no_motion 10m
Wed Dec 12 09:41, status motion
Wed Dec 12 09:38, status motion
Wed Dec 12 09:37, status motion
Wed Dec 12 09:31, status motion
Wed Dec 12 09:27, status motion
Wed Dec 12 09:24, status motion
Wed Dec 12 09:22, status motion
Wed Dec 12 09:19, status motion
Wed Dec 12 09:10, status motion
Wed Dec 12 09:04, no_motion 10m
Wed Dec 12 08:54, status motion
Wed Dec 12 08:52, status motion
Wed Dec 12 08:48, no_motion 10m
Wed Dec 12 08:38, status motion
Wed Dec 12 08:35, status motion
Wed Dec 12 08:28, status motion
Wed Dec 12 08:25, status motion
Wed Dec 12 08:23, status motion
Wed Dec 12 08:19, status motion
Wed Dec 12 08:17, status motion
Wed Dec 12 08:10, status motion
Wed Dec 12 08:09, status motion
Wed Dec 12 08:08, status motion
Wed Dec 12 08:06, status motion
Wed Dec 12 08:05, status motion
Wed Dec 12 08:02, status motion
Wed Dec 12 07:58, status motion
Wed Dec 12 07:55, status motion
Wed Dec 12 07:54, status motion
Wed Dec 12 07:52, status motion
Wed Dec 12 07:50, status motion
Wed Dec 12 07:43, status motion
Wed Dec 12 07:42, status motion
Wed Dec 12 07:40, status motion
Wed Dec 12 07:37, status motion
Wed Dec 12 07:28, status motion
Wed Dec 12 07:27, status motion
Wed Dec 12 07:25, status motion
Wed Dec 12 07:24, status motion
Wed Dec 12 07:23, status motion
Wed Dec 12 07:20, status motion
Wed Dec 12 07:18, status motion
Wed Dec 12 07:10, status motion
Wed Dec 12 07:05, status motion
Wed Dec 12 06:58, no_motion 10m
Wed Dec 12 06:48, status motion
Wed Dec 12 06:47, status motion
Wed Dec 12 06:44, status motion
Wed Dec 12 06:41, status motion
Wed Dec 12 06:39, status motion
Wed Dec 12 06:37, status motion
Wed Dec 12 03:24, no_motion 30m
Wed Dec 12 03:14, no_motion 20m
Wed Dec 12 03:04, no_motion 10m
Wed Dec 12 02:54, status motion
Wed Dec 12 02:50, status motion
Wed Dec 12 01:20, no_motion 30m
Wed Dec 12 01:10, no_motion 20m
Wed Dec 12 01:00, no_motion 10m
Wed Dec 12 00:50, status motion
Wed Dec 12 00:47, status motion
Wed Dec 12 00:03, no_motion 30m
Tue Dec 11 23:53, no_motion 20m
Tue Dec 11 23:43, no_motion 10m
Tue Dec 11 23:33, status motion
Tue Dec 11 23:31, status motion
Tue Dec 11 23:28, status motion
Tue Dec 11 23:12, no_motion 30m
Tue Dec 11 23:02, no_motion 20m
Tue Dec 11 22:52, no_motion 10m
Tue Dec 11 22:42, status motion
Tue Dec 11 22:40, no_motion 10m
Tue Dec 11 22:30, status motion
Tue Dec 11 22:29, status motion
Tue Dec 11 22:24, status motion
Tue Dec 11 22:23, status motion
Tue Dec 11 22:22, status motion
Tue Dec 11 22:17, status motion
Tue Dec 11 22:12, no_motion 10m
Tue Dec 11 22:02, status motion
Tue Dec 11 21:59, status motion
Tue Dec 11 21:57, status motion
Tue Dec 11 21:56, status motion
Tue Dec 11 21:54, status motion
Tue Dec 11 21:48, status motion
Tue Dec 11 21:39, status motion
Tue Dec 11 21:29, no_motion 30m
Tue Dec 11 21:19, no_motion 20m
Tue Dec 11 21:09, no_motion 10m
Tue Dec 11 20:59, status motion
Tue Dec 11 20:57, status motion
Tue Dec 11 20:55, status motion
Tue Dec 11 20:47, no_motion 10m
Tue Dec 11 20:37, status motion
Tue Dec 11 20:36, no_motion 20m
Tue Dec 11 20:26, no_motion 10m
Tue Dec 11 20:16, status motion
Tue Dec 11 20:15, status motion
Tue Dec 11 20:13, status motion
Tue Dec 11 20:12, status motion
Tue Dec 11 20:07, no_motion 30m
Tue Dec 11 19:57, no_motion 20m
Tue Dec 11 19:47, no_motion 10m
Tue Dec 11 19:37, status motion
Tue Dec 11 19:34, status motion
Tue Dec 11 19:33, status motion
Tue Dec 11 19:25, status motion
Tue Dec 11 19:17, status motion
Tue Dec 11 19:11, no_motion 10m
Tue Dec 11 19:01, status motion
Tue Dec 11 18:56, status motion
Tue Dec 11 18:55, status motion
Tue Dec 11 18:51, status motion
Tue Dec 11 18:50, status motion
Tue Dec 11 18:48, status motion
Tue Dec 11 18:46, status motion
Tue Dec 11 18:44, status motion
Tue Dec 11 18:41, status motion
Tue Dec 11 18:37, status motion
Tue Dec 11 18:29, no_motion 10m
Tue Dec 11 18:19, status motion
Tue Dec 11 18:18, status motion
Tue Dec 11 18:15, status motion
Tue Dec 11 18:10, status motion
Tue Dec 11 18:09, status motion
Tue Dec 11 18:07, status motion
Tue Dec 11 18:05, status motion
Tue Dec 11 18:03, status motion
Tue Dec 11 18:02, status motion
Tue Dec 11 17:59, no_motion 10m
Tue Dec 11 17:49, status motion
Tue Dec 11 17:45, no_motion 10m
Tue Dec 11 17:35, status motion
Tue Dec 11 17:33, status motion
Tue Dec 11 17:31, status motion
Tue Dec 11 17:30, status motion
Tue Dec 11 17:28, status motion
Tue Dec 11 17:27, status motion
Tue Dec 11 17:22, status motion
Tue Dec 11 17:15, no_motion 10m
Tue Dec 11 17:05, status motion
Tue Dec 11 17:04, status motion
Tue Dec 11 17:02, status motion
Tue Dec 11 16:13, no_motion 30m
Tue Dec 11 16:03, no_motion 20m
Tue Dec 11 15:53, no_motion 10m
Tue Dec 11 15:43, status motion
Tue Dec 11 15:34, no_motion 20m
Tue Dec 11 15:24, no_motion 10m
Tue Dec 11 15:14, status motion
Tue Dec 11 13:52, no_motion 30m
Tue Dec 11 13:42, no_motion 20m
Tue Dec 11 13:32, no_motion 10m
Tue Dec 11 13:22, status motion
Tue Dec 11 13:19, status motion
Tue Dec 11 13:18, status motion
Tue Dec 11 13:17, status motion
Tue Dec 11 13:16, status motion
Tue Dec 11 13:08, status motion
Tue Dec 11 12:58, no_motion 20m
Tue Dec 11 12:48, no_motion 10m
Tue Dec 11 12:38, status motion
Tue Dec 11 12:33, no_motion 30m
Tue Dec 11 12:23, no_motion 20m
Tue Dec 11 12:13, no_motion 10m
Tue Dec 11 12:03, status motion
Tue Dec 11 12:02, status motion
Tue Dec 11 11:42, no_motion 30m
Tue Dec 11 11:32, no_motion 20m
Tue Dec 11 11:22, no_motion 10m
Tue Dec 11 11:12, status motion
Tue Dec 11 10:44, no_motion 30m
Tue Dec 11 10:34, no_motion 20m
Tue Dec 11 10:24, no_motion 10m
Tue Dec 11 10:14, status motion
Tue Dec 11 09:42, no_motion 30m
Tue Dec 11 09:32, no_motion 20m
Tue Dec 11 09:22, no_motion 10m
Tue Dec 11 09:12, status motion
Tue Dec 11 09:06, no_motion 20m
Tue Dec 11 08:56, no_motion 10m
Tue Dec 11 08:46, status motion
Tue Dec 11 08:45, status motion
Tue Dec 11 08:42, status motion
Tue Dec 11 08:40, status motion
Tue Dec 11 08:36, status motion
Tue Dec 11 08:35, status motion
Tue Dec 11 08:29, status motion
Tue Dec 11 08:26, status motion
Tue Dec 11 08:18, status motion
Tue Dec 11 08:15, status motion
Tue Dec 11 08:14, status motion
Tue Dec 11 08:12, status motion
Tue Dec 11 08:11, status motion
Tue Dec 11 08:09, status motion
Tue Dec 11 08:07, status motion
Tue Dec 11 08:05, status motion
Tue Dec 11 08:00, status motion
Tue Dec 11 07:57, status motion
Tue Dec 11 07:54, status motion
Tue Dec 11 07:50, status motion
Tue Dec 11 07:49, status motion
Tue Dec 11 07:40, status motion
Tue Dec 11 07:39, status motion
Tue Dec 11 07:37, status motion
Tue Dec 11 07:34, status motion
Tue Dec 11 07:32, status motion
Tue Dec 11 07:28, status motion
Tue Dec 11 07:23, status motion
Tue Dec 11 07:21, status motion
Tue Dec 11 07:17, no_motion 10m
Tue Dec 11 07:07, status motion
Tue Dec 11 07:01, no_motion 30m
Tue Dec 11 06:51, no_motion 20m
Tue Dec 11 06:41, no_motion 10m
Tue Dec 11 06:31, status motion
Tue Dec 11 06:29, no_motion 30m
Tue Dec 11 06:19, no_motion 20m
Tue Dec 11 06:09, no_motion 10m
Tue Dec 11 05:59, status motion
Tue Dec 11 05:42, no_motion 30m
Tue Dec 11 05:32, no_motion 20m
Tue Dec 11 05:22, no_motion 10m
Tue Dec 11 05:12, status motion
Tue Dec 11 05:10, status motion
Tue Dec 11 02:57, no_motion 30m
Tue Dec 11 02:47, no_motion 20m
Tue Dec 11 02:37, no_motion 10m
Tue Dec 11 02:27, status motion
Tue Dec 11 02:26, status motion
Tue Dec 11 00:07, no_motion 30m
Mon Dec 10 23:57, no_motion 20m
Mon Dec 10 23:47, no_motion 10m
Mon Dec 10 23:38, status motion
Mon Dec 10 23:33, status motion
Mon Dec 10 23:04, no_motion 30m
Mon Dec 10 22:54, no_motion 20m
Mon Dec 10 22:44, no_motion 10m
Mon Dec 10 22:34, status motion
Mon Dec 10 20:48, no_motion 30m
Mon Dec 10 20:38, no_motion 20m
Mon Dec 10 20:28, no_motion 10m
Mon Dec 10 20:18, status motion
Mon Dec 10 20:16, status motion
Mon Dec 10 20:14, status motion
Mon Dec 10 20:05, no_motion 10m
Mon Dec 10 19:55, status motion
Mon Dec 10 19:53, status motion
Mon Dec 10 19:48, status motion
Mon Dec 10 19:40, status motion
Mon Dec 10 19:33, status motion
Mon Dec 10 19:32, status motion
Mon Dec 10 19:26, no_motion 10m
Mon Dec 10 19:16, status motion
Mon Dec 10 19:15, status motion
Mon Dec 10 19:12, status motion
Mon Dec 10 19:08, no_motion 20m
Mon Dec 10 18:58, no_motion 10m
Mon Dec 10 18:48, status motion
Mon Dec 10 18:47, status motion
Mon Dec 10 18:46, status motion
Mon Dec 10 18:44, no_motion 30m
Mon Dec 10 18:34, no_motion 20m
Mon Dec 10 18:24, no_motion 10m
Mon Dec 10 18:14, status motion
Mon Dec 10 18:12, no_motion 10m
Mon Dec 10 18:02, status motion
Mon Dec 10 18:00, no_motion 30m
Mon Dec 10 17:50, no_motion 20m
Mon Dec 10 17:41, no_motion 10m
Mon Dec 10 17:31, status motion
Mon Dec 10 17:28, status motion
Mon Dec 10 17:25, status motion
Mon Dec 10 16:55, no_motion 30m
Mon Dec 10 16:45, no_motion 20m
Mon Dec 10 16:35, no_motion 10m
Mon Dec 10 16:25, status motion
Mon Dec 10 16:21, status motion
Mon Dec 10 15:33, no_motion 30m
Mon Dec 10 15:23, no_motion 20m
Mon Dec 10 15:13, no_motion 10m
Mon Dec 10 15:03, status motion
Mon Dec 10 15:02, no_motion 30m
Mon Dec 10 14:52, no_motion 20m
Mon Dec 10 14:42, no_motion 10m
Mon Dec 10 14:32, status motion
Mon Dec 10 14:30, status motion
Mon Dec 10 14:25, status motion
Mon Dec 10 14:24, status motion
Mon Dec 10 14:03, no_motion 30m
Mon Dec 10 13:53, no_motion 20m
Mon Dec 10 13:43, no_motion 10m
Mon Dec 10 13:33, status motion
Mon Dec 10 13:30, no_motion 20m
Mon Dec 10 13:20, no_motion 10m
Mon Dec 10 13:10, status motion
Mon Dec 10 13:04, status motion
Mon Dec 10 13:02, no_motion 10m
Mon Dec 10 12:52, status motion
Mon Dec 10 12:48, status motion
Mon Dec 10 12:44, status motion
Mon Dec 10 12:40, status motion
Mon Dec 10 12:37, status motion
Mon Dec 10 12:14, no_motion 30m
Mon Dec 10 12:04, no_motion 20m
Mon Dec 10 11:54, no_motion 10m
Mon Dec 10 11:44, status motion
Mon Dec 10 11:37, status motion
Mon Dec 10 11:35, status motion
Mon Dec 10 11:29, no_motion 10m
Mon Dec 10 11:19, status motion
Mon Dec 10 11:15, no_motion 20m
Mon Dec 10 11:05, no_motion 10m
Mon Dec 10 10:55, status motion
Mon Dec 10 10:52, no_motion 30m
Mon Dec 10 10:42, no_motion 20m
Mon Dec 10 10:32, no_motion 10m
Mon Dec 10 10:22, status motion
Mon Dec 10 10:21, status motion
Mon Dec 10 10:18, status motion
Mon Dec 10 10:14, no_motion 30m
Mon Dec 10 10:04, no_motion 20m
Mon Dec 10 09:54, no_motion 10m
Mon Dec 10 09:44, status motion
Mon Dec 10 09:34, status motion
Mon Dec 10 09:33, status motion
Mon Dec 10 09:32, status motion
Mon Dec 10 09:31, status motion
Mon Dec 10 09:29, status motion
Mon Dec 10 09:27, status motion
Mon Dec 10 09:26, status motion
Mon Dec 10 09:25, status motion
Mon Dec 10 09:22, status motion
Mon Dec 10 09:21, status motion
Mon Dec 10 09:20, status motion
Mon Dec 10 09:19, status motion
Mon Dec 10 09:13, status motion
Mon Dec 10 09:12, status motion
Mon Dec 10 09:10, status motion
Mon Dec 10 09:02, status motion
Mon Dec 10 08:58, no_motion 10m
Mon Dec 10 08:48, status motion
Mon Dec 10 08:45, no_motion 10m
Mon Dec 10 08:35, status motion
Mon Dec 10 08:34, status motion
Mon Dec 10 08:33, status motion
Mon Dec 10 08:29, status motion
Mon Dec 10 08:25, status motion
Mon Dec 10 08:24, status motion
Mon Dec 10 08:23, status motion
Mon Dec 10 08:22, status motion
Mon Dec 10 08:19, status motion
Mon Dec 10 08:18, status motion
Mon Dec 10 08:15, status motion
Mon Dec 10 08:13, status motion
Mon Dec 10 08:08, status motion
Mon Dec 10 08:03, status motion
Mon Dec 10 07:54, status motion
Mon Dec 10 07:53, status motion
Mon Dec 10 07:47, status motion
Mon Dec 10 07:44, status motion
Mon Dec 10 07:40, status motion
Mon Dec 10 07:37, status motion
Mon Dec 10 07:35, status motion
Mon Dec 10 07:15, no_motion 30m
Mon Dec 10 07:06, no_motion 20m
Mon Dec 10 06:56, no_motion 10m
Mon Dec 10 06:46, status motion
Mon Dec 10 06:43, status motion
Mon Dec 10 06:36, status motion
Mon Dec 10 06:33, status motion
Mon Dec 10 06:32, status motion
Mon Dec 10 03:24, no_motion 30m
Mon Dec 10 03:14, no_motion 20m
Mon Dec 10 03:04, no_motion 10m
Mon Dec 10 02:54, status motion
Mon Dec 10 02:52, status motion
Sun Dec 9 23:49, no_motion 30m
Sun Dec 9 23:39, no_motion 20m
Sun Dec 9 23:29, no_motion 10m
Sun Dec 9 23:19, status motion
Sun Dec 9 23:16, status motion
Sun Dec 9 23:10, no_motion 30m
Sun Dec 9 23:00, no_motion 20m
Sun Dec 9 22:50, no_motion 10m
Sun Dec 9 22:40, status motion
Sun Dec 9 22:39, status motion
Sun Dec 9 21:34, no_motion 30m
Sun Dec 9 21:24, no_motion 20m
Sun Dec 9 21:14, no_motion 10m
Sun Dec 9 21:04, status motion
Sun Dec 9 21:03, status motion
Sun Dec 9 20:53, no_motion 10m
Sun Dec 9 20:43, status motion
Sun Dec 9 20:42, status motion
Sun Dec 9 20:38, no_motion 10m
Sun Dec 9 20:28, status motion
Sun Dec 9 20:26, status motion
Sun Dec 9 20:25, status motion
Sun Dec 9 20:22, status motion
Sun Dec 9 20:20, no_motion 10m
Sun Dec 9 20:10, status motion
Sun Dec 9 20:08, status motion
Sun Dec 9 20:06, status motion
Sun Dec 9 20:05, status motion
Sun Dec 9 20:03, status motion
Sun Dec 9 20:02, status motion
Sun Dec 9 20:01, status motion
Sun Dec 9 19:59, status motion
Sun Dec 9 19:57, status motion
Sun Dec 9 19:56, status motion
Sun Dec 9 19:55, status motion
Sun Dec 9 19:53, status motion
Sun Dec 9 19:36, no_motion 30m
Sun Dec 9 19:26, no_motion 20m
Sun Dec 9 19:16, no_motion 10m
Sun Dec 9 19:06, status motion
Sun Dec 9 19:02, no_motion 10m
Sun Dec 9 18:52, status motion
Sun Dec 9 18:51, status motion
Sun Dec 9 18:43, status motion
Sun Dec 9 18:38, no_motion 30m
Sun Dec 9 18:28, no_motion 20m
Sun Dec 9 18:18, no_motion 10m
Sun Dec 9 18:08, status motion
Sun Dec 9 18:07, status motion
Sun Dec 9 18:05, status motion
Sun Dec 9 18:04, status motion
Sun Dec 9 18:00, status motion
Sun Dec 9 17:51, status motion
Sun Dec 9 17:48, status motion
Sun Dec 9 17:47, status motion
Sun Dec 9 17:45, status motion
Sun Dec 9 17:44, status motion
Sun Dec 9 17:40, no_motion 10m
Sun Dec 9 17:30, status motion
Sun Dec 9 17:28, status motion
Sun Dec 9 17:20, no_motion 30m
Sun Dec 9 17:10, no_motion 20m
Sun Dec 9 17:00, no_motion 10m
Sun Dec 9 16:50, status motion
Sun Dec 9 16:46, status motion
Sun Dec 9 16:44, status motion
Sun Dec 9 16:38, status motion
Sun Dec 9 16:37, status motion
Sun Dec 9 16:36, status motion
Sun Dec 9 16:33, no_motion 20m
Sun Dec 9 16:23, no_motion 10m
Sun Dec 9 16:13, status motion
Sun Dec 9 16:09, status motion
Sun Dec 9 16:06, status motion
Sun Dec 9 16:04, status motion
Sun Dec 9 16:02, status motion
Sun Dec 9 15:54, status motion
Sun Dec 9 15:53, no_motion 20m
Sun Dec 9 15:43, no_motion 10m
Sun Dec 9 15:33, status motion
Sun Dec 9 15:30, status motion
Sun Dec 9 15:28, status motion
Sun Dec 9 15:23, status motion
Sun Dec 9 15:21, status motion
Sun Dec 9 14:51, no_motion 30m
Sun Dec 9 14:41, no_motion 20m
Sun Dec 9 14:31, no_motion 10m
Sun Dec 9 14:21, status motion
Sun Dec 9 14:16, no_motion 20m
Sun Dec 9 14:06, no_motion 10m
Sun Dec 9 13:56, status motion
Sun Dec 9 13:55, status motion
Sun Dec 9 13:53, status motion
Sun Dec 9 13:52, status motion
Sun Dec 9 13:50, status motion
Sun Dec 9 13:45, status motion
Sun Dec 9 13:44, status motion
Sun Dec 9 13:41, no_motion 20m
Sun Dec 9 13:31, no_motion 10m
Sun Dec 9 13:21, status motion
Sun Dec 9 13:20, no_motion 30m
Sun Dec 9 13:10, no_motion 20m
Sun Dec 9 13:00, no_motion 10m
Sun Dec 9 12:50, status motion
Sun Dec 9 12:27, no_motion 30m
Sun Dec 9 12:17, no_motion 20m
Sun Dec 9 12:07, no_motion 10m
Sun Dec 9 11:57, status motion
Sun Dec 9 11:50, status motion
Sun Dec 9 11:44, status motion
Sun Dec 9 11:41, status motion
Sun Dec 9 11:40, status motion
Sun Dec 9 11:38, status motion
Sun Dec 9 11:36, status motion
Sun Dec 9 11:33, status motion
Sun Dec 9 11:32, status motion
Sun Dec 9 11:27, status motion
Sun Dec 9 11:21, status motion
Sun Dec 9 11:20, status motion
Sun Dec 9 11:18, status motion
Sun Dec 9 11:17, status motion
Sun Dec 9 11:14, status motion
Sun Dec 9 11:10, status motion
Sun Dec 9 11:08, status motion
Sun Dec 9 11:07, status motion
Sun Dec 9 11:06, status motion
Sun Dec 9 11:05, status motion
Sun Dec 9 10:38, no_motion 30m
Sun Dec 9 10:28, no_motion 20m
Sun Dec 9 10:18, no_motion 10m
Sun Dec 9 10:08, status motion
Sun Dec 9 10:07, status motion
Sun Dec 9 10:05, status motion
Sun Dec 9 10:04, status motion
Sun Dec 9 10:02, status motion
Sun Dec 9 10:00, status motion
Sun Dec 9 09:58, status motion
Sun Dec 9 09:57, status motion
Sun Dec 9 09:55, status motion
Sun Dec 9 09:45, status motion
Sun Dec 9 09:37, status motion
Sun Dec 9 09:28, no_motion 10m
Sun Dec 9 09:18, status motion
Sun Dec 9 09:17, status motion
Sun Dec 9 09:15, status motion
Sun Dec 9 09:12, status motion
Sun Dec 9 09:11, status motion
Sun Dec 9 08:55, no_motion 30m
Sun Dec 9 08:45, no_motion 20m
Sun Dec 9 08:35, no_motion 10m
Sun Dec 9 08:25, status motion
Sun Dec 9 08:20, status motion
Sun Dec 9 08:18, status motion
Sun Dec 9 00:52, no_motion 30m
Sun Dec 9 00:42, no_motion 20m
Sun Dec 9 00:32, no_motion 10m
Sun Dec 9 00:22, status motion
Sun Dec 9 00:20, status motion
Sun Dec 9 00:19, status motion
Sat Dec 8 23:56, no_motion 30m
Sat Dec 8 23:46, no_motion 20m
Sat Dec 8 23:36, no_motion 10m
Sat Dec 8 23:26, status motion
Sat Dec 8 23:05, no_motion 30m
Sat Dec 8 22:55, no_motion 20m
Sat Dec 8 22:45, no_motion 10m
Sat Dec 8 22:35, status motion
Sat Dec 8 22:33, status motion
Sat Dec 8 20:51, no_motion 30m
Sat Dec 8 20:41, no_motion 20m
Sat Dec 8 20:31, no_motion 10m
Sat Dec 8 20:21, status motion
Sat Dec 8 20:17, status motion
Sat Dec 8 20:09, no_motion 10m
Sat Dec 8 19:59, status motion
Sat Dec 8 19:58, status motion
Sat Dec 8 19:53, no_motion 10m
Sat Dec 8 19:43, status motion
Sat Dec 8 19:41, status motion
Sat Dec 8 19:38, status motion
Sat Dec 8 19:36, status motion
Sat Dec 8 19:33, no_motion 10m
Sat Dec 8 19:23, status motion
Sat Dec 8 19:21, status motion

s5 Liv-Room PiR
Wed Dec 12 10:11, no_motion 30m

Wed Dec 12 10:11, no_motion 30m
Wed Dec 12 10:01, no_motion 20m
Wed Dec 12 09:51, no_motion 10m
Wed Dec 12 09:41, status motion
Wed Dec 12 09:40, status motion
Wed Dec 12 09:39, status motion
Wed Dec 12 09:37, status motion
Wed Dec 12 09:36, status motion
Wed Dec 12 09:35, status motion
Wed Dec 12 09:34, status motion
Wed Dec 12 09:32, status motion
Wed Dec 12 09:30, status motion
Wed Dec 12 09:29, status motion
Wed Dec 12 09:27, status motion
Wed Dec 12 08:53, no_motion 30m
Wed Dec 12 08:43, no_motion 20m
Wed Dec 12 08:33, no_motion 10m
Wed Dec 12 08:23, status motion
Wed Dec 12 08:17, status motion
Wed Dec 12 08:17, no_motion 20m
Wed Dec 12 08:07, no_motion 10m
Wed Dec 12 07:57, status motion
Wed Dec 12 07:56, status motion
Wed Dec 12 07:53, status motion
Wed Dec 12 07:52, status motion
Wed Dec 12 07:47, no_motion 10m
Wed Dec 12 07:37, status motion
Wed Dec 12 07:30, no_motion 10m
Wed Dec 12 07:20, status motion
Wed Dec 12 07:19, status motion
Wed Dec 12 07:15, status motion
Wed Dec 12 07:11, status motion
Wed Dec 12 07:10, status motion
Wed Dec 12 07:05, status motion
Wed Dec 12 07:00, no_motion 10m
Wed Dec 12 06:50, status motion
Wed Dec 12 06:49, status motion
Wed Dec 12 06:48, status motion
Wed Dec 12 03:24, no_motion 30m
Wed Dec 12 03:14, no_motion 20m
Wed Dec 12 03:04, no_motion 10m
Wed Dec 12 02:54, status motion
Wed Dec 12 02:52, status motion
Wed Dec 12 02:51, status motion
Wed Dec 12 00:02, no_motion 30m
Tue Dec 11 23:52, no_motion 20m
Tue Dec 11 23:42, no_motion 10m
Tue Dec 11 23:32, status motion
Tue Dec 11 23:27, status motion
Tue Dec 11 23:23, no_motion 10m
Tue Dec 11 23:13, status motion
Tue Dec 11 23:12, status motion
Tue Dec 11 23:10, status motion
Tue Dec 11 23:09, status motion
Tue Dec 11 23:08, status motion
Tue Dec 11 23:07, status motion
Tue Dec 11 23:06, status motion
Tue Dec 11 23:05, status motion
Tue Dec 11 23:04, status motion
Tue Dec 11 23:03, status motion
Tue Dec 11 23:02, status motion
Tue Dec 11 23:01, status motion
Tue Dec 11 23:00, status motion
Tue Dec 11 22:56, no_motion 10m
Tue Dec 11 22:46, status motion
Tue Dec 11 22:45, status motion
Tue Dec 11 22:44, status motion
Tue Dec 11 22:43, status motion
Tue Dec 11 22:41, status motion
Tue Dec 11 22:40, status motion
Tue Dec 11 22:39, status motion
Tue Dec 11 22:38, status motion
Tue Dec 11 22:37, status motion
Tue Dec 11 22:35, status motion
Tue Dec 11 22:34, status motion
Tue Dec 11 22:33, status motion
Tue Dec 11 22:31, status motion
Tue Dec 11 22:30, status motion
Tue Dec 11 22:29, status motion
Tue Dec 11 22:28, status motion
Tue Dec 11 22:27, status motion
Tue Dec 11 22:26, no_motion 10m
Tue Dec 11 22:16, status motion
Tue Dec 11 22:14, status motion
Tue Dec 11 22:12, status motion
Tue Dec 11 22:11, status motion
Tue Dec 11 22:10, status motion
Tue Dec 11 22:08, status motion
Tue Dec 11 22:07, status motion
Tue Dec 11 22:06, status motion
Tue Dec 11 22:05, status motion
Tue Dec 11 22:03, status motion
Tue Dec 11 22:02, status motion
Tue Dec 11 22:01, status motion
Tue Dec 11 22:00, status motion
Tue Dec 11 21:59, status motion
Tue Dec 11 21:58, status motion
Tue Dec 11 21:57, status motion
Tue Dec 11 21:55, status motion
Tue Dec 11 21:53, status motion
Tue Dec 11 21:52, status motion
Tue Dec 11 21:51, status motion
Tue Dec 11 21:49, status motion
Tue Dec 11 21:48, status motion
Tue Dec 11 21:47, status motion
Tue Dec 11 21:46, status motion
Tue Dec 11 21:44, status motion
Tue Dec 11 21:43, status motion
Tue Dec 11 21:42, status motion
Tue Dec 11 21:41, status motion
Tue Dec 11 21:40, status motion
Tue Dec 11 21:39, status motion
Tue Dec 11 21:38, status motion
Tue Dec 11 21:37, status motion
Tue Dec 11 21:35, status motion
Tue Dec 11 21:34, status motion
Tue Dec 11 21:33, status motion
Tue Dec 11 21:32, status motion
Tue Dec 11 21:30, status motion
Tue Dec 11 21:29, status motion
Tue Dec 11 21:28, status motion
Tue Dec 11 21:27, status motion
Tue Dec 11 21:26, status motion
Tue Dec 11 21:25, status motion
Tue Dec 11 21:24, status motion
Tue Dec 11 21:22, status motion
Tue Dec 11 21:21, status motion
Tue Dec 11 21:20, status motion
Tue Dec 11 21:19, status motion
Tue Dec 11 21:18, status motion
Tue Dec 11 21:17, status motion
Tue Dec 11 21:16, status motion
Tue Dec 11 21:15, status motion
Tue Dec 11 21:14, status motion
Tue Dec 11 21:12, status motion
Tue Dec 11 21:11, status motion
Tue Dec 11 21:10, status motion
Tue Dec 11 21:09, status motion
Tue Dec 11 21:08, status motion
Tue Dec 11 21:07, status motion
Tue Dec 11 21:06, status motion
Tue Dec 11 21:05, status motion
Tue Dec 11 21:03, status motion
Tue Dec 11 21:02, status motion
Tue Dec 11 21:02, no_motion 20m
Tue Dec 11 20:52, no_motion 10m
Tue Dec 11 20:42, status motion
Tue Dec 11 20:40, status motion
Tue Dec 11 20:39, status motion
Tue Dec 11 20:35, no_motion 20m
Tue Dec 11 20:25, no_motion 10m
Tue Dec 11 20:15, status motion
Tue Dec 11 20:13, status motion
Tue Dec 11 20:11, status motion
Tue Dec 11 20:07, no_motion 30m
Tue Dec 11 19:57, no_motion 20m
Tue Dec 11 19:47, no_motion 10m
Tue Dec 11 19:37, status motion
Tue Dec 11 19:36, status motion
Tue Dec 11 19:34, status motion
Tue Dec 11 19:33, status motion
Tue Dec 11 19:32, status motion
Tue Dec 11 19:27, status motion
Tue Dec 11 19:20, status motion
Tue Dec 11 19:19, status motion
Tue Dec 11 19:16, status motion
Tue Dec 11 19:15, status motion
Tue Dec 11 19:14, status motion
Tue Dec 11 19:12, status motion
Tue Dec 11 19:11, status motion
Tue Dec 11 19:10, status motion
Tue Dec 11 19:09, status motion
Tue Dec 11 19:08, status motion
Tue Dec 11 19:07, status motion
Tue Dec 11 19:05, status motion
Tue Dec 11 19:02, status motion
Tue Dec 11 19:01, status motion
Tue Dec 11 19:00, status motion
Tue Dec 11 18:59, status motion
Tue Dec 11 18:58, status motion
Tue Dec 11 18:57, status motion
Tue Dec 11 18:56, status motion
Tue Dec 11 18:55, status motion
Tue Dec 11 18:54, status motion
Tue Dec 11 18:52, status motion
Tue Dec 11 18:51, status motion
Tue Dec 11 18:50, status motion
Tue Dec 11 18:49, status motion
Tue Dec 11 18:48, status motion
Tue Dec 11 18:46, status motion
Tue Dec 11 18:45, status motion
Tue Dec 11 18:44, status motion
Tue Dec 11 18:43, status motion
Tue Dec 11 18:42, status motion
Tue Dec 11 18:40, status motion
Tue Dec 11 18:39, status motion
Tue Dec 11 18:38, status motion
Tue Dec 11 18:37, status motion
Tue Dec 11 18:36, status motion
Tue Dec 11 18:35, status motion
Tue Dec 11 18:34, status motion
Tue Dec 11 18:33, status motion
Tue Dec 11 18:32, status motion
Tue Dec 11 18:27, status motion
Tue Dec 11 18:20, status motion
Tue Dec 11 18:15, status motion
Tue Dec 11 18:14, status motion
Tue Dec 11 18:13, status motion
Tue Dec 11 18:12, status motion
Tue Dec 11 18:11, status motion
Tue Dec 11 18:10, status motion
Tue Dec 11 18:07, status motion
Tue Dec 11 18:06, status motion
Tue Dec 11 18:05, status motion
Tue Dec 11 18:04, status motion
Tue Dec 11 18:03, status motion
Tue Dec 11 18:02, status motion
Tue Dec 11 18:00, status motion
Tue Dec 11 17:59, status motion
Tue Dec 11 17:58, status motion
Tue Dec 11 17:57, status motion
Tue Dec 11 17:56, status motion
Tue Dec 11 17:54, status motion
Tue Dec 11 17:53, status motion
Tue Dec 11 17:52, status motion
Tue Dec 11 17:51, status motion
Tue Dec 11 17:50, status motion
Tue Dec 11 17:49, status motion
Tue Dec 11 17:48, status motion
Tue Dec 11 17:47, status motion
Tue Dec 11 17:46, status motion
Tue Dec 11 17:45, status motion
Tue Dec 11 17:44, status motion
Tue Dec 11 17:43, status motion
Tue Dec 11 17:42, status motion
Tue Dec 11 17:41, status motion
Tue Dec 11 17:40, status motion
Tue Dec 11 17:39, status motion
Tue Dec 11 17:37, status motion
Tue Dec 11 17:33, status motion
Tue Dec 11 17:32, status motion
Tue Dec 11 17:25, status motion
Tue Dec 11 17:24, status motion
Tue Dec 11 16:13, no_motion 30m
Tue Dec 11 16:03, no_motion 20m
Tue Dec 11 15:53, no_motion 10m
Tue Dec 11 15:43, status motion
Tue Dec 11 13:27, no_motion 30m
Tue Dec 11 13:17, no_motion 20m
Tue Dec 11 13:07, no_motion 10m
Tue Dec 11 12:57, status motion
Tue Dec 11 12:56, status motion
Tue Dec 11 12:55, status motion
Tue Dec 11 12:54, status motion
Tue Dec 11 12:53, status motion
Tue Dec 11 12:52, status motion
Tue Dec 11 12:51, status motion
Tue Dec 11 12:50, status motion
Tue Dec 11 12:49, status motion
Tue Dec 11 11:42, no_motion 30m
Tue Dec 11 11:32, no_motion 20m
Tue Dec 11 11:22, no_motion 10m
Tue Dec 11 11:12, status motion
Tue Dec 11 11:11, status motion
Tue Dec 11 11:01, status motion
Tue Dec 11 10:57, no_motion 10m
Tue Dec 11 10:47, status motion
Tue Dec 11 10:44, no_motion 30m
Tue Dec 11 10:34, no_motion 20m
Tue Dec 11 10:24, no_motion 10m
Tue Dec 11 10:14, status motion
Tue Dec 11 09:42, no_motion 30m
Tue Dec 11 09:32, no_motion 20m
Tue Dec 11 09:22, no_motion 10m
Tue Dec 11 09:12, status motion
Tue Dec 11 09:06, no_motion 20m
Tue Dec 11 08:56, no_motion 10m
Tue Dec 11 08:46, status motion
Tue Dec 11 08:45, no_motion 10m
Tue Dec 11 08:35, status motion
Tue Dec 11 08:27, status motion
Tue Dec 11 08:18, status motion
Tue Dec 11 08:15, status motion
Tue Dec 11 08:10, no_motion 10m
Tue Dec 11 08:00, status motion
Tue Dec 11 08:00, no_motion 10m
Tue Dec 11 07:50, status motion
Tue Dec 11 07:48, no_motion 10m
Tue Dec 11 07:38, status motion
Tue Dec 11 07:37, status motion
Tue Dec 11 07:36, status motion
Tue Dec 11 07:35, status motion
Tue Dec 11 07:34, status motion
Tue Dec 11 07:28, status motion
Tue Dec 11 07:26, status motion
Tue Dec 11 07:25, status motion
Tue Dec 11 07:22, status motion
Tue Dec 11 05:52, no_motion 30m
Tue Dec 11 05:42, no_motion 20m
Tue Dec 11 05:32, no_motion 10m
Tue Dec 11 05:22, status motion
Tue Dec 11 00:02, no_motion 30m
Mon Dec 10 23:52, no_motion 20m
Mon Dec 10 23:42, no_motion 10m
Mon Dec 10 23:32, status motion
Mon Dec 10 23:32, no_motion 10m
Mon Dec 10 23:22, status motion
Mon Dec 10 23:21, status motion
Mon Dec 10 23:20, status motion
Mon Dec 10 23:18, status motion
Mon Dec 10 23:17, status motion
Mon Dec 10 23:16, status motion
Mon Dec 10 23:15, status motion
Mon Dec 10 23:14, status motion
Mon Dec 10 23:10, status motion
Mon Dec 10 23:09, status motion
Mon Dec 10 23:07, status motion
Mon Dec 10 23:04, status motion
Mon Dec 10 23:03, status motion
Mon Dec 10 23:01, status motion
Mon Dec 10 22:59, status motion
Mon Dec 10 22:58, status motion
Mon Dec 10 22:56, status motion
Mon Dec 10 22:55, status motion
Mon Dec 10 22:51, status motion
Mon Dec 10 22:50, status motion
Mon Dec 10 22:48, status motion
Mon Dec 10 22:47, status motion
Mon Dec 10 22:45, status motion
Mon Dec 10 22:42, status motion
Mon Dec 10 22:41, status motion
Mon Dec 10 22:40, status motion
Mon Dec 10 22:39, status motion
Mon Dec 10 22:38, status motion
Mon Dec 10 22:37, status motion
Mon Dec 10 22:36, status motion
Mon Dec 10 22:35, status motion
Mon Dec 10 22:34, status motion
Mon Dec 10 22:33, status motion
Mon Dec 10 22:31, status motion
Mon Dec 10 22:30, status motion
Mon Dec 10 22:29, status motion
Mon Dec 10 22:28, status motion
Mon Dec 10 22:27, status motion
Mon Dec 10 22:26, status motion
Mon Dec 10 22:25, status motion
Mon Dec 10 22:24, status motion
Mon Dec 10 22:23, status motion
Mon Dec 10 22:22, status motion
Mon Dec 10 22:21, status motion
Mon Dec 10 22:20, status motion
Mon Dec 10 22:19, status motion
Mon Dec 10 22:18, status motion
Mon Dec 10 22:17, status motion
Mon Dec 10 22:16, status motion
Mon Dec 10 22:15, status motion
Mon Dec 10 22:14, status motion
Mon Dec 10 22:13, status motion
Mon Dec 10 22:11, status motion
Mon Dec 10 22:10, status motion
Mon Dec 10 22:08, status motion
Mon Dec 10 22:07, status motion
Mon Dec 10 22:06, status motion
Mon Dec 10 22:05, status motion
Mon Dec 10 22:04, status motion
Mon Dec 10 22:03, status motion
Mon Dec 10 22:01, status motion
Mon Dec 10 22:00, status motion
Mon Dec 10 21:59, status motion
Mon Dec 10 21:58, status motion
Mon Dec 10 21:57, status motion
Mon Dec 10 21:56, status motion
Mon Dec 10 21:54, status motion
Mon Dec 10 21:52, status motion
Mon Dec 10 21:51, status motion
Mon Dec 10 21:50, status motion
Mon Dec 10 21:48, status motion
Mon Dec 10 21:46, status motion
Mon Dec 10 21:45, status motion
Mon Dec 10 21:43, status motion
Mon Dec 10 21:42, status motion
Mon Dec 10 21:41, status motion
Mon Dec 10 21:40, status motion
Mon Dec 10 21:39, status motion
Mon Dec 10 21:38, status motion
Mon Dec 10 21:37, status motion
Mon Dec 10 21:36, status motion
Mon Dec 10 21:34, status motion
Mon Dec 10 21:33, status motion
Mon Dec 10 21:32, status motion
Mon Dec 10 21:31, status motion
Mon Dec 10 21:30, status motion
Mon Dec 10 21:23, status motion
Mon Dec 10 21:22, status motion
Mon Dec 10 21:21, status motion
Mon Dec 10 21:20, status motion
Mon Dec 10 21:19, status motion
Mon Dec 10 21:18, status motion
Mon Dec 10 21:16, status motion
Mon Dec 10 21:15, status motion
Mon Dec 10 21:14, status motion
Mon Dec 10 21:13, status motion
Mon Dec 10 21:11, status motion
Mon Dec 10 21:10, status motion
Mon Dec 10 21:09, status motion
Mon Dec 10 21:08, status motion
Mon Dec 10 21:07, status motion
Mon Dec 10 21:06, status motion
Mon Dec 10 21:03, status motion
Mon Dec 10 20:58, status motion
Mon Dec 10 20:57, status motion
Mon Dec 10 20:56, status motion
Mon Dec 10 20:54, status motion
Mon Dec 10 20:53, status motion
Mon Dec 10 20:52, status motion
Mon Dec 10 20:51, status motion
Mon Dec 10 20:50, status motion
Mon Dec 10 20:48, status motion
Mon Dec 10 20:46, status motion
Mon Dec 10 20:44, status motion
Mon Dec 10 20:42, status motion
Mon Dec 10 20:41, status motion
Mon Dec 10 20:38, status motion
Mon Dec 10 20:37, status motion
Mon Dec 10 20:34, status motion
Mon Dec 10 20:33, status motion
Mon Dec 10 20:32, status motion
Mon Dec 10 20:31, status motion
Mon Dec 10 20:29, status motion
Mon Dec 10 20:27, status motion
Mon Dec 10 20:26, status motion
Mon Dec 10 20:25, status motion
Mon Dec 10 20:24, status motion
Mon Dec 10 20:22, status motion
Mon Dec 10 20:21, status motion
Mon Dec 10 20:20, status motion
Mon Dec 10 20:19, status motion
Mon Dec 10 20:18, status motion
Mon Dec 10 20:12, no_motion 20m
Mon Dec 10 20:02, no_motion 10m
Mon Dec 10 19:52, status motion
Mon Dec 10 19:51, status motion
Mon Dec 10 19:50, status motion
Mon Dec 10 19:48, status motion
Mon Dec 10 19:39, status motion
Mon Dec 10 19:37, status motion
Mon Dec 10 19:36, status motion
Mon Dec 10 19:34, status motion
Mon Dec 10 19:29, no_motion 20m
Mon Dec 10 19:19, no_motion 10m
Mon Dec 10 19:09, status motion
Mon Dec 10 19:08, no_motion 10m
Mon Dec 10 18:58, status motion
Mon Dec 10 18:57, status motion
Mon Dec 10 18:56, status motion
Mon Dec 10 18:55, status motion
Mon Dec 10 18:53, status motion
Mon Dec 10 18:52, status motion
Mon Dec 10 18:51, status motion
Mon Dec 10 18:50, status motion
Mon Dec 10 18:49, status motion
Mon Dec 10 18:47, status motion
Mon Dec 10 18:46, status motion
Mon Dec 10 18:45, status motion
Mon Dec 10 18:44, status motion
Mon Dec 10 18:43, status motion
Mon Dec 10 18:42, status motion
Mon Dec 10 18:40, status motion
Mon Dec 10 18:39, status motion
Mon Dec 10 18:38, status motion
Mon Dec 10 18:37, status motion
Mon Dec 10 18:35, status motion
Mon Dec 10 18:34, status motion
Mon Dec 10 18:31, status motion
Mon Dec 10 18:30, status motion
Mon Dec 10 18:28, status motion
Mon Dec 10 18:27, status motion
Mon Dec 10 18:25, status motion
Mon Dec 10 18:24, status motion
Mon Dec 10 18:15, status motion
Mon Dec 10 18:14, status motion
Mon Dec 10 18:13, status motion
Mon Dec 10 18:12, status motion
Mon Dec 10 18:11, status motion
Mon Dec 10 18:10, status motion
Mon Dec 10 18:09, status motion
Mon Dec 10 18:07, status motion
Mon Dec 10 18:06, status motion
Mon Dec 10 18:05, status motion
Mon Dec 10 18:04, status motion
Mon Dec 10 18:02, status motion
Mon Dec 10 18:01, status motion
Mon Dec 10 18:00, status motion
Mon Dec 10 17:59, status motion
Mon Dec 10 17:58, status motion
Mon Dec 10 17:57, status motion
Mon Dec 10 17:56, status motion
Mon Dec 10 17:55, status motion
Mon Dec 10 17:54, status motion
Mon Dec 10 17:53, status motion
Mon Dec 10 17:51, status motion
Mon Dec 10 17:49, status motion
Mon Dec 10 17:48, status motion
Mon Dec 10 17:46, status motion
Mon Dec 10 17:45, status motion
Mon Dec 10 17:44, status motion
Mon Dec 10 17:43, status motion
Mon Dec 10 17:42, status motion
Mon Dec 10 17:41, status motion
Mon Dec 10 17:40, status motion
Mon Dec 10 17:39, status motion
Mon Dec 10 17:38, status motion
Mon Dec 10 17:37, status motion
Mon Dec 10 17:36, status motion
Mon Dec 10 17:35, status motion
Mon Dec 10 17:34, status motion
Mon Dec 10 17:30, status motion
Mon Dec 10 17:29, status motion
Mon Dec 10 17:27, status motion
Mon Dec 10 17:20, status motion
Mon Dec 10 14:58, no_motion 30m
Mon Dec 10 14:48, no_motion 20m
Mon Dec 10 14:38, no_motion 10m
Mon Dec 10 14:28, status motion
Mon Dec 10 14:03, no_motion 30m
Mon Dec 10 13:53, no_motion 20m
Mon Dec 10 13:43, no_motion 10m
Mon Dec 10 13:33, status motion
Mon Dec 10 13:30, no_motion 20m
Mon Dec 10 13:20, no_motion 10m
Mon Dec 10 13:10, status motion
Mon Dec 10 13:09, no_motion 30m
Mon Dec 10 12:59, no_motion 20m
Mon Dec 10 12:49, no_motion 10m
Mon Dec 10 12:39, status motion
Mon Dec 10 12:36, status motion
Mon Dec 10 12:35, status motion
Mon Dec 10 12:29, no_motion 20m
Mon Dec 10 12:19, no_motion 10m
Mon Dec 10 12:09, status motion
Mon Dec 10 12:02, status motion
Mon Dec 10 12:01, status motion
Mon Dec 10 12:00, status motion
Mon Dec 10 11:59, status motion

s6 Kitchen PiR
Wed Dec 12 10:11, no_motion 30m

Wed Dec 12 10:11, no_motion 30m
Wed Dec 12 10:01, no_motion 20m
Wed Dec 12 09:51, no_motion 10m
Wed Dec 12 09:41, status motion
Wed Dec 12 09:37, status motion
Wed Dec 12 09:36, status motion
Wed Dec 12 09:32, status motion
Wed Dec 12 09:31, status motion
Wed Dec 12 09:29, status motion
Wed Dec 12 09:27, status motion
Wed Dec 12 09:26, status motion
Wed Dec 12 09:25, status motion
Wed Dec 12 09:24, status motion
Wed Dec 12 09:22, status motion
Wed Dec 12 09:21, status motion
Wed Dec 12 09:18, status motion
Wed Dec 12 09:17, status motion
Wed Dec 12 09:16, status motion
Wed Dec 12 09:15, status motion
Wed Dec 12 09:14, status motion
Wed Dec 12 09:13, status motion
Wed Dec 12 09:12, status motion
Wed Dec 12 09:11, status motion
Wed Dec 12 09:10, status motion
Wed Dec 12 09:09, status motion
Wed Dec 12 09:08, status motion
Wed Dec 12 09:07, status motion
Wed Dec 12 09:03, no_motion 10m
Wed Dec 12 08:53, status motion
Wed Dec 12 08:52, status motion
Wed Dec 12 08:51, status motion
Wed Dec 12 08:50, status motion
Wed Dec 12 08:48, status motion
Wed Dec 12 08:47, status motion
Wed Dec 12 08:46, status motion
Wed Dec 12 08:45, status motion
Wed Dec 12 08:44, status motion
Wed Dec 12 08:41, status motion
Wed Dec 12 08:40, status motion
Wed Dec 12 08:39, status motion
Wed Dec 12 08:38, status motion
Wed Dec 12 08:36, status motion
Wed Dec 12 08:35, status motion
Wed Dec 12 08:27, status motion
Wed Dec 12 08:26, status motion
Wed Dec 12 08:25, status motion
Wed Dec 12 08:24, status motion
Wed Dec 12 08:23, status motion
Wed Dec 12 08:21, status motion
Wed Dec 12 08:20, status motion
Wed Dec 12 08:19, status motion
Wed Dec 12 08:18, status motion
Wed Dec 12 08:16, status motion
Wed Dec 12 08:15, status motion
Wed Dec 12 08:14, status motion
Wed Dec 12 08:13, status motion
Wed Dec 12 08:12, status motion
Wed Dec 12 08:11, status motion
Wed Dec 12 08:09, status motion
Wed Dec 12 08:06, status motion
Wed Dec 12 08:05, status motion
Wed Dec 12 08:04, status motion
Wed Dec 12 08:03, status motion
Wed Dec 12 07:58, status motion
Wed Dec 12 07:56, status motion
Wed Dec 12 07:55, status motion
Wed Dec 12 07:54, status motion
Wed Dec 12 07:53, status motion
Wed Dec 12 07:52, status motion
Wed Dec 12 07:51, status motion
Wed Dec 12 07:50, status motion
Wed Dec 12 07:49, status motion
Wed Dec 12 07:48, status motion
Wed Dec 12 07:47, status motion
Wed Dec 12 07:46, status motion
Wed Dec 12 07:45, status motion
Wed Dec 12 07:44, status motion
Wed Dec 12 07:43, status motion
Wed Dec 12 07:42, status motion
Wed Dec 12 07:40, status motion
Wed Dec 12 07:39, status motion
Wed Dec 12 07:38, status motion
Wed Dec 12 07:37, status motion
Wed Dec 12 07:36, status motion
Wed Dec 12 07:35, status motion
Wed Dec 12 07:34, status motion
Wed Dec 12 07:33, status motion
Wed Dec 12 07:32, status motion
Wed Dec 12 07:31, status motion
Wed Dec 12 07:30, status motion
Wed Dec 12 07:28, status motion
Wed Dec 12 07:27, status motion
Wed Dec 12 07:26, status motion
Wed Dec 12 07:25, status motion
Wed Dec 12 07:24, status motion
Wed Dec 12 07:23, status motion
Wed Dec 12 07:22, status motion
Wed Dec 12 07:20, status motion
Wed Dec 12 07:19, status motion
Wed Dec 12 07:11, status motion
Wed Dec 12 07:10, status motion
Wed Dec 12 07:05, status motion
Wed Dec 12 06:58, no_motion 10m
Wed Dec 12 06:48, status motion
Wed Dec 12 06:43, status motion
Wed Dec 12 06:42, status motion
Wed Dec 12 06:41, status motion
Wed Dec 12 06:38, status motion
Wed Dec 12 06:37, status motion
Wed Dec 12 00:03, no_motion 30m
Tue Dec 11 23:53, no_motion 20m
Tue Dec 11 23:43, no_motion 10m
Tue Dec 11 23:33, status motion
Tue Dec 11 23:27, status motion
Tue Dec 11 23:20, no_motion 20m
Tue Dec 11 23:10, no_motion 10m
Tue Dec 11 23:00, status motion
Tue Dec 11 22:56, no_motion 10m
Tue Dec 11 22:46, status motion
Tue Dec 11 22:42, status motion
Tue Dec 11 22:40, no_motion 10m
Tue Dec 11 22:30, status motion
Tue Dec 11 22:29, status motion
Tue Dec 11 22:24, status motion
Tue Dec 11 22:19, status motion
Tue Dec 11 22:18, status motion
Tue Dec 11 22:17, status motion
Tue Dec 11 22:08, no_motion 20m
Tue Dec 11 21:58, no_motion 10m
Tue Dec 11 21:48, status motion
Tue Dec 11 21:39, status motion
Tue Dec 11 21:32, no_motion 30m
Tue Dec 11 21:22, no_motion 20m
Tue Dec 11 21:12, no_motion 10m
Tue Dec 11 21:02, status motion
Tue Dec 11 21:01, status motion
Tue Dec 11 21:00, status motion
Tue Dec 11 20:59, status motion
Tue Dec 11 20:58, status motion
Tue Dec 11 20:56, status motion
Tue Dec 11 20:55, status motion
Tue Dec 11 20:53, no_motion 10m
Tue Dec 11 20:43, status motion
Tue Dec 11 20:42, status motion
Tue Dec 11 20:41, status motion
Tue Dec 11 20:39, status motion
Tue Dec 11 20:38, status motion
Tue Dec 11 20:36, no_motion 20m
Tue Dec 11 20:26, no_motion 10m
Tue Dec 11 20:16, status motion
Tue Dec 11 20:15, status motion
Tue Dec 11 20:13, status motion
Tue Dec 11 20:11, status motion
Tue Dec 11 20:06, no_motion 30m
Tue Dec 11 19:56, no_motion 20m
Tue Dec 11 19:46, no_motion 10m
Tue Dec 11 19:36, status motion
Tue Dec 11 19:35, status motion
Tue Dec 11 19:34, status motion
Tue Dec 11 19:33, status motion
Tue Dec 11 19:25, status motion
Tue Dec 11 19:20, status motion
Tue Dec 11 19:17, status motion
Tue Dec 11 19:12, no_motion 10m
Tue Dec 11 19:02, status motion
Tue Dec 11 19:01, status motion
Tue Dec 11 18:56, status motion
Tue Dec 11 18:55, status motion
Tue Dec 11 18:51, status motion
Tue Dec 11 18:48, status motion
Tue Dec 11 18:46, status motion
Tue Dec 11 18:45, status motion
Tue Dec 11 18:37, status motion
Tue Dec 11 18:31, status motion
Tue Dec 11 18:30, status motion
Tue Dec 11 18:28, status motion
Tue Dec 11 18:27, status motion
Tue Dec 11 18:26, status motion
Tue Dec 11 18:24, status motion
Tue Dec 11 18:23, status motion
Tue Dec 11 18:22, status motion
Tue Dec 11 18:20, status motion
Tue Dec 11 18:19, status motion
Tue Dec 11 18:18, status motion
Tue Dec 11 18:17, status motion
Tue Dec 11 18:16, status motion
Tue Dec 11 18:15, status motion
Tue Dec 11 18:14, status motion
Tue Dec 11 18:13, status motion
Tue Dec 11 18:12, status motion
Tue Dec 11 18:11, status motion
Tue Dec 11 18:10, status motion
Tue Dec 11 18:08, status motion
Tue Dec 11 18:05, no_motion 10m
Tue Dec 11 17:55, status motion
Tue Dec 11 17:49, status motion
Tue Dec 11 17:48, status motion
Tue Dec 11 17:47, status motion
Tue Dec 11 17:43, status motion
Tue Dec 11 17:40, status motion
Tue Dec 11 17:39, status motion
Tue Dec 11 17:38, status motion
Tue Dec 11 17:37, status motion
Tue Dec 11 17:36, status motion
Tue Dec 11 17:35, status motion
Tue Dec 11 17:34, status motion
Tue Dec 11 17:33, status motion
Tue Dec 11 17:31, status motion
Tue Dec 11 17:30, status motion
Tue Dec 11 17:29, status motion
Tue Dec 11 17:28, status motion
Tue Dec 11 17:27, status motion
Tue Dec 11 17:26, status motion
Tue Dec 11 17:25, status motion
Tue Dec 11 17:24, status motion
Tue Dec 11 17:23, status motion
Tue Dec 11 17:22, status motion
Tue Dec 11 17:15, no_motion 10m
Tue Dec 11 17:05, status motion
Tue Dec 11 17:04, status motion
Tue Dec 11 17:02, status motion
Tue Dec 11 16:56, no_motion 10m
Tue Dec 11 16:46, status motion
Tue Dec 11 16:34, no_motion 30m
Tue Dec 11 16:24, no_motion 20m
Tue Dec 11 16:14, no_motion 10m
Tue Dec 11 16:04, status motion
Tue Dec 11 16:03, status motion
Tue Dec 11 15:58, status motion
Tue Dec 11 15:52, status motion
Tue Dec 11 15:50, status motion
Tue Dec 11 15:49, status motion
Tue Dec 11 15:48, status motion
Tue Dec 11 15:47, status motion
Tue Dec 11 15:46, status motion
Tue Dec 11 15:44, status motion
Tue Dec 11 15:42, status motion
Tue Dec 11 15:34, no_motion 10m
Tue Dec 11 15:24, status motion
Tue Dec 11 15:23, status motion
Tue Dec 11 15:21, status motion
Tue Dec 11 15:20, status motion
Tue Dec 11 15:19, status motion
Tue Dec 11 15:17, status motion
Tue Dec 11 15:16, status motion
Tue Dec 11 15:15, status motion
Tue Dec 11 15:13, status motion
Tue Dec 11 13:52, no_motion 30m
Tue Dec 11 13:42, no_motion 20m
Tue Dec 11 13:32, no_motion 10m
Tue Dec 11 13:22, status motion
Tue Dec 11 13:21, status motion
Tue Dec 11 13:20, status motion
Tue Dec 11 13:18, status motion
Tue Dec 11 13:17, status motion
Tue Dec 11 13:16, status motion
Tue Dec 11 13:15, status motion
Tue Dec 11 13:13, status motion
Tue Dec 11 13:11, status motion
Tue Dec 11 13:10, status motion
Tue Dec 11 13:09, status motion
Tue Dec 11 13:08, status motion
Tue Dec 11 13:07, status motion
Tue Dec 11 13:06, status motion
Tue Dec 11 13:02, status motion
Tue Dec 11 13:01, status motion
Tue Dec 11 13:00, status motion
Tue Dec 11 12:59, status motion
Tue Dec 11 12:58, status motion
Tue Dec 11 12:52, status motion
Tue Dec 11 12:50, status motion
Tue Dec 11 12:49, status motion
Tue Dec 11 12:48, status motion
Tue Dec 11 12:47, status motion
Tue Dec 11 12:45, status motion
Tue Dec 11 12:43, status motion
Tue Dec 11 12:42, status motion
Tue Dec 11 12:41, status motion
Tue Dec 11 12:40, status motion
Tue Dec 11 12:39, status motion
Tue Dec 11 12:38, status motion
Tue Dec 11 12:37, status motion
Tue Dec 11 12:36, status motion
Tue Dec 11 12:35, status motion
Tue Dec 11 12:34, status motion
Tue Dec 11 12:33, status motion
Tue Dec 11 12:32, status motion
Tue Dec 11 12:31, status motion
Tue Dec 11 12:30, status motion
Tue Dec 11 12:24, status motion
Tue Dec 11 12:23, status motion
Tue Dec 11 12:22, status motion
Tue Dec 11 12:21, status motion
Tue Dec 11 12:20, status motion
Tue Dec 11 12:19, status motion
Tue Dec 11 12:18, status motion
Tue Dec 11 12:17, status motion
Tue Dec 11 12:16, status motion
Tue Dec 11 12:14, status motion
Tue Dec 11 12:13, status motion
Tue Dec 11 12:12, status motion
Tue Dec 11 12:11, status motion
Tue Dec 11 12:10, status motion
Tue Dec 11 12:09, status motion
Tue Dec 11 12:08, status motion
Tue Dec 11 12:07, status motion
Tue Dec 11 12:05, status motion
Tue Dec 11 12:03, status motion
Tue Dec 11 12:02, status motion
Tue Dec 11 12:01, status motion
Tue Dec 11 12:00, status motion
Tue Dec 11 11:59, status motion
Tue Dec 11 11:58, status motion
Tue Dec 11 11:57, status motion
Tue Dec 11 11:56, status motion
Tue Dec 11 11:55, status motion
Tue Dec 11 11:54, status motion
Tue Dec 11 11:53, status motion
Tue Dec 11 11:49, no_motion 10m
Tue Dec 11 11:39, status motion
Tue Dec 11 11:32, no_motion 20m
Tue Dec 11 11:23, no_motion 10m
Tue Dec 11 11:13, status motion
Tue Dec 11 11:11, status motion
Tue Dec 11 11:10, status motion
Tue Dec 11 11:03, no_motion 20m
Tue Dec 11 10:53, no_motion 10m
Tue Dec 11 10:43, status motion
Tue Dec 11 10:42, status motion
Tue Dec 11 10:40, status motion
Tue Dec 11 10:39, status motion
Tue Dec 11 10:38, status motion
Tue Dec 11 10:37, status motion
Tue Dec 11 10:36, status motion
Tue Dec 11 10:35, status motion
Tue Dec 11 10:33, status motion
Tue Dec 11 10:32, status motion
Tue Dec 11 10:31, status motion
Tue Dec 11 10:30, status motion
Tue Dec 11 10:29, status motion
Tue Dec 11 10:28, status motion
Tue Dec 11 10:27, status motion
Tue Dec 11 10:26, status motion
Tue Dec 11 10:25, status motion
Tue Dec 11 10:23, status motion
Tue Dec 11 10:22, status motion
Tue Dec 11 10:20, status motion
Tue Dec 11 10:19, status motion
Tue Dec 11 10:18, status motion
Tue Dec 11 10:17, status motion
Tue Dec 11 10:16, status motion
Tue Dec 11 10:14, status motion
Tue Dec 11 10:13, status motion
Tue Dec 11 10:12, status motion
Tue Dec 11 10:10, status motion
Tue Dec 11 09:41, no_motion 30m
Tue Dec 11 09:32, no_motion 20m
Tue Dec 11 09:22, no_motion 10m
Tue Dec 11 09:12, status motion
Tue Dec 11 09:11, status motion
Tue Dec 11 09:10, status motion
Tue Dec 11 09:09, status motion
Tue Dec 11 09:08, status motion
Tue Dec 11 09:07, status motion
Tue Dec 11 09:05, status motion
Tue Dec 11 08:59, status motion
Tue Dec 11 08:57, no_motion 10m
Tue Dec 11 08:47, status motion
Tue Dec 11 08:46, status motion
Tue Dec 11 08:36, status motion
Tue Dec 11 08:35, status motion
Tue Dec 11 08:34, status motion
Tue Dec 11 08:33, status motion
Tue Dec 11 08:32, status motion
Tue Dec 11 08:31, status motion
Tue Dec 11 08:30, status motion
Tue Dec 11 08:29, status motion
Tue Dec 11 08:27, status motion
Tue Dec 11 08:26, status motion
Tue Dec 11 08:25, status motion
Tue Dec 11 08:24, status motion
Tue Dec 11 08:23, status motion
Tue Dec 11 08:22, status motion
Tue Dec 11 08:21, status motion
Tue Dec 11 08:20, status motion
Tue Dec 11 08:19, status motion
Tue Dec 11 08:18, status motion
Tue Dec 11 08:15, status motion
Tue Dec 11 08:12, status motion
Tue Dec 11 08:06, status motion
Tue Dec 11 08:05, status motion
Tue Dec 11 08:02, status motion
Tue Dec 11 08:01, status motion
Tue Dec 11 08:00, status motion
Tue Dec 11 07:59, status motion
Tue Dec 11 07:58, status motion
Tue Dec 11 07:57, status motion
Tue Dec 11 07:56, status motion
Tue Dec 11 07:55, status motion
Tue Dec 11 07:54, status motion
Tue Dec 11 07:53, status motion
Tue Dec 11 07:52, status motion
Tue Dec 11 07:50, status motion
Tue Dec 11 07:44, status motion
Tue Dec 11 07:41, status motion
Tue Dec 11 07:40, status motion
Tue Dec 11 07:39, status motion
Tue Dec 11 07:38, status motion
Tue Dec 11 07:37, status motion
Tue Dec 11 07:33, status motion
Tue Dec 11 07:32, status motion
Tue Dec 11 07:31, status motion
Tue Dec 11 07:28, status motion
Tue Dec 11 07:26, status motion
Tue Dec 11 07:25, status motion
Tue Dec 11 07:24, status motion
Tue Dec 11 07:23, status motion
Tue Dec 11 07:21, status motion
Tue Dec 11 07:00, no_motion 30m
Tue Dec 11 06:50, no_motion 20m
Tue Dec 11 06:40, no_motion 10m
Tue Dec 11 06:30, status motion
Tue Dec 11 06:20, no_motion 20m
Tue Dec 11 06:10, no_motion 10m
Tue Dec 11 06:00, status motion
Tue Dec 11 05:59, status motion
Tue Dec 11 05:58, status motion
Tue Dec 11 05:57, status motion
Tue Dec 11 05:54, no_motion 10m
Tue Dec 11 05:44, status motion
Tue Dec 11 05:43, status motion
Tue Dec 11 05:42, status motion
Tue Dec 11 05:34, no_motion 10m
Tue Dec 11 05:24, status motion
Tue Dec 11 05:23, status motion
Tue Dec 11 05:21, status motion
Tue Dec 11 05:20, status motion
Tue Dec 11 05:18, status motion
Tue Dec 11 05:17, status motion
Tue Dec 11 05:16, status motion
Tue Dec 11 05:14, status motion
Tue Dec 11 05:12, status motion
Tue Dec 11 00:03, no_motion 30m
Mon Dec 10 23:53, no_motion 20m
Mon Dec 10 23:43, no_motion 10m
Mon Dec 10 23:33, status motion
Mon Dec 10 23:32, no_motion 10m
Mon Dec 10 23:22, status motion
Mon Dec 10 23:09, no_motion 30m
Mon Dec 10 22:59, no_motion 20m
Mon Dec 10 22:49, no_motion 10m
Mon Dec 10 22:39, status motion
Mon Dec 10 22:34, status motion
Mon Dec 10 22:33, status motion
Mon Dec 10 22:31, status motion
Mon Dec 10 22:28, status motion
Mon Dec 10 22:27, status motion
Mon Dec 10 22:25, status motion
Mon Dec 10 22:01, no_motion 30m
Mon Dec 10 21:51, no_motion 20m
Mon Dec 10 21:41, no_motion 10m
Mon Dec 10 21:31, status motion
Mon Dec 10 21:29, status motion
Mon Dec 10 21:28, status motion
Mon Dec 10 21:26, status motion
Mon Dec 10 21:25, status motion
Mon Dec 10 21:24, status motion
Mon Dec 10 21:23, status motion
Mon Dec 10 21:15, no_motion 10m
Mon Dec 10 21:05, status motion
Mon Dec 10 21:04, status motion
Mon Dec 10 21:03, status motion
Mon Dec 10 20:58, status motion
Mon Dec 10 20:50, no_motion 30m
Mon Dec 10 20:40, no_motion 20m
Mon Dec 10 20:30, no_motion 10m
Mon Dec 10 20:20, status motion
Mon Dec 10 20:18, status motion
Mon Dec 10 20:17, status motion
Mon Dec 10 20:16, status motion
Mon Dec 10 20:15, status motion
Mon Dec 10 20:13, no_motion 20m
Mon Dec 10 20:03, no_motion 10m
Mon Dec 10 19:53, status motion
Mon Dec 10 19:48, status motion
Mon Dec 10 19:46, status motion
Mon Dec 10 19:41, status motion
Mon Dec 10 19:40, status motion
Mon Dec 10 19:37, status motion
Mon Dec 10 19:36, status motion
Mon Dec 10 19:35, status motion
Mon Dec 10 19:33, status motion
Mon Dec 10 19:32, status motion
Mon Dec 10 19:25, no_motion 10m
Mon Dec 10 19:15, status motion
Mon Dec 10 19:12, status motion
Mon Dec 10 19:11, status motion
Mon Dec 10 19:09, status motion
Mon Dec 10 19:09, no_motion 20m
Mon Dec 10 18:59, no_motion 10m
Mon Dec 10 18:49, status motion
Mon Dec 10 18:48, status motion
Mon Dec 10 18:45, status motion
Mon Dec 10 18:44, status motion
Mon Dec 10 18:41, status motion
Mon Dec 10 18:39, status motion
Mon Dec 10 18:36, status motion
Mon Dec 10 18:35, status motion
Mon Dec 10 18:34, status motion
Mon Dec 10 18:33, status motion
Mon Dec 10 18:32, status motion
Mon Dec 10 18:30, status motion
Mon Dec 10 18:21, status motion
Mon Dec 10 18:20, status motion
Mon Dec 10 18:19, status motion
Mon Dec 10 18:18, status motion
Mon Dec 10 18:17, status motion
Mon Dec 10 18:16, status motion
Mon Dec 10 18:15, status motion
Mon Dec 10 18:14, status motion
Mon Dec 10 18:13, status motion
Mon Dec 10 18:12, status motion
Mon Dec 10 18:11, status motion
Mon Dec 10 18:10, status motion
Mon Dec 10 18:09, status motion
Mon Dec 10 18:08, status motion
Mon Dec 10 18:07, status motion
Mon Dec 10 18:06, status motion
Mon Dec 10 18:05, status motion
Mon Dec 10 18:04, status motion
Mon Dec 10 18:03, status motion
Mon Dec 10 17:54, no_motion 10m
Mon Dec 10 17:44, status motion
Mon Dec 10 17:35, status motion
Mon Dec 10 17:34, status motion
Mon Dec 10 17:33, status motion
Mon Dec 10 17:32, status motion
Mon Dec 10 17:31, status motion
Mon Dec 10 17:29, status motion
Mon Dec 10 17:28, status motion
Mon Dec 10 17:27, status motion
Mon Dec 10 17:26, status motion
Mon Dec 10 17:25, status motion
Mon Dec 10 17:24, status motion
Mon Dec 10 17:23, status motion
Mon Dec 10 17:22, status motion
Mon Dec 10 17:21, status motion
Mon Dec 10 17:20, status motion
Mon Dec 10 17:19, status motion
Mon Dec 10 17:18, status motion
Mon Dec 10 17:17, status motion
Mon Dec 10 17:16, status motion
Mon Dec 10 17:15, status motion
Mon Dec 10 17:14, status motion
Mon Dec 10 17:13, status motion
Mon Dec 10 17:12, status motion
Mon Dec 10 17:11, status motion
Mon Dec 10 17:10, status motion
Mon Dec 10 17:08, status motion
Mon Dec 10 17:07, status motion
Mon Dec 10 17:02, no_motion 20m
Mon Dec 10 16:52, no_motion 10m
Mon Dec 10 16:42, status motion
Mon Dec 10 16:41, status motion
Mon Dec 10 16:40, status motion
Mon Dec 10 16:39, status motion
Mon Dec 10 16:38, status motion
Mon Dec 10 16:37, status motion
Mon Dec 10 16:36, status motion
Mon Dec 10 16:35, status motion
Mon Dec 10 16:34, status motion
Mon Dec 10 16:33, status motion
Mon Dec 10 16:32, status motion
Mon Dec 10 16:31, status motion
Mon Dec 10 16:30, status motion
Mon Dec 10 16:28, status motion
Mon Dec 10 16:27, status motion
Mon Dec 10 16:26, status motion
Mon Dec 10 16:25, status motion
Mon Dec 10 16:24, status motion
Mon Dec 10 16:23, status motion
Mon Dec 10 16:22, status motion
Mon Dec 10 16:21, status motion
Mon Dec 10 16:20, status motion
Mon Dec 10 16:19, status motion
Mon Dec 10 16:18, status motion
Mon Dec 10 16:17, status motion
Mon Dec 10 16:16, status motion
Mon Dec 10 16:15, status motion
Mon Dec 10 16:14, status motion
Mon Dec 10 16:13, status motion
Mon Dec 10 16:12, status motion
Mon Dec 10 16:11, status motion
Mon Dec 10 16:10, status motion
Mon Dec 10 16:09, status motion
Mon Dec 10 16:08, status motion
Mon Dec 10 16:07, status motion
Mon Dec 10 16:06, status motion
Mon Dec 10 16:05, status motion
Mon Dec 10 16:04, status motion
Mon Dec 10 16:03, status motion
Mon Dec 10 16:01, status motion
Mon Dec 10 16:00, status motion
Mon Dec 10 15:59, status motion
Mon Dec 10 15:58, status motion
Mon Dec 10 15:57, status motion
Mon Dec 10 15:56, status motion
Mon Dec 10 15:55, status motion
Mon Dec 10 15:54, status motion

s7 Back Door
Tue Nov 20 16:02:31, status close

Tue Nov 20 16:02:31, status close
Tue Nov 20 16:02:31, status open
Tue Nov 20 14:58:52, status close
Tue Nov 20 14:58:52, status open
Tue Nov 20 14:58:51, status close
Tue Nov 20 14:58:51, status open
Fri Nov 16 15:53:12, status close
Fri Nov 16 15:53:08, status open
Sun Sep 16 18:40:46, status close
Sun Sep 16 18:40:45, status open
Sun Sep 16 18:40:44, status open
Sun Sep 16 18:40:44, status open
Sun Sep 16 18:40:43, status close
Sun Sep 16 18:40:43, status open
Sun Sep 16 18:40:40, status close
Sun Sep 16 18:40:39, status open
Sun Sep 16 18:40:26, status close
Sun Sep 16 18:40:25, status open
Sun Sep 16 17:48:45, status close
Sun Sep 16 17:48:44, status open
Sat Sep 15 15:41:16, status close
Sat Sep 15 15:41:15, status open
Sat Sep 15 15:39:19, status close
Sat Sep 15 15:39:19, status open
Sat Sep 15 15:39:17, status close
Sat Sep 15 15:39:17, status open
Sun Sep 9 15:01:08, status close
Sun Sep 9 15:01:08, status open
Sun Sep 9 14:40:00, status close
Sun Sep 9 14:39:56, status open
Sat Sep 8 11:59:57, status close
Sat Sep 8 11:59:56, status open
Sat Sep 8 11:59:46, status close
Sat Sep 8 11:59:46, status open
Sat Sep 8 11:40:12, status close
Sat Sep 8 11:40:12, status open
Sat Sep 8 11:22:34, status close
Sat Sep 8 11:22:32, status open
Sat Sep 8 11:22:16, status close
Sat Sep 8 11:22:15, status open
Sat Sep 8 00:04:04, status close
Sat Sep 8 00:03:53, no_close 1m
Sat Sep 8 00:02:53, status open
Sat Sep 8 00:02:52, status close
Sat Sep 8 00:02:42, status open
Fri Sep 7 14:48:24, status close
Fri Sep 7 14:47:49, no_close 5m
Fri Sep 7 14:43:48, no_close 1m
Fri Sep 7 14:42:48, status open
Sat Sep 1 12:13:42, status close
Sat Sep 1 12:13:41, status open
Mon Aug 27 12:53:00, status close
Mon Aug 27 12:52:30, no_close 5m
Mon Aug 27 12:48:28, no_close 1m
Mon Aug 27 12:47:28, status open
Mon Aug 27 12:33:19, status close
Mon Aug 27 12:30:43, no_close 5m
Mon Aug 27 12:26:44, no_close 1m
Mon Aug 27 12:25:44, status open
Thu Aug 23 19:58:03, status close
Thu Aug 23 19:58:03, status open
Thu Aug 23 19:57:55, status close
Thu Aug 23 17:11:44, no_close 5m
Thu Aug 23 17:07:42, no_close 1m
Thu Aug 23 17:06:42, status open
Thu Aug 23 17:06:41, status close
Thu Aug 23 15:25:31, no_close 5m
Thu Aug 23 15:21:29, no_close 1m
Thu Aug 23 15:20:30, status open
Thu Aug 23 12:16:37, status close
Thu Aug 23 12:15:20, no_close 5m
Thu Aug 23 12:11:22, no_close 1m
Thu Aug 23 12:10:20, status open
Thu Aug 23 12:07:58, status close
Thu Aug 23 11:38:12, no_close 5m
Thu Aug 23 11:34:15, no_close 1m
Thu Aug 23 11:33:13, status open
Thu Aug 23 11:33:09, status close
Thu Aug 23 11:04:52, no_close 5m
Thu Aug 23 11:00:53, no_close 1m
Thu Aug 23 10:59:53, status open
Thu May 31 13:31:26, status close
Thu May 31 13:30:54, no_close 1m
Thu May 31 13:29:54, status open
Thu May 31 13:29:54, status open
Wed May 30 19:11:02, status close
Wed May 30 19:11:02, status open
Wed May 30 19:10:55, status close
Wed May 30 19:10:55, status open
Wed May 30 19:10:55, status close
Wed May 30 19:10:54, status open
Sat May 12 09:49:33, status close
Sat May 12 09:49:33, status open
Fri May 11 20:04:38, status close
Fri May 11 20:02:41, no_close 5m
Fri May 11 19:58:42, no_close 1m
Fri May 11 19:57:42, status open
Thu May 10 10:52:39, status close
Thu May 10 10:52:19, no_close 1m
Thu May 10 10:51:19, status open
Wed May 9 12:47:59, status close
Wed May 9 12:46:49, no_close 5m
Wed May 9 12:42:50, no_close 1m
Wed May 9 12:41:50, status open
Wed May 9 11:30:47, status close
Wed May 9 11:04:43, no_close 5m
Wed May 9 11:00:44, no_close 1m
Wed May 9 10:59:44, status open
Wed May 9 10:58:47, status close
Wed May 9 10:56:00, no_close 1m
Wed May 9 10:55:00, status open
Wed May 9 10:54:06, status close
Wed May 9 10:52:02, no_close 1m
Wed May 9 10:51:02, status open
Wed May 9 10:48:58, status close
Wed May 9 10:48:31, no_close 1m
Wed May 9 10:47:31, status open
Wed May 9 10:27:34, status close
Wed May 9 10:21:16, no_close 5m
Wed May 9 10:17:16, no_close 1m
Wed May 9 10:16:17, status open
Wed May 9 08:52:30, no_close 5m
Wed May 9 08:48:30, no_close 1m
Wed May 9 08:47:30, status open
Wed May 9 08:43:48, status close
Wed May 9 08:42:40, no_close 5m
Wed May 9 08:38:40, no_close 1m
Wed May 9 08:37:40, status open
Wed May 9 06:06:57, status close
Wed May 9 06:05:52, no_close 1m
Wed May 9 06:04:53, status open
Sat May 5 13:30:38, status close
Sat May 5 13:21:07, no_close 5m
Sat May 5 13:17:08, no_close 1m
Sat May 5 13:16:08, status open
Sat May 5 13:09:08, status close
Sat May 5 13:05:15, no_close 5m
Sat May 5 13:01:16, no_close 1m
Sat May 5 13:00:16, status open
Fri May 4 17:03:01, status close
Fri May 4 17:02:24, status open
Fri May 4 17:02:08, status close
Fri May 4 17:01:44, status open
Fri May 4 17:01:16, status close
Fri May 4 12:26:24, no_close 5m
Fri May 4 12:22:25, no_close 1m
Fri May 4 12:21:25, status open
Fri May 4 12:18:38, status close
Fri May 4 12:18:36, status open
Fri May 4 12:16:21, status close
Fri May 4 12:16:16, status open
Fri May 4 06:08:27, status close
Fri May 4 06:08:19, status open
Fri May 4 05:56:43, status close
Fri May 4 05:56:38, status open
Thu May 3 15:26:07, status close
Thu Apr 26 12:33:29, no_close 5m
Thu Apr 26 12:29:30, no_close 1m
Thu Apr 26 12:28:30, status open
Thu Apr 26 12:28:30, status open
Thu Apr 26 09:33:01, no_close 5m
Thu Apr 26 09:29:02, no_close 1m
Thu Apr 26 09:28:02, status open
Thu Apr 26 09:23:52, status close
Thu Apr 26 09:23:48, status open
Thu Apr 26 09:23:47, status close
Thu Apr 26 09:22:21, no_close 1m
Thu Apr 26 09:21:22, status open
Thu Apr 26 09:21:21, status close
Thu Apr 26 09:21:21, status open
Thu Apr 26 09:21:20, status close
Thu Apr 26 09:21:15, status open
Thu Apr 26 09:21:15, status close
Thu Apr 26 09:21:14, status open
Thu Apr 26 09:21:14, status close
Thu Apr 26 09:21:13, status open
Fri Apr 20 09:11:32, status close
Fri Apr 20 09:11:28, status open
Fri Apr 13 16:01:35, status close
Fri Apr 13 16:01:35, status open
Fri Apr 13 16:01:34, status close
Fri Apr 13 16:01:32, status open
Fri Apr 13 14:16:33, status close
Fri Apr 13 14:16:22, status open
Fri Apr 13 14:16:21, status close
Fri Apr 13 14:16:21, status open
Fri Apr 13 14:16:21, status close
Fri Apr 13 14:16:20, status open
Fri Apr 13 14:16:18, status close
Fri Apr 13 14:16:17, status open
Fri Apr 13 14:11:42, status close
Fri Apr 13 14:11:26, status open
Fri Apr 13 13:35:20, status close
Fri Apr 13 09:43:59, status close
Fri Apr 13 09:43:59, status open
Fri Apr 13 09:32:59, status close
Fri Apr 13 09:32:58, status open
Fri Apr 13 09:32:58, status close
Fri Apr 13 09:32:58, status open
Fri Apr 13 08:40:13, status close
Fri Apr 13 08:40:13, status open
Fri Apr 13 07:57:45, status close
Fri Apr 13 07:57:41, status open
Tue Apr 3 14:00:49, status close
Fri Mar 16 17:28:16, no_close 5m
Fri Mar 16 17:24:17, no_close 1m
Fri Mar 16 17:23:17, status open
Fri Mar 16 17:23:06, status close
Fri Mar 16 07:51:41, no_close 5m
Fri Mar 16 07:47:41, no_close 1m
Fri Mar 16 07:46:41, status open
Fri Mar 16 07:46:27, status close
Thu Mar 15 16:43:01, no_close 5m
Thu Mar 15 16:39:01, no_close 1m
Thu Mar 15 16:38:01, status open
Sun Mar 11 10:23:38, status close
Sun Mar 11 10:23:38, status open
Sun Mar 11 10:23:37, status close
Sun Mar 11 10:23:36, status open
Sun Mar 11 10:23:35, status close
Sun Mar 11 10:23:35, status open
Tue Mar 6 08:44:30, status close
Tue Mar 6 06:38:54, no_close 5m
Tue Mar 6 06:34:55, no_close 1m
Tue Mar 6 06:33:55, status open
Mon Mar 5 14:24:36, status close
Mon Mar 5 14:24:35, status open
Mon Mar 5 14:24:29, status open
Tue Feb 20 06:32:03, status close
Tue Feb 20 06:31:56, status open

s8 FLOOD
Wed Dec 12 10:16, Flood:1
L:163 T:22.1 M:1 C:0

Wed Dec 12 10:16, Flood:1
L:163 T:22.1 M:1 C:0
Wed Dec 12 10:11, Flood:1
L:160 T:22.3 M:1 C:0
Wed Dec 12 10:06, Flood:1
L:160 T:22.3 M:1 C:0
Wed Dec 12 10:01, Flood:1
L:160 T:22.5 M:1 C:0
Wed Dec 12 09:56, Flood:1
L:160 T:22.6 M:1 C:0
Wed Dec 12 09:51, Flood:1
L:162 T:22.7 M:1 C:0
Wed Dec 12 09:46, Flood:1
L:144 T:22.7 M:1 C:0
Wed Dec 12 09:41, Flood:1
L:144 T:22.7 M:1 C:0
Wed Dec 12 09:36, Flood:1
L:162 T:22.9 M:1 C:0
Wed Dec 12 09:31, Flood:1
L:162 T:22.9 M:1 C:0
Wed Dec 12 09:26, Flood:1
L:130 T:22.7 M:1 C:0
Wed Dec 12 09:21, Flood:1
L:160 T:22.5 M:1 C:0
Wed Dec 12 09:16, Flood:1
L:147 T:22.5 M:1 C:0
Wed Dec 12 09:11, Flood:1
L:147 T:22.3 M:1 C:0
Wed Dec 12 09:06, Flood:1
L:130 T:22.2 M:1 C:0
Wed Dec 12 09:01, Flood:1
L:128 T:22.0 M:1 C:0
Wed Dec 12 08:56, Flood:1
L:163 T:21.9 M:1 C:0
Wed Dec 12 08:51, Flood:1
L:163 T:21.7 M:1 C:0
Wed Dec 12 08:46, Flood:1
L:162 T:21.3 M:1 C:0
Wed Dec 12 08:41, Flood:2
L:179 T:21.2 M:2 C:0
Wed Dec 12 08:36, Flood:2
L:164 T:20.7 M:2 C:0
Wed Dec 12 08:31, Flood:2
L:163 T:20.5 M:2 C:0
Wed Dec 12 08:26, Flood:2
L:148 T:20.2 M:2 C:0
Wed Dec 12 08:21, Flood:2
L:148 T:20.0 M:2 C:0
Wed Dec 12 08:16, Flood:2
L:112 T:19.7 M:2 C:0
Wed Dec 12 08:11, Flood:2
L:164 T:19.6 M:2 C:0
Wed Dec 12 08:06, Flood:2
L:164 T:19.6 M:2 C:0
Wed Dec 12 08:01, Flood:2
L:164 T:19.5 M:2 C:0
Wed Dec 12 07:56, Flood:2
L:35 T:19.3 M:2 C:0
Wed Dec 12 07:51, Flood:2
L:164 T:19.4 M:2 C:0
Wed Dec 12 07:46, Flood:2
L:163 T:19.1 M:2 C:0
Wed Dec 12 07:41, Flood:2
L:164 T:19.2 M:2 C:0
Wed Dec 12 07:36, Flood:2
L:181 T:19.1 M:2 C:0
Wed Dec 12 07:31, Flood:2
L:166 T:19.0 M:2 C:0
Wed Dec 12 07:26, Flood:2
L:181 T:19.0 M:2 C:0
Wed Dec 12 07:21, Flood:2
L:163 T:19.0 M:2 C:0
Wed Dec 12 07:16, Flood:2
L:181 T:19.0 M:2 C:0
Wed Dec 12 07:11, Flood:2
L:163 T:19.0 M:2 C:0
Wed Dec 12 07:06, Flood:1
L:163 T:19.0 M:1 C:0
Wed Dec 12 07:01, Flood:1
L:164 T:18.9 M:1 C:0
Wed Dec 12 06:56, Flood:2
L:163 T:18.7 M:2 C:0
Wed Dec 12 06:51, Flood:1
L:150 T:18.7 M:1 C:0
Wed Dec 12 06:46, Flood:1
L:166 T:18.5 M:1 C:0
Wed Dec 12 06:41, Flood:1
L:97 T:18.3 M:1 C:0
Wed Dec 12 06:36, Flood:2
L:179 T:18.2 M:2 C:0
Wed Dec 12 06:31, Flood:1
L:179 T:18.1 M:1 C:0
Wed Dec 12 06:26, Flood:1
L:113 T:18.1 M:1 C:0
Wed Dec 12 06:21, Flood:1
L:151 T:18.1 M:1 C:0
Wed Dec 12 06:16, Flood:1
L:166 T:18.1 M:1 C:0
Wed Dec 12 06:11, Flood:1
L:17 T:18.1 M:1 C:0
Wed Dec 12 06:06, Flood:1
L:164 T:18.1 M:1 C:0
Wed Dec 12 06:01, Flood:1
L:97 T:18.2 M:1 C:0
Wed Dec 12 05:56, Flood:1
L:166 T:18.2 M:1 C:0
Wed Dec 12 05:51, Flood:1
L:179 T:18.2 M:1 C:0
Wed Dec 12 05:46, Flood:1
L:148 T:18.2 M:1 C:0
Wed Dec 12 05:41, Flood:1
L:179 T:18.2 M:1 C:0
Wed Dec 12 05:36, Flood:1
L:179 T:18.2 M:1 C:0
Wed Dec 12 05:31, Flood:1
L:179 T:18.2 M:1 C:0
Wed Dec 12 05:26, Flood:1
L:179 T:18.3 M:1 C:0
Wed Dec 12 05:21, Flood:1
L:163 T:18.5 M:1 C:0
Wed Dec 12 05:16, Flood:1
L:113 T:18.4 M:1 C:0
Wed Dec 12 05:11, Flood:2
L:37 T:18.5 M:2 C:0
Wed Dec 12 05:06, Flood:1
L:179 T:18.5 M:1 C:0
Wed Dec 12 05:01, Flood:1
L:135 T:18.6 M:1 C:0
Wed Dec 12 04:56, Flood:1
L:148 T:18.5 M:1 C:0
Wed Dec 12 04:51, Flood:1
L:95 T:18.5 M:1 C:0
Wed Dec 12 04:46, Flood:1
L:163 T:18.6 M:1 C:0
Wed Dec 12 04:41, Flood:1
L:163 T:18.5 M:1 C:0
Wed Dec 12 04:36, Flood:1
L:163 T:18.8 M:1 C:0
Wed Dec 12 04:31, Flood:1
L:181 T:18.8 M:1 C:0
Wed Dec 12 04:26, Flood:1
L:163 T:18.8 M:1 C:0
Wed Dec 12 04:21, Flood:1
L:115 T:18.9 M:1 C:0
Wed Dec 12 04:16, Flood:2
L:181 T:18.8 M:2 C:0
Wed Dec 12 04:11, Flood:1
L:164 T:18.8 M:1 C:0
Wed Dec 12 04:06, Flood:2
L:181 T:18.8 M:2 C:0
Wed Dec 12 04:01, Flood:2
L:164 T:19.0 M:2 C:0
Wed Dec 12 03:56, Flood:1
L:164 T:19.1 M:1 C:0
Wed Dec 12 03:51, Flood:1
L:164 T:19.0 M:1 C:0
Wed Dec 12 03:46, Flood:2
L:164 T:19.2 M:2 C:0
Wed Dec 12 03:41, Flood:2
L:178 T:19.2 M:2 C:0
Wed Dec 12 03:36, Flood:1
L:178 T:19.2 M:1 C:0
Wed Dec 12 03:31, Flood:2
L:164 T:19.3 M:2 C:0
Wed Dec 12 03:26, Flood:2
L:35 T:19.4 M:2 C:0
Wed Dec 12 03:21, Flood:2
L:162 T:19.5 M:2 C:0
Wed Dec 12 03:16, Flood:2
L:178 T:19.4 M:2 C:0
Wed Dec 12 03:11, Flood:2
L:179 T:19.4 M:2 C:0
Wed Dec 12 03:06, Flood:2
L:112 T:19.7 M:2 C:0
Wed Dec 12 03:01, Flood:2
L:181 T:19.6 M:2 C:0
Wed Dec 12 02:56, Flood:2
L:162 T:19.7 M:2 C:0
Wed Dec 12 02:51, Flood:2
L:179 T:19.8 M:2 C:0
Wed Dec 12 02:46, Flood:2
L:148 T:20.0 M:2 C:0
Wed Dec 12 02:41, Flood:2
L:163 T:20.0 M:2 C:0
Wed Dec 12 02:36, Flood:2
L:110 T:20.1 M:2 C:0
Wed Dec 12 02:31, Flood:2
L:163 T:20.1 M:2 C:0
Wed Dec 12 02:26, Flood:2
L:163 T:20.2 M:2 C:0
Wed Dec 12 02:21, Flood:2
L:163 T:20.2 M:2 C:0
Wed Dec 12 02:16, Flood:2
L:181 T:20.4 M:2 C:0
Wed Dec 12 02:11, Flood:2
L:164 T:20.4 M:2 C:0
Wed Dec 12 02:06, Flood:2
L:147 T:20.5 M:2 C:0
Wed Dec 12 02:01, Flood:1
L:164 T:20.6 M:1 C:0
Wed Dec 12 01:56, Flood:1
L:164 T:20.7 M:1 C:0
Wed Dec 12 01:51, Flood:1
L:178 T:20.9 M:1 C:0
Wed Dec 12 01:46, Flood:1
L:162 T:21.0 M:1 C:0
Wed Dec 12 01:41, Flood:1
L:162 T:21.0 M:1 C:0
Wed Dec 12 01:36, Flood:1
L:148 T:21.1 M:1 C:0
Wed Dec 12 01:31, Flood:1
L:146 T:21.3 M:1 C:0
Wed Dec 12 01:26, Flood:1
L:55 T:21.3 M:1 C:0
Wed Dec 12 01:21, Flood:1
L:163 T:21.4 M:1 C:0
Wed Dec 12 01:16, Flood:1
L:163 T:21.6 M:1 C:0
Wed Dec 12 01:11, Flood:1
L:164 T:21.8 M:1 C:0
Wed Dec 12 01:06, Flood:1
L:160 T:22.0 M:1 C:0
Wed Dec 12 01:01, Flood:1
L:160 T:22.1 M:1 C:0
Wed Dec 12 00:56, Flood:1
L:147 T:22.3 M:1 C:0
Wed Dec 12 00:51, Flood:1
L:108 T:22.4 M:1 C:0
Wed Dec 12 00:46, Flood:1
L:162 T:22.5 M:1 C:0
Wed Dec 12 00:41, Flood:1
L:146 T:22.8 M:1 C:0
Wed Dec 12 00:36, Flood:1
L:159 T:22.9 M:1 C:0
Wed Dec 12 00:31, Flood:1
L:159 T:23.2 M:1 C:0
Wed Dec 12 00:26, Flood:1
L:160 T:23.3 M:1 C:0
Wed Dec 12 00:21, Flood:1
L:143 T:23.6 M:1 C:0
Wed Dec 12 00:16, Flood:1
L:126 T:23.8 M:1 C:0
Wed Dec 12 00:11, Flood:1
L:144 T:24.1 M:1 C:0
Wed Dec 12 00:06, Flood:1
L:158 T:24.3 M:1 C:0
Wed Dec 12 00:01, Flood:2
L:159 T:24.6 M:2 C:0
Tue Dec 11 23:56, Flood:2
L:159 T:24.9 M:2 C:0
Tue Dec 11 23:51, Flood:2
L:159 T:25.0 M:2 C:0
Tue Dec 11 23:46, Flood:2
L:143 T:25.1 M:2 C:0
Tue Dec 11 23:41, Flood:2
L:126 T:25.3 M:2 C:0
Tue Dec 11 23:36, Flood:2
L:156 T:25.4 M:2 C:0
Tue Dec 11 23:31, Flood:2
L:143 T:25.4 M:2 C:0
Tue Dec 11 23:26, Flood:2
L:143 T:25.4 M:2 C:0
Tue Dec 11 23:21, Flood:2
L:143 T:25.5 M:2 C:0
Tue Dec 11 23:16, Flood:2
L:143 T:25.4 M:2 C:0
Tue Dec 11 23:11, Flood:2
L:125 T:25.4 M:2 C:0
Tue Dec 11 23:06, Flood:2
L:156 T:25.6 M:2 C:0
Tue Dec 11 23:01, Flood:2
L:143 T:25.6 M:2 C:0
Tue Dec 11 22:56, Flood:2
L:156 T:25.4 M:2 C:0
Tue Dec 11 22:51, Flood:2
L:125 T:25.6 M:2 C:0
Tue Dec 11 22:46, Flood:2
L:143 T:25.4 M:2 C:0
Tue Dec 11 22:41, Flood:2
L:160 T:25.4 M:2 C:0
Tue Dec 11 22:36, Flood:2
L:143 T:25.4 M:2 C:0
Tue Dec 11 22:31, Flood:2
L:156 T:25.4 M:2 C:0
Tue Dec 11 22:26, Flood:2
L:156 T:25.3 M:2 C:0
Tue Dec 11 22:21, Flood:2
L:143 T:25.4 M:2 C:0
Tue Dec 11 22:16, Flood:2
L:143 T:25.3 M:2 C:0
Tue Dec 11 22:11, Flood:2
L:156 T:25.4 M:2 C:0
Tue Dec 11 22:06, Flood:2
L:156 T:25.4 M:2 C:0
Tue Dec 11 22:01, Flood:2
L:158 T:25.4 M:2 C:0
Tue Dec 11 21:56, Flood:2
L:125 T:25.4 M:2 C:0
Tue Dec 11 21:51, Flood:2
L:156 T:25.6 M:2 C:0
Tue Dec 11 21:46, Flood:2
L:143 T:25.6 M:2 C:0
Tue Dec 11 21:41, Flood:2
L:156 T:25.6 M:2 C:0
Tue Dec 11 21:36, Flood:2
L:156 T:25.6 M:2 C:0
Tue Dec 11 21:31, Flood:2
L:156 T:25.7 M:2 C:0
Tue Dec 11 21:26, Flood:2
L:156 T:25.7 M:2 C:0
Tue Dec 11 21:21, Flood:2
L:156 T:25.7 M:2 C:0
Tue Dec 11 21:16, Flood:2
L:156 T:25.8 M:2 C:0
Tue Dec 11 21:11, Flood:2
L:156 T:25.8 M:2 C:0
Tue Dec 11 21:06, Flood:2
L:156 T:25.8 M:2 C:0
Tue Dec 11 21:01, Flood:2
L:140 T:25.8 M:2 C:0
Tue Dec 11 20:56, Flood:2
L:156 T:25.8 M:2 C:0
Tue Dec 11 20:51, Flood:2
L:86 T:25.8 M:2 C:0
Tue Dec 11 20:46, Flood:2
L:140 T:25.7 M:2 C:0
Tue Dec 11 20:41, Flood:2
L:159 T:26.0 M:2 C:0
Tue Dec 11 20:36, Flood:2
L:140 T:26.0 M:2 C:0
Tue Dec 11 20:31, Flood:2
L:158 T:26.0 M:2 C:0
Tue Dec 11 20:26, Flood:2
L:158 T:26.1 M:2 C:0
Tue Dec 11 20:21, Flood:2
L:140 T:26.1 M:2 C:0
Tue Dec 11 20:16, Flood:2
L:140 T:26.1 M:2 C:0
Tue Dec 11 20:11, Flood:2
L:140 T:26.1 M:2 C:0
Tue Dec 11 20:06, Flood:2
L:140 T:26.0 M:2 C:0
Tue Dec 11 20:01, Flood:2
L:156 T:26.0 M:2 C:0
Tue Dec 11 19:56, Flood:2
L:156 T:25.7 M:2 C:0
Tue Dec 11 19:51, Flood:2
L:143 T:25.7 M:2 C:0
Tue Dec 11 19:46, Flood:2
L:156 T:25.5 M:2 C:0
Tue Dec 11 19:41, Flood:2
L:143 T:25.5 M:2 C:0
Tue Dec 11 19:36, Flood:2
L:156 T:25.4 M:2 C:0
Tue Dec 11 19:31, Flood:2
L:143 T:25.3 M:2 C:0
Tue Dec 11 19:26, Flood:2
L:159 T:25.1 M:2 C:0
Tue Dec 11 19:21, Flood:2
L:142 T:24.9 M:2 C:0
Tue Dec 11 19:16, Flood:2
L:142 T:24.9 M:2 C:0
Tue Dec 11 19:11, Flood:2
L:160 T:24.9 M:2 C:0
Tue Dec 11 19:06, Flood:2
L:159 T:24.8 M:2 C:0
Tue Dec 11 19:01, Flood:2
L:160 T:24.9 M:2 C:0
Tue Dec 11 18:56, Flood:2
L:159 T:24.8 M:2 C:0
Tue Dec 11 18:51, Flood:2
L:159 T:24.9 M:2 C:0
Tue Dec 11 18:46, Flood:2
L:159 T:24.8 M:2 C:0
Tue Dec 11 18:41, Flood:2
L:159 T:24.9 M:2 C:0
Tue Dec 11 18:36, Flood:2
L:159 T:24.9 M:2 C:0
Tue Dec 11 18:31, Flood:2
L:159 T:25.0 M:2 C:0
Tue Dec 11 18:26, Flood:2
L:159 T:25.0 M:2 C:0
Tue Dec 11 18:21, Flood:2
L:128 T:25.0 M:2 C:0
Tue Dec 11 18:16, Flood:2
L:143 T:25.0 M:2 C:0
Tue Dec 11 18:11, Flood:2
L:160 T:25.0 M:2 C:0
Tue Dec 11 18:06, Flood:2
L:159 T:25.0 M:2 C:0
Tue Dec 11 18:01, Flood:2
L:125 T:25.0 M:2 C:0
Tue Dec 11 17:56, Flood:2
L:159 T:25.1 M:2 C:0
Tue Dec 11 17:51, Flood:2
L:143 T:25.0 M:2 C:0
Tue Dec 11 17:46, Flood:2
L:143 T:25.0 M:2 C:0
Tue Dec 11 17:41, Flood:2
L:160 T:25.1 M:2 C:0
Tue Dec 11 17:36, Flood:2
L:90 T:25.2 M:2 C:0
Tue Dec 11 17:31, Flood:2
L:130 T:25.2 M:2 C:0
Tue Dec 11 17:26, Flood:2
L:125 T:25.2 M:2 C:0
Tue Dec 11 17:21, Flood:2
L:143 T:25.3 M:2 C:0
Tue Dec 11 17:16, Flood:2
L:156 T:25.3 M:2 C:0
Tue Dec 11 17:11, Flood:2
L:156 T:25.3 M:2 C:0
Tue Dec 11 17:06, Flood:2
L:143 T:25.3 M:2 C:0
Tue Dec 11 17:01, Flood:2
L:143 T:25.1 M:2 C:0
Tue Dec 11 16:56, Flood:2
L:125 T:25.0 M:2 C:0
Tue Dec 11 16:51, Flood:2
L:159 T:24.9 M:2 C:0
Tue Dec 11 16:46, Flood:2
L:159 T:24.8 M:2 C:0
Tue Dec 11 16:41, Flood:2
L:142 T:24.7 M:2 C:0
Tue Dec 11 16:36, Flood:2
L:142 T:24.4 M:2 C:0
Tue Dec 11 16:31, Flood:2
L:126 T:24.3 M:2 C:0
Tue Dec 11 16:26, Flood:2
L:144 T:24.1 M:2 C:0
Tue Dec 11 16:21, Flood:2
L:144 T:23.9 M:2 C:0
Tue Dec 11 16:16, Flood:2
L:160 T:23.8 M:2 C:0
Tue Dec 11 16:11, Flood:1
L:69 T:23.5 M:1 C:0
Tue Dec 11 16:06, Flood:1
L:160 T:23.3 M:1 C:0
Tue Dec 11 16:01, Flood:1
L:159 T:23.0 M:1 C:0
Tue Dec 11 15:56, Flood:1
L:146 T:22.8 M:1 C:0
Tue Dec 11 15:51, Flood:1
L:146 T:22.6 M:1 C:0
Tue Dec 11 15:46, Flood:1
L:162 T:22.3 M:1 C:0
Tue Dec 11 15:41, Flood:1
L:162 T:21.9 M:1 C:0
Tue Dec 11 15:36, Flood:1
L:160 T:21.7 M:1 C:0
Tue Dec 11 15:31, Flood:1
L:147 T:21.5 M:1 C:0
Tue Dec 11 15:26, Flood:1
L:147 T:21.5 M:1 C:0
Tue Dec 11 15:21, Flood:1
L:160 T:21.6 M:1 C:0
Tue Dec 11 15:16, Flood:1
L:160 T:21.8 M:1 C:0
Tue Dec 11 15:11, Flood:1
L:147 T:21.9 M:1 C:0
Tue Dec 11 15:06, Flood:1
L:147 T:22.0 M:1 C:0
Tue Dec 11 15:01, Flood:1
L:160 T:22.0 M:1 C:0
Tue Dec 11 14:56, Flood:1
L:162 T:22.1 M:1 C:0
Tue Dec 11 14:51, Flood:1
L:50 T:22.3 M:1 C:0
Tue Dec 11 14:46, Flood:1
L:144 T:22.4 M:1 C:0
Tue Dec 11 14:41, Flood:1
L:162 T:22.6 M:1 C:0
Tue Dec 11 14:36, Flood:1
L:159 T:22.8 M:1 C:0
Tue Dec 11 14:31, Flood:1
L:159 T:22.9 M:1 C:0
Tue Dec 11 14:26, Flood:1
L:130 T:23.1 M:1 C:0
Tue Dec 11 14:21, Flood:1
L:112 T:23.3 M:1 C:0
Tue Dec 11 14:16, Flood:1
L:160 T:23.3 M:1 C:0
Tue Dec 11 14:11, Flood:1
L:144 T:23.6 M:1 C:0
Tue Dec 11 14:06, Flood:1
L:144 T:23.7 M:1 C:0
Tue Dec 11 14:01, Flood:2
L:144 T:24.1 M:2 C:0
Tue Dec 11 13:56, Flood:1
L:158 T:24.2 M:1 C:0
Tue Dec 11 13:51, Flood:2
L:128 T:24.3 M:2 C:0
Tue Dec 11 13:46, Flood:2
L:159 T:24.6 M:2 C:0
Tue Dec 11 13:41, Flood:2
L:159 T:24.6 M:2 C:0
Tue Dec 11 13:36, Flood:2
L:143 T:24.9 M:2 C:0
Tue Dec 11 13:31, Flood:1
L:143 T:25.0 M:1 C:0
Tue Dec 11 13:26, Flood:2
L:143 T:25.2 M:2 C:0
Tue Dec 11 13:21, Flood:2
L:156 T:25.2 M:2 C:0
Tue Dec 11 13:16, Flood:2
L:156 T:25.2 M:2 C:0
Tue Dec 11 13:11, Flood:2
L:86 T:25.3 M:2 C:0
Tue Dec 11 13:06, Flood:2
L:156 T:25.3 M:2 C:0
Tue Dec 11 13:01, Flood:2
L:160 T:25.4 M:2 C:0
Tue Dec 11 12:56, Flood:2
L:140 T:25.5 M:2 C:0
Tue Dec 11 12:51, Flood:2
L:142 T:25.6 M:2 C:0
Tue Dec 11 12:46, Flood:2
L:140 T:25.7 M:2 C:0
Tue Dec 11 12:41, Flood:2
L:140 T:25.8 M:2 C:0
Tue Dec 11 12:36, Flood:2
L:66 T:25.7 M:2 C:0
Tue Dec 11 12:31, Flood:2
L:140 T:25.7 M:2 C:0
Tue Dec 11 12:26, Flood:2
L:140 T:25.7 M:2 C:0
Tue Dec 11 12:21, Flood:2
L:159 T:25.8 M:2 C:0
Tue Dec 11 12:16, Flood:2
L:140 T:25.7 M:2 C:0
Tue Dec 11 12:11, Flood:2
L:158 T:25.7 M:2 C:0
Tue Dec 11 12:06, Flood:2
L:140 T:25.8 M:2 C:0
Tue Dec 11 12:01, Flood:2
L:140 T:25.8 M:2 C:0
Tue Dec 11 11:56, Flood:2
L:158 T:25.8 M:2 C:0
Tue Dec 11 11:51, Flood:2
L:140 T:25.7 M:2 C:0
Tue Dec 11 11:46, Flood:2
L:66 T:25.7 M:2 C:0
Tue Dec 11 11:41, Flood:2
L:140 T:25.7 M:2 C:0
Tue Dec 11 11:36, Flood:2
L:125 T:25.7 M:2 C:0
Tue Dec 11 11:31, Flood:2
L:140 T:25.7 M:2 C:0
Tue Dec 11 11:26, Flood:2
L:140 T:25.7 M:2 C:0
Tue Dec 11 11:21, Flood:2
L:140 T:25.6 M:2 C:0
Tue Dec 11 11:16, Flood:2
L:140 T:25.7 M:2 C:0
Tue Dec 11 11:11, Flood:2
L:156 T:25.7 M:2 C:0
Tue Dec 11 11:06, Flood:2
L:156 T:25.6 M:2 C:0
Tue Dec 11 11:01, Flood:2
L:86 T:25.5 M:2 C:0
Tue Dec 11 10:56, Flood:2
L:140 T:25.5 M:2 C:0
Tue Dec 11 10:51, Flood:2
L:156 T:25.4 M:2 C:0
Tue Dec 11 10:46, Flood:2
L:125 T:25.3 M:2 C:0
Tue Dec 11 10:41, Flood:2
L:143 T:25.3 M:2 C:0
Tue Dec 11 10:36, Flood:2
L:156 T:25.2 M:2 C:0
Tue Dec 11 10:31, Flood:2
L:156 T:25.4 M:2 C:0
Tue Dec 11 10:26, Flood:2
L:125 T:25.3 M:2 C:0
Tue Dec 11 10:21, Flood:2
L:156 T:25.3 M:2 C:0
Tue Dec 11 10:16, Flood:2
L:156 T:25.3 M:2 C:0
Tue Dec 11 10:11, Flood:2
L:156 T:25.3 M:2 C:0
Tue Dec 11 10:06, Flood:2
L:143 T:25.3 M:2 C:0
Tue Dec 11 10:01, Flood:2
L:156 T:25.3 M:2 C:0
Tue Dec 11 09:56, Flood:2
L:156 T:25.2 M:2 C:0
Tue Dec 11 09:51, Flood:2
L:156 T:25.2 M:2 C:0
Tue Dec 11 09:46, Flood:2
L:156 T:25.2 M:2 C:0
Tue Dec 11 09:41, Flood:2
L:90 T:25.0 M:2 C:0
Tue Dec 11 09:36, Flood:2
L:143 T:24.9 M:2 C:0
Tue Dec 11 09:31, Flood:2
L:143 T:24.9 M:2 C:0
Tue Dec 11 09:26, Flood:2
L:159 T:24.9 M:2 C:0
Tue Dec 11 09:21, Flood:2
L:142 T:24.9 M:2 C:0
Tue Dec 11 09:16, Flood:2
L:125 T:24.8 M:2 C:0
Tue Dec 11 09:11, Flood:2
L:143 T:24.8 M:2 C:0
Tue Dec 11 09:06, Flood:2
L:128 T:24.7 M:2 C:0
Tue Dec 11 09:01, Flood:2
L:160 T:24.6 M:2 C:0
Tue Dec 11 08:56, Flood:2
L:159 T:24.3 M:2 C:0
Tue Dec 11 08:51, Flood:2
L:159 T:24.3 M:2 C:0
Tue Dec 11 08:46, Flood:2
L:159 T:24.4 M:2 C:0
Tue Dec 11 08:41, Flood:2
L:142 T:24.4 M:2 C:0
Tue Dec 11 08:36, Flood:2
L:142 T:24.2 M:2 C:0
Tue Dec 11 08:31, Flood:2
L:128 T:24.3 M:2 C:0
Tue Dec 11 08:26, Flood:2
L:142 T:24.3 M:2 C:0
Tue Dec 11 08:21, Flood:2
L:142 T:24.0 M:2 C:0
Tue Dec 11 08:16, Flood:1
L:144 T:23.9 M:1 C:0
Tue Dec 11 08:11, Flood:2
L:159 T:23.8 M:2 C:0
Tue Dec 11 08:06, Flood:2
L:144 T:23.8 M:2 C:0
Tue Dec 11 08:01, Flood:1
L:126 T:23.5 M:1 C:0
Tue Dec 11 07:56, Flood:2
L:160 T:23.3 M:2 C:0
Tue Dec 11 07:51, Flood:1
L:143 T:23.1 M:1 C:0
Tue Dec 11 07:46, Flood:1
L:160 T:23.1 M:1 C:0
Tue Dec 11 07:41, Flood:1
L:143 T:22.9 M:1 C:0
Tue Dec 11 07:36, Flood:1
L:146 T:22.8 M:1 C:0
Tue Dec 11 07:31, Flood:1
L:159 T:22.6 M:1 C:0
Tue Dec 11 07:26, Flood:1
L:128 T:22.5 M:1 C:0
Tue Dec 11 07:21, Flood:1
L:128 T:22.5 M:1 C:0
Tue Dec 11 07:16, Flood:1
L:159 T:22.5 M:1 C:0
Tue Dec 11 07:11, Flood:1
L:159 T:22.5 M:1 C:0
Tue Dec 11 07:06, Flood:1
L:146 T:22.4 M:1 C:0
Tue Dec 11 07:01, Flood:1
L:159 T:22.3 M:1 C:0
Tue Dec 11 06:56, Flood:1
L:159 T:22.4 M:1 C:0
Tue Dec 11 06:51, Flood:1
L:159 T:22.4 M:1 C:0
Tue Dec 11 06:46, Flood:1
L:159 T:22.2 M:1 C:0
Tue Dec 11 06:41, Flood:1
L:162 T:22.2 M:1 C:0
Tue Dec 11 06:36, Flood:1
L:162 T:22.1 M:1 C:0
Tue Dec 11 06:31, Flood:1
L:144 T:22.0 M:1 C:0
Tue Dec 11 06:26, Flood:1
L:162 T:21.6 M:1 C:0
Tue Dec 11 06:21, Flood:1
L:160 T:21.4 M:1 C:0
Tue Dec 11 06:16, Flood:1
L:130 T:21.2 M:1 C:0
Tue Dec 11 06:11, Flood:1
L:163 T:20.9 M:1 C:0
Tue Dec 11 06:06, Flood:1
L:146 T:20.7 M:1 C:0
Tue Dec 11 06:01, Flood:1
L:162 T:20.4 M:1 C:0
Tue Dec 11 05:56, Flood:2
L:178 T:20.1 M:2 C:0
Tue Dec 11 05:51, Flood:2
L:164 T:19.6 M:2 C:0
Tue Dec 11 05:46, Flood:2
L:179 T:19.3 M:2 C:0
Tue Dec 11 05:41, Flood:2
L:178 T:18.7 M:2 C:0
Tue Dec 11 05:36, Flood:2
L:164 T:18.4 M:2 C:0
Tue Dec 11 05:31, Flood:2
L:163 T:18.1 M:2 C:0
Tue Dec 11 05:26, Flood:1
L:164 T:18.1 M:1 C:0
Tue Dec 11 05:21, Flood:1
L:17 T:18.1 M:1 C:0
Tue Dec 11 05:16, Flood:1
L:164 T:18.0 M:1 C:0
Tue Dec 11 05:11, Flood:1
L:95 T:18.2 M:1 C:0
Tue Dec 11 05:06, Flood:1
L:39 T:18.3 M:1 C:0
Tue Dec 11 05:01, Flood:1
L:164 T:18.3 M:1 C:0
Tue Dec 11 04:56, Flood:2
L:164 T:18.2 M:2 C:0
Tue Dec 11 04:51, Flood:1
L:164 T:18.2 M:1 C:0
Tue Dec 11 04:46, Flood:2
L:164 T:18.4 M:2 C:0
Tue Dec 11 04:41, Flood:1
L:164 T:18.4 M:1 C:0
Tue Dec 11 04:36, Flood:1
L:164 T:18.4 M:1 C:0
Tue Dec 11 04:31, Flood:1
L:164 T:18.4 M:1 C:0
Tue Dec 11 04:26, Flood:2
L:178 T:18.5 M:2 C:0
Tue Dec 11 04:21, Flood:2
L:178 T:18.5 M:2 C:0
Tue Dec 11 04:16, Flood:2
L:162 T:18.6 M:2 C:0
Tue Dec 11 04:11, Flood:2
L:162 T:18.5 M:2 C:0
Tue Dec 11 04:06, Flood:2
L:162 T:18.8 M:2 C:0
Tue Dec 11 04:01, Flood:2
L:162 T:18.7 M:2 C:0
Tue Dec 11 03:56, Flood:2
L:130 T:18.7 M:2 C:0
Tue Dec 11 03:51, Flood:2
L:148 T:18.8 M:2 C:0
Tue Dec 11 03:46, Flood:2
L:162 T:18.9 M:2 C:0
Tue Dec 11 03:41, Flood:2
L:53 T:18.8 M:2 C:0
Tue Dec 11 03:36, Flood:2
L:162 T:18.9 M:2 C:0
Tue Dec 11 03:31, Flood:2
L:146 T:19.1 M:2 C:0
Tue Dec 11 03:26, Flood:2
L:146 T:19.1 M:2 C:0
Tue Dec 11 03:21, Flood:2
L:163 T:19.3 M:2 C:0
Tue Dec 11 03:16, Flood:2
L:163 T:19.3 M:2 C:0
Tue Dec 11 03:11, Flood:2
L:181 T:19.2 M:2 C:0
Tue Dec 11 03:06, Flood:2
L:17 T:19.3 M:2 C:0
Tue Dec 11 03:01, Flood:2
L:163 T:19.5 M:2 C:0
Tue Dec 11 02:56, Flood:2
L:163 T:19.4 M:2 C:0
Tue Dec 11 02:51, Flood:2
L:164 T:19.6 M:2 C:0
Tue Dec 11 02:46, Flood:2
L:164 T:19.6 M:2 C:0
Tue Dec 11 02:41, Flood:2
L:164 T:19.7 M:2 C:0
Tue Dec 11 02:36, Flood:1
L:147 T:19.7 M:1 C:0
Tue Dec 11 02:31, Flood:2
L:112 T:19.8 M:2 C:0
Tue Dec 11 02:26, Flood:1
L:35 T:20.0 M:1 C:0
Tue Dec 11 02:21, Flood:1
L:148 T:20.0 M:1 C:0
Tue Dec 11 02:16, Flood:1
L:74 T:20.1 M:1 C:0
Tue Dec 11 02:11, Flood:1
L:148 T:20.2 M:1 C:0
Tue Dec 11 02:06, Flood:1
L:55 T:20.2 M:1 C:0
Tue Dec 11 02:01, Flood:1
L:162 T:20.4 M:1 C:0
Tue Dec 11 01:56, Flood:1
L:162 T:20.4 M:1 C:0
Tue Dec 11 01:51, Flood:1
L:50 T:20.5 M:1 C:0
Tue Dec 11 01:46, Flood:1
L:163 T:20.6 M:1 C:0
Tue Dec 11 01:41, Flood:1
L:146 T:20.8 M:1 C:0
Tue Dec 11 01:36, Flood:1
L:146 T:20.8 M:1 C:0
Tue Dec 11 01:31, Flood:1
L:160 T:20.9 M:1 C:0
Tue Dec 11 01:26, Flood:1
L:160 T:21.1 M:1 C:0
Tue Dec 11 01:21, Flood:1
L:147 T:21.2 M:1 C:0
Tue Dec 11 01:16, Flood:1
L:144 T:21.3 M:1 C:0
Tue Dec 11 01:11, Flood:1
L:144 T:21.4 M:1 C:0
Tue Dec 11 01:06, Flood:1
L:108 T:21.7 M:1 C:0
Tue Dec 11 01:01, Flood:1
L:131 T:21.8 M:1 C:0
Tue Dec 11 00:56, Flood:1
L:146 T:22.0 M:1 C:0
Tue Dec 11 00:51, Flood:1
L:159 T:22.1 M:1 C:0
Tue Dec 11 00:46, Flood:1
L:159 T:22.3 M:1 C:0
Tue Dec 11 00:41, Flood:1
L:112 T:22.4 M:1 C:0
Tue Dec 11 00:36, Flood:1
L:143 T:22.6 M:1 C:0
Tue Dec 11 00:31, Flood:1
L:143 T:22.8 M:1 C:0
Tue Dec 11 00:26, Flood:1
L:144 T:23.0 M:1 C:0
Tue Dec 11 00:21, Flood:2
L:158 T:23.2 M:2 C:0
Tue Dec 11 00:16, Flood:2
L:142 T:23.5 M:2 C:0
Tue Dec 11 00:11, Flood:2
L:142 T:23.7 M:2 C:0
Tue Dec 11 00:06, Flood:2
L:128 T:23.8 M:2 C:0
Tue Dec 11 00:01, Flood:2
L:143 T:24.1 M:2 C:0
Mon Dec 10 23:56, Flood:2
L:156 T:24.3 M:2 C:0
Mon Dec 10 23:51, Flood:2
L:156 T:24.5 M:2 C:0
Mon Dec 10 23:46, Flood:2
L:156 T:24.7 M:2 C:0
Mon Dec 10 23:41, Flood:2
L:140 T:24.9 M:2 C:0
Mon Dec 10 23:36, Flood:2
L:140 T:24.9 M:2 C:0
Mon Dec 10 23:31, Flood:2
L:140 T:24.8 M:2 C:0
Mon Dec 10 23:26, Flood:2
L:140 T:24.8 M:2 C:0
Mon Dec 10 23:21, Flood:2
L:140 T:24.9 M:2 C:0
Mon Dec 10 23:16, Flood:2
L:158 T:24.8 M:2 C:0
Mon Dec 10 23:11, Flood:2
L:140 T:25.0 M:2 C:0
Mon Dec 10 23:06, Flood:2
L:158 T:25.0 M:2 C:0
Mon Dec 10 23:01, Flood:2
L:140 T:25.1 M:2 C:0
Mon Dec 10 22:56, Flood:2
L:158 T:25.1 M:2 C:0
Mon Dec 10 22:51, Flood:2
L:140 T:25.2 M:2 C:0
Mon Dec 10 22:46, Flood:2
L:158 T:25.2 M:2 C:0
Mon Dec 10 22:41, Flood:2
L:142 T:25.3 M:2 C:0
Mon Dec 10 22:36, Flood:2
L:158 T:25.2 M:2 C:0
Mon Dec 10 22:31, Flood:2
L:140 T:25.2 M:2 C:0
Mon Dec 10 22:26, Flood:2
L:158 T:25.3 M:2 C:0
Mon Dec 10 22:21, Flood:2
L:142 T:25.4 M:2 C:0
Mon Dec 10 22:16, Flood:2
L:89 T:25.5 M:2 C:0
Mon Dec 10 22:11, Flood:2
L:142 T:25.5 M:2 C:0
Mon Dec 10 22:06, Flood:2
L:140 T:25.5 M:2 C:0
Mon Dec 10 22:01, Flood:2
L:142 T:25.5 M:2 C:0
Mon Dec 10 21:56, Flood:2
L:142 T:25.5 M:2 C:0
Mon Dec 10 21:51, Flood:2
L:142 T:25.7 M:2 C:0
Mon Dec 10 21:46, Flood:1
L:142 T:25.7 M:1 C:0
Mon Dec 10 21:41, Flood:1
L:142 T:25.7 M:1 C:0
Mon Dec 10 21:36, Flood:1
L:142 T:25.8 M:1 C:0
Mon Dec 10 21:31, Flood:1
L:155 T:25.8 M:1 C:0
Mon Dec 10 21:26, Flood:1
L:155 T:25.8 M:1 C:0
Mon Dec 10 21:21, Flood:1
L:139 T:26.0 M:1 C:0
Mon Dec 10 21:16, Flood:1
L:142 T:26.2 M:1 C:0
Mon Dec 10 21:11, Flood:1
L:139 T:26.1 M:1 C:0
Mon Dec 10 21:06, Flood:1
L:125 T:26.1 M:1 C:0
Mon Dec 10 21:01, Flood:1
L:139 T:26.1 M:1 C:0
Mon Dec 10 20:56, Flood:1
L:139 T:26.2 M:1 C:0
Mon Dec 10 20:51, Flood:1
L:139 T:26.2 M:1 C:0
Mon Dec 10 20:46, Flood:1
L:139 T:26.5 M:1 C:0
Mon Dec 10 20:41, Flood:1
L:125 T:26.6 M:1 C:0
Mon Dec 10 20:36, Flood:1
L:156 T:26.7 M:1 C:0
Mon Dec 10 20:31, Flood:1
L:140 T:26.8 M:1 C:0
Mon Dec 10 20:26, Flood:1
L:139 T:26.7 M:1 C:0
Mon Dec 10 20:21, Flood:3
L:125 T:26.7 M:3 C:0
Mon Dec 10 20:16, Flood:3
L:140 T:26.7 M:3 C:0
Mon Dec 10 20:11, Flood:3
L:140 T:26.8 M:3 C:0
Mon Dec 10 20:06, Flood:1
L:156 T:26.7 M:1 C:0
Mon Dec 10 20:01, Flood:3
L:87 T:26.7 M:3 C:0
Mon Dec 10 19:56, Flood:1
L:104 T:26.6 M:1 C:0
Mon Dec 10 19:51, Flood:1
L:156 T:26.6 M:1 C:0
Mon Dec 10 19:46, Flood:3
L:156 T:26.6 M:3 C:0
Mon Dec 10 19:41, Flood:1
L:139 T:26.5 M:1 C:0
Mon Dec 10 19:36, Flood:1
L:87 T:26.4 M:1 C:0
Mon Dec 10 19:31, Flood:1
L:139 T:26.2 M:1 C:0
Mon Dec 10 19:26, Flood:1
L:139 T:26.2 M:1 C:0
Mon Dec 10 19:21, Flood:1
L:155 T:26.1 M:1 C:0
Mon Dec 10 19:16, Flood:1
L:142 T:26.0 M:1 C:0
Mon Dec 10 19:11, Flood:1
L:142 T:26.1 M:1 C:0
Mon Dec 10 19:06, Flood:1
L:155 T:25.9 M:1 C:0
Mon Dec 10 19:01, Flood:1
L:142 T:26.1 M:1 C:0
Mon Dec 10 18:56, Flood:1
L:139 T:26.2 M:1 C:0
Mon Dec 10 18:51, Flood:1
L:142 T:26.1 M:1 C:0
Mon Dec 10 18:46, Flood:1
L:139 T:26.1 M:1 C:0
Mon Dec 10 18:41, Flood:1
L:155 T:26.0 M:1 C:0
Mon Dec 10 18:36, Flood:2
L:123 T:25.8 M:2 C:0
Mon Dec 10 18:31, Flood:2
L:142 T:25.7 M:2 C:0
Mon Dec 10 18:26, Flood:2
L:142 T:25.6 M:2 C:0
Mon Dec 10 18:21, Flood:2
L:142 T:25.6 M:2 C:0
Mon Dec 10 18:16, Flood:2
L:158 T:25.5 M:2 C:0
Mon Dec 10 18:11, Flood:2
L:123 T:25.6 M:2 C:0
Mon Dec 10 18:06, Flood:2
L:140 T:25.6 M:2 C:0
Mon Dec 10 18:01, Flood:2
L:142 T:25.6 M:2 C:0
Mon Dec 10 17:56, Flood:2
L:142 T:25.6 M:2 C:0
Mon Dec 10 17:51, Flood:2
L:142 T:25.7 M:2 C:0
Mon Dec 10 17:46, Flood:2
L:142 T:25.7 M:2 C:0
Mon Dec 10 17:41, Flood:2
L:142 T:25.7 M:2 C:0
Mon Dec 10 17:36, Flood:2
L:142 T:25.7 M:2 C:0
Mon Dec 10 17:31, Flood:2
L:123 T:25.7 M:2 C:0
Mon Dec 10 17:26, Flood:2
L:142 T:25.7 M:2 C:0
Mon Dec 10 17:21, Flood:2
L:142 T:25.7 M:2 C:0
Mon Dec 10 17:16, Flood:2
L:142 T:25.7 M:2 C:0
Mon Dec 10 17:11, Flood:2
L:142 T:25.7 M:2 C:0
Mon Dec 10 17:06, Flood:2
L:142 T:25.6 M:2 C:0
Mon Dec 10 17:01, Flood:2
L:159 T:25.4 M:2 C:0
Mon Dec 10 16:56, Flood:2
L:158 T:25.4 M:2 C:0
Mon Dec 10 16:51, Flood:2
L:140 T:25.4 M:2 C:0
Mon Dec 10 16:46, Flood:2
L:140 T:25.2 M:2 C:0
Mon Dec 10 16:41, Flood:2
L:126 T:25.3 M:2 C:0
Mon Dec 10 16:36, Flood:2
L:158 T:25.3 M:2 C:0
Mon Dec 10 16:31, Flood:2
L:140 T:25.2 M:2 C:0
Mon Dec 10 16:26, Flood:2
L:105 T:25.2 M:2 C:0
Mon Dec 10 16:21, Flood:2
L:158 T:25.2 M:2 C:0
Mon Dec 10 16:16, Flood:2
L:140 T:25.3 M:2 C:0
Mon Dec 10 16:11, Flood:2
L:158 T:25.3 M:2 C:0
Mon Dec 10 16:06, Flood:2
L:158 T:25.3 M:2 C:0
Mon Dec 10 16:01, Flood:2
L:140 T:25.2 M:2 C:0
Mon Dec 10 15:56, Flood:2
L:158 T:25.3 M:2 C:0
Mon Dec 10 15:51, Flood:2
L:140 T:25.3 M:2 C:0
Mon Dec 10 15:46, Flood:2
L:140 T:25.2 M:2 C:0
Mon Dec 10 15:41, Flood:2
L:126 T:25.2 M:2 C:0
Mon Dec 10 15:36, Flood:2
L:140 T:25.3 M:2 C:0
Mon Dec 10 15:31, Flood:2
L:158 T:25.3 M:2 C:0
Mon Dec 10 15:26, Flood:2
L:158 T:25.2 M:2 C:0
Mon Dec 10 15:21, Flood:2
L:66 T:25.2 M:2 C:0
Mon Dec 10 15:16, Flood:2
L:158 T:25.4 M:2 C:0
Mon Dec 10 15:11, Flood:2
L:140 T:25.3 M:2 C:0
Mon Dec 10 15:06, Flood:2
L:158 T:25.5 M:2 C:0
Mon Dec 10 15:01, Flood:2
L:142 T:25.4 M:2 C:0
Mon Dec 10 14:56, Flood:2
L:158 T:25.5 M:2 C:0
Mon Dec 10 14:51, Flood:2
L:158 T:25.5 M:2 C:0
Mon Dec 10 14:46, Flood:2
L:140 T:25.6 M:2 C:0
Mon Dec 10 14:41, Flood:2
L:89 T:25.5 M:2 C:0
Mon Dec 10 14:36, Flood:2
L:158 T:25.5 M:2 C:0
Mon Dec 10 14:31, Flood:2
L:123 T:25.6 M:2 C:0
Mon Dec 10 14:26, Flood:2
L:158 T:25.5 M:2 C:0
Mon Dec 10 14:21, Flood:2
L:158 T:25.4 M:2 C:0
Mon Dec 10 14:16, Flood:2
L:140 T:25.5 M:2 C:0
Mon Dec 10 14:11, Flood:2
L:158 T:25.5 M:2 C:0
Mon Dec 10 14:06, Flood:2
L:126 T:25.4 M:2 C:0
Mon Dec 10 14:01, Flood:2
L:158 T:25.4 M:2 C:0
Mon Dec 10 13:56, Flood:2
L:89 T:25.3 M:2 C:0
Mon Dec 10 13:51, Flood:2
L:158 T:25.3 M:2 C:0
Mon Dec 10 13:46, Flood:2
L:140 T:25.3 M:2 C:0
Mon Dec 10 13:41, Flood:2
L:140 T:25.3 M:2 C:0
Mon Dec 10 13:36, Flood:2
L:89 T:25.3 M:2 C:0
Mon Dec 10 13:31, Flood:2
L:126 T:25.3 M:2 C:0
Mon Dec 10 13:26, Flood:2
L:158 T:25.3 M:2 C:0
Mon Dec 10 13:21, Flood:2
L:140 T:25.4 M:2 C:0
Mon Dec 10 13:16, Flood:2
L:158 T:25.3 M:2 C:0
Mon Dec 10 13:11, Flood:2
L:140 T:25.3 M:2 C:0
Mon Dec 10 13:06, Flood:2
L:140 T:25.4 M:2 C:0
Mon Dec 10 13:01, Flood:2
L:158 T:25.3 M:2 C:0
Mon Dec 10 12:56, Flood:2
L:89 T:25.4 M:2 C:0
Mon Dec 10 12:51, Flood:2
L:140 T:25.4 M:2 C:0
Mon Dec 10 12:46, Flood:2
L:140 T:25.3 M:2 C:0
Mon Dec 10 12:41, Flood:2
L:140 T:25.4 M:2 C:0
Mon Dec 10 12:36, Flood:2
L:140 T:25.4 M:2 C:0
Mon Dec 10 12:31, Flood:2
L:140 T:25.4 M:2 C:0
Mon Dec 10 12:26, Flood:2
L:140 T:25.3 M:2 C:0
Mon Dec 10 12:21, Flood:2
L:89 T:25.4 M:2 C:0
Mon Dec 10 12:16, Flood:2
L:140 T:25.3 M:2 C:0
Mon Dec 10 12:11, Flood:2
L:158 T:25.4 M:2 C:0
Mon Dec 10 12:06, Flood:2
L:158 T:25.5 M:2 C:0
Mon Dec 10 12:01, Flood:2
L:140 T:25.5 M:2 C:0
Mon Dec 10 11:56, Flood:2
L:140 T:25.5 M:2 C:0
Mon Dec 10 11:51, Flood:2
L:158 T:25.5 M:2 C:0
Mon Dec 10 11:46, Flood:2
L:158 T:25.4 M:2 C:0
Mon Dec 10 11:41, Flood:2
L:158 T:25.5 M:2 C:0
Mon Dec 10 11:36, Flood:2
L:158 T:25.5 M:2 C:0
Mon Dec 10 11:31, Flood:2
L:126 T:25.5 M:2 C:0
Mon Dec 10 11:26, Flood:2
L:66 T:25.5 M:2 C:0
Mon Dec 10 11:21, Flood:2
L:158 T:25.5 M:2 C:0
Mon Dec 10 11:16, Flood:2
L:158 T:25.5 M:2 C:0
Mon Dec 10 11:11, Flood:2
L:158 T:25.5 M:2 C:0
Mon Dec 10 11:06, Flood:2
L:140 T:25.6 M:2 C:0
Mon Dec 10 11:01, Flood:2
L:140 T:25.5 M:2 C:0
Mon Dec 10 10:56, Flood:2
L:140 T:25.5 M:2 C:0
Mon Dec 10 10:51, Flood:2
L:140 T:25.5 M:2 C:0
Mon Dec 10 10:46, Flood:2
L:158 T:25.5 M:2 C:0
Mon Dec 10 10:41, Flood:2
L:158 T:25.5 M:2 C:0
Mon Dec 10 10:36, Flood:2
L:158 T:25.5 M:2 C:0
Mon Dec 10 10:31, Flood:2
L:140 T:25.4 M:2 C:0
Mon Dec 10 10:26, Flood:2
L:140 T:25.4 M:2 C:0
Mon Dec 10 10:21, Flood:2
L:140 T:25.2 M:2 C:0
Mon Dec 10 10:16, Flood:2
L:140 T:25.2 M:2 C:0
Mon Dec 10 10:11, Flood:2
L:125 T:25.1 M:2 C:0
Mon Dec 10 10:06, Flood:2
L:156 T:25.1 M:2 C:0
Mon Dec 10 10:01, Flood:2
L:156 T:24.9 M:2 C:0
Mon Dec 10 09:56, Flood:2
L:156 T:24.9 M:2 C:0
Mon Dec 10 09:51, Flood:2
L:156 T:24.9 M:2 C:0
Mon Dec 10 09:46, Flood:2
L:156 T:24.7 M:2 C:0
Mon Dec 10 09:41, Flood:2
L:143 T:24.8 M:2 C:0
Mon Dec 10 09:36, Flood:2
L:108 T:24.6 M:2 C:0
Mon Dec 10 09:31, Flood:2
L:159 T:24.4 M:2 C:0
Mon Dec 10 09:26, Flood:2
L:142 T:24.2 M:2 C:0
Mon Dec 10 09:21, Flood:2
L:142 T:24.1 M:2 C:0
Mon Dec 10 09:16, Flood:2
L:142 T:24.0 M:2 C:0
Mon Dec 10 09:11, Flood:2
L:144 T:23.8 M:2 C:0
Mon Dec 10 09:06, Flood:2
L:144 T:23.5 M:2 C:0
Mon Dec 10 09:01, Flood:2
L:160 T:23.2 M:2 C:0
Mon Dec 10 08:56, Flood:2
L:143 T:23.0 M:2 C:0
Mon Dec 10 08:51, Flood:1
L:159 T:22.5 M:1 C:0
Mon Dec 10 08:46, Flood:1
L:146 T:22.3 M:1 C:0
Mon Dec 10 08:41, Flood:1
L:162 T:22.0 M:1 C:0
Mon Dec 10 08:36, Flood:1
L:162 T:21.6 M:1 C:0
Mon Dec 10 08:31, Flood:1
L:147 T:21.2 M:1 C:0
Mon Dec 10 08:26, Flood:1
L:146 T:20.8 M:1 C:0
Mon Dec 10 08:21, Flood:1
L:162 T:20.4 M:1 C:0
Mon Dec 10 08:16, Flood:2
L:148 T:20.0 M:2 C:0
Mon Dec 10 08:11, Flood:2
L:164 T:19.4 M:2 C:0
Mon Dec 10 08:06, Flood:2
L:146 T:19.1 M:2 C:0
Mon Dec 10 08:01, Flood:2
L:162 T:18.8 M:2 C:0
Mon Dec 10 07:56, Flood:2
L:162 T:18.6 M:2 C:0
Mon Dec 10 07:51, Flood:2
L:178 T:18.4 M:2 C:0
Mon Dec 10 07:46, Flood:2
L:178 T:18.4 M:2 C:0
Mon Dec 10 07:41, Flood:2
L:164 T:18.4 M:2 C:0
Mon Dec 10 07:36, Flood:2
L:178 T:18.4 M:2 C:0
Mon Dec 10 07:31, Flood:2
L:164 T:18.4 M:2 C:0
Mon Dec 10 07:26, Flood:2
L:164 T:18.4 M:2 C:0
Mon Dec 10 07:21, Flood:2
L:164 T:18.4 M:2 C:0
Mon Dec 10 07:16, Flood:2
L:162 T:18.5 M:2 C:0
Mon Dec 10 07:11, Flood:2
L:164 T:18.4 M:2 C:0
Mon Dec 10 07:06, Flood:2
L:164 T:18.4 M:2 C:0
Mon Dec 10 07:01, Flood:2
L:164 T:18.2 M:2 C:0
Mon Dec 10 06:56, Flood:2
L:147 T:18.2 M:2 C:0
Mon Dec 10 06:51, Flood:2
L:164 T:18.1 M:2 C:0
Mon Dec 10 06:46, Flood:2
L:164 T:17.9 M:2 C:0
Mon Dec 10 06:41, Flood:2
L:163 T:17.9 M:2 C:0
Mon Dec 10 06:36, Flood:2
L:163 T:17.8 M:2 C:0
Mon Dec 10 06:31, Flood:1
L:181 T:17.6 M:1 C:0
Mon Dec 10 06:26, Flood:1
L:163 T:17.5 M:1 C:0

s9 Front Door
Wed Dec 12 09:42:17, status close

Wed Dec 12 09:42:17, status close
Wed Dec 12 09:42:13, status open
Wed Dec 12 09:29:19, status close
Wed Dec 12 09:28:45, status open
Wed Dec 12 09:21:16, status close
Wed Dec 12 09:21:13, status open
Wed Dec 12 09:19:47, status close
Wed Dec 12 09:19:44, status open
Wed Dec 12 09:07:07, status close
Wed Dec 12 09:07:03, status open
Wed Dec 12 08:54:47, status close
Wed Dec 12 08:54:41, status open
Wed Dec 12 08:44:21, status close
Wed Dec 12 08:44:18, status open
Wed Dec 12 08:42:34, status close
Wed Dec 12 08:42:31, status open
Wed Dec 12 08:28:09, status close
Wed Dec 12 08:28:06, status open
Wed Dec 12 08:09:13, status close
Wed Dec 12 08:09:08, status open
Wed Dec 12 07:05:22, status close
Wed Dec 12 07:05:17, status open
Wed Dec 12 06:50:56, status close
Wed Dec 12 06:50:47, status open
Tue Dec 11 23:32:25, status close
Tue Dec 11 23:32:13, status open
Tue Dec 11 21:37:47, status close
Tue Dec 11 21:37:43, status open
Tue Dec 11 20:55:32, status close
Tue Dec 11 20:55:29, status open
Tue Dec 11 19:37:10, status close
Tue Dec 11 19:37:07, status open
Tue Dec 11 18:56:40, status close
Tue Dec 11 18:56:38, status open
Tue Dec 11 17:37:07, status close
Tue Dec 11 17:37:04, status open
Tue Dec 11 17:36:02, status close
Tue Dec 11 17:35:57, status open
Tue Dec 11 17:32:24, status close
Tue Dec 11 17:32:00, status open
Tue Dec 11 17:31:36, status close
Tue Dec 11 17:31:24, status open
Tue Dec 11 17:22:10, status close
Tue Dec 11 17:22:02, status open
Tue Dec 11 17:05:23, status close
Tue Dec 11 17:05:19, status open
Tue Dec 11 15:45:54, status close
Tue Dec 11 15:45:49, status open
Tue Dec 11 15:44:30, status close
Tue Dec 11 15:44:27, status open
Tue Dec 11 15:13:19, status close
Tue Dec 11 15:12:58, status open
Tue Dec 11 13:22:33, status close
Tue Dec 11 13:22:25, status open
Tue Dec 11 12:39:01, status close
Tue Dec 11 12:38:52, status open
Tue Dec 11 08:22:41, status close
Tue Dec 11 08:22:36, status open
Tue Dec 11 08:19:18, status close
Tue Dec 11 08:19:13, status open
Tue Dec 11 07:31:41, status close
Tue Dec 11 07:31:37, status open
Mon Dec 10 18:49:40, status close
Mon Dec 10 18:49:36, status open
Mon Dec 10 17:58:45, status close
Mon Dec 10 17:58:36, status open
Mon Dec 10 17:25:17, status close
Mon Dec 10 17:25:13, status open
Mon Dec 10 15:00:04, status close
Mon Dec 10 15:00:00, status open
Mon Dec 10 14:33:23, status close
Mon Dec 10 14:33:15, status open
Mon Dec 10 14:32:26, status close
Mon Dec 10 14:32:22, status open
Mon Dec 10 12:52:18, status close
Mon Dec 10 12:52:11, status open
Mon Dec 10 12:08:31, status close
Mon Dec 10 12:08:27, status open
Mon Dec 10 11:10:41, status close
Mon Dec 10 11:10:36, status open
Mon Dec 10 10:56:06, status close
Mon Dec 10 10:56:02, status open
Mon Dec 10 09:44:41, status close
Mon Dec 10 09:44:06, status open
Mon Dec 10 09:34:45, status close
Mon Dec 10 09:34:42, status open
Mon Dec 10 08:30:14, status close
Mon Dec 10 08:30:10, status open
Mon Dec 10 08:30:03, status close
Mon Dec 10 08:29:58, status open
Mon Dec 10 08:25:27, status close
Mon Dec 10 08:25:24, status open
Mon Dec 10 08:19:01, status close
Mon Dec 10 08:18:57, status open
Mon Dec 10 08:16:48, status close
Mon Dec 10 08:16:44, status open
Sun Dec 9 23:17:13, status close
Sun Dec 9 23:17:05, status open
Sun Dec 9 20:08:35, status close
Sun Dec 9 20:07:47, status open
Sun Dec 9 18:04:52, status close
Sun Dec 9 18:04:44, status open
Sun Dec 9 17:44:15, status close
Sun Dec 9 17:44:07, status open
Sun Dec 9 16:46:22, status close
Sun Dec 9 16:46:19, status open
Sun Dec 9 16:09:19, status close
Sun Dec 9 16:09:16, status open
Sun Dec 9 16:07:49, status close
Sun Dec 9 16:07:38, status open
Sun Dec 9 13:47:08, status close
Sun Dec 9 13:47:01, no_close 1m
Sun Dec 9 13:46:01, status open
Sun Dec 9 13:22:07, status close
Sun Dec 9 13:21:38, status open
Sun Dec 9 11:59:35, status close
Sun Dec 9 11:59:19, status open
Sun Dec 9 11:58:41, status close
Sun Dec 9 11:58:38, status open
Sun Dec 9 09:57:31, status close
Sun Dec 9 09:57:16, status open
Sat Dec 8 19:36:35, status close
Sat Dec 8 19:36:31, status open
Sat Dec 8 19:21:41, status close
Sat Dec 8 19:21:38, status open
Sat Dec 8 17:02:33, status close
Sat Dec 8 17:02:23, status open
Sat Dec 8 14:33:09, status close
Sat Dec 8 14:33:02, status open
Sat Dec 8 12:19:02, status close
Sat Dec 8 12:18:56, status open
Sat Dec 8 11:41:07, status close
Sat Dec 8 11:41:03, status open
Sat Dec 8 11:25:55, status close
Sat Dec 8 11:25:50, status open
Sat Dec 8 10:34:38, status close
Sat Dec 8 10:34:28, status open
Sat Dec 8 10:31:05, status close
Sat Dec 8 10:31:01, status open
Sat Dec 8 09:08:11, status close
Sat Dec 8 09:07:44, no_close 1m
Sat Dec 8 09:06:44, status open
Sat Dec 8 09:01:49, status close
Sat Dec 8 09:01:04, status open
Sat Dec 8 08:40:21, status close
Sat Dec 8 08:39:47, status open
Sat Dec 8 08:39:13, status close
Sat Dec 8 08:38:34, status open
Sat Dec 8 08:16:11, status close
Sat Dec 8 08:15:51, status open
Sat Dec 8 07:13:58, status close
Sat Dec 8 07:13:54, status open
Fri Dec 7 23:53:25, status close
Fri Dec 7 23:53:16, status open
Fri Dec 7 22:36:07, status close
Fri Dec 7 22:36:04, status open
Fri Dec 7 20:44:58, status close
Fri Dec 7 20:44:54, status open
Fri Dec 7 20:39:03, status close
Fri Dec 7 20:38:58, status open
Fri Dec 7 20:24:47, status close
Fri Dec 7 20:24:44, status open
Fri Dec 7 19:21:07, status close
Fri Dec 7 19:21:04, status open
Fri Dec 7 19:18:49, status close
Fri Dec 7 19:18:41, status open
Fri Dec 7 17:42:49, status close
Fri Dec 7 17:42:46, status open
Fri Dec 7 17:42:18, status close
Fri Dec 7 17:42:14, status open
Fri Dec 7 17:37:28, status close
Fri Dec 7 17:37:24, status open
Fri Dec 7 17:34:43, status close
Fri Dec 7 17:34:40, status open
Fri Dec 7 17:30:55, status close
Fri Dec 7 17:30:49, status open
Fri Dec 7 17:26:41, status close
Fri Dec 7 17:26:32, status open
Fri Dec 7 17:17:21, status close
Fri Dec 7 17:17:17, status open
Fri Dec 7 15:51:19, status close
Fri Dec 7 15:50:34, status open
Fri Dec 7 15:50:08, status close
Fri Dec 7 15:50:05, status open
Fri Dec 7 14:54:43, status close
Fri Dec 7 14:54:40, status open
Fri Dec 7 14:34:20, status close
Fri Dec 7 14:34:15, status open
Fri Dec 7 14:28:34, status close
Fri Dec 7 14:28:30, status open
Fri Dec 7 14:10:02, status close
Fri Dec 7 14:09:46, status open
Fri Dec 7 14:09:00, status close
Fri Dec 7 14:08:57, status open
Fri Dec 7 14:07:48, status close
Fri Dec 7 14:07:44, status open
Fri Dec 7 13:47:16, status close
Fri Dec 7 13:47:10, status open
Fri Dec 7 13:35:50, status close
Fri Dec 7 13:35:47, status open
Fri Dec 7 13:19:22, status close
Fri Dec 7 13:18:30, status open
Fri Dec 7 13:18:30, status open
Fri Dec 7 12:40:07, status close
Fri Dec 7 12:40:04, status open
Fri Dec 7 12:10:05, status close
Fri Dec 7 12:10:02, status open
Fri Dec 7 12:08:27, status close
Fri Dec 7 12:08:24, status open
Fri Dec 7 12:08:09, status close
Fri Dec 7 12:08:03, status open
Fri Dec 7 11:01:17, status close
Fri Dec 7 11:01:03, status open
Fri Dec 7 08:31:52, status close
Fri Dec 7 08:31:48, status open
Fri Dec 7 08:18:19, status close
Fri Dec 7 08:18:00, status open
Fri Dec 7 07:38:49, status close
Fri Dec 7 07:38:43, status open
Thu Dec 6 23:32:27, status close
Thu Dec 6 23:32:09, status open
Thu Dec 6 21:04:58, status close
Thu Dec 6 21:04:10, status open
Thu Dec 6 21:01:55, status close
Thu Dec 6 21:01:43, status open
Thu Dec 6 20:26:15, status close
Thu Dec 6 20:25:42, status open
Thu Dec 6 19:50:31, status close
Thu Dec 6 19:50:19, status open
Thu Dec 6 19:08:17, status close
Thu Dec 6 19:07:58, status open
Thu Dec 6 19:07:18, status close
Thu Dec 6 19:06:48, status open
Thu Dec 6 18:05:55, status close
Thu Dec 6 18:05:52, status open
Thu Dec 6 17:32:17, status close
Thu Dec 6 17:32:13, status open
Thu Dec 6 15:46:04, status close
Thu Dec 6 15:46:01, status open
Thu Dec 6 15:37:58, status close
Thu Dec 6 15:37:52, status open
Thu Dec 6 15:19:51, status close
Thu Dec 6 15:19:47, status open
Thu Dec 6 15:19:07, status close
Thu Dec 6 15:19:04, status open
Thu Dec 6 14:55:30, status close
Thu Dec 6 14:52:12, no_close 5m
Thu Dec 6 14:48:10, no_close 1m
Thu Dec 6 14:47:10, status open
Thu Dec 6 14:46:42, status close
Thu Dec 6 14:46:30, status open
Thu Dec 6 14:17:23, status close
Thu Dec 6 14:17:06, status open
Thu Dec 6 13:22:43, status close
Thu Dec 6 13:22:18, status open
Thu Dec 6 12:39:26, status close
Thu Dec 6 12:39:22, status open
Thu Dec 6 10:36:06, status close
Thu Dec 6 10:36:00, status open
Thu Dec 6 10:31:23, status close
Thu Dec 6 10:30:44, status open
Thu Dec 6 09:40:20, status close
Thu Dec 6 09:40:03, status open
Thu Dec 6 09:33:57, status close
Thu Dec 6 09:33:52, status open
Thu Dec 6 08:30:54, status close
Thu Dec 6 08:30:51, status open
Thu Dec 6 08:19:08, status close
Thu Dec 6 08:19:05, status open
Thu Dec 6 08:14:30, status close
Thu Dec 6 08:14:17, status open
Thu Dec 6 07:58:24, status close
Thu Dec 6 07:57:34, status open
Thu Dec 6 07:22:18, status close
Thu Dec 6 07:22:15, status open
Wed Dec 5 22:42:45, status close
Wed Dec 5 22:42:37, status open
Wed Dec 5 20:55:57, status close
Wed Dec 5 20:55:33, status open
Wed Dec 5 20:54:25, status close
Wed Dec 5 20:54:12, status open
Wed Dec 5 20:26:14, status close
Wed Dec 5 20:26:01, status open
Wed Dec 5 19:18:12, status close
Wed Dec 5 19:18:09, status open
Wed Dec 5 19:17:11, status close
Wed Dec 5 19:17:07, status open
Wed Dec 5 18:07:49, status close
Wed Dec 5 18:07:40, status open
Wed Dec 5 16:38:29, status close
Wed Dec 5 16:38:26, status open
Wed Dec 5 16:17:12, status close
Wed Dec 5 16:17:09, status open
Wed Dec 5 13:07:39, status close
Wed Dec 5 13:07:36, status open
Wed Dec 5 13:06:08, status close
Wed Dec 5 13:06:04, status open
Wed Dec 5 13:05:39, status close
Wed Dec 5 13:05:21, status open
Wed Dec 5 13:04:54, status close
Wed Dec 5 13:04:25, status open
Wed Dec 5 11:57:52, status close
Wed Dec 5 11:57:48, status open
Wed Dec 5 11:39:59, status close
Wed Dec 5 11:39:54, status open
Wed Dec 5 11:39:11, status close
Wed Dec 5 11:38:57, status open
Wed Dec 5 11:35:54, status close
Wed Dec 5 11:35:15, status open
Wed Dec 5 11:24:11, status close
Wed Dec 5 11:24:05, status open
Wed Dec 5 09:22:30, status close
Wed Dec 5 09:22:26, status open
Wed Dec 5 09:21:30, status close
Wed Dec 5 09:21:23, status open
Wed Dec 5 08:28:43, status close
Wed Dec 5 08:28:31, status open
Tue Dec 4 22:21:03, status close
Tue Dec 4 22:20:55, status open
Tue Dec 4 20:50:43, status close
Tue Dec 4 20:50:21, status open
Tue Dec 4 19:57:45, status close
Tue Dec 4 19:57:41, status open
Tue Dec 4 19:57:11, status close
Tue Dec 4 19:57:07, status open
Tue Dec 4 19:56:39, status close
Tue Dec 4 19:56:34, status open
Tue Dec 4 19:43:08, status close
Tue Dec 4 19:43:08, status open
Tue Dec 4 19:43:07, status close
Tue Dec 4 19:43:00, status open
Tue Dec 4 19:35:00, status close
Tue Dec 4 19:34:53, status open
Tue Dec 4 17:17:14, status close
Tue Dec 4 17:16:48, status open
Tue Dec 4 16:56:32, status close
Tue Dec 4 16:56:30, status open
Tue Dec 4 16:47:18, status close
Tue Dec 4 16:47:15, status open
Tue Dec 4 16:45:01, status close
Tue Dec 4 16:44:37, status open
Tue Dec 4 16:44:24, status close
Tue Dec 4 16:44:20, status open
Tue Dec 4 15:09:19, status close
Tue Dec 4 15:09:12, status open
Tue Dec 4 15:04:19, status close
Tue Dec 4 15:04:16, status open
Tue Dec 4 15:02:47, status close
Tue Dec 4 15:02:43, status open
Tue Dec 4 14:38:45, status close
Tue Dec 4 14:38:42, status open
Tue Dec 4 14:38:19, status close
Tue Dec 4 14:38:16, status open
Tue Dec 4 14:34:54, status close
Tue Dec 4 14:34:51, status open
Tue Dec 4 14:34:20, status close
Tue Dec 4 14:34:18, status open
Tue Dec 4 14:29:14, status close
Tue Dec 4 14:29:11, status open
Tue Dec 4 14:28:34, status close
Tue Dec 4 14:28:31, status open
Tue Dec 4 14:25:10, status close
Tue Dec 4 14:25:07, status open
Tue Dec 4 14:24:37, status close
Tue Dec 4 14:24:22, status open
Tue Dec 4 14:24:19, status close
Tue Dec 4 14:23:38, status open
Tue Dec 4 14:15:43, status close
Tue Dec 4 14:15:38, status open
Tue Dec 4 14:14:36, status close
Tue Dec 4 14:14:33, status open
Tue Dec 4 14:13:19, status close
Tue Dec 4 14:13:12, status open
Tue Dec 4 13:25:22, status close
Tue Dec 4 13:25:07, status open
Tue Dec 4 12:53:23, status close
Tue Dec 4 12:52:33, status open
Tue Dec 4 12:41:13, status close
Tue Dec 4 12:41:11, status open
Tue Dec 4 10:58:06, status close
Tue Dec 4 10:58:03, status open
Tue Dec 4 10:45:22, status close
Tue Dec 4 10:45:17, status open
Tue Dec 4 09:12:39, status close
Tue Dec 4 09:12:35, status open
Tue Dec 4 08:32:16, status close
Tue Dec 4 08:32:12, status open
Tue Dec 4 08:20:33, status close
Tue Dec 4 08:20:29, status open
Tue Dec 4 08:16:10, status close
Tue Dec 4 08:16:06, status open
Tue Dec 4 08:14:14, status close
Tue Dec 4 08:14:11, status open
Tue Dec 4 08:12:54, status close
Tue Dec 4 08:12:51, status open
Tue Dec 4 08:11:46, status close
Tue Dec 4 08:11:43, status open
Tue Dec 4 07:41:41, status close
Tue Dec 4 07:41:38, status open
Tue Dec 4 07:27:30, status close
Tue Dec 4 07:27:30, no_close 1m
Tue Dec 4 07:26:30, status open
Tue Dec 4 07:23:48, status close
Tue Dec 4 07:23:45, status open
Tue Dec 4 07:22:52, status close
Tue Dec 4 07:22:49, status open
Tue Dec 4 07:05:25, status close
Tue Dec 4 07:05:22, status open
Tue Dec 4 07:04:33, status close
Tue Dec 4 07:04:30, status open
Mon Dec 3 22:58:28, status close
Mon Dec 3 22:58:06, status open
Mon Dec 3 18:57:05, status close
Mon Dec 3 18:56:40, status open
Mon Dec 3 18:40:43, status close
Mon Dec 3 18:40:39, status open
Mon Dec 3 18:11:16, status close
Mon Dec 3 18:11:12, status open
Mon Dec 3 18:10:52, status close
Mon Dec 3 18:10:48, status open
Mon Dec 3 18:03:44, status close
Mon Dec 3 18:03:40, status open
Mon Dec 3 17:43:05, status close
Mon Dec 3 17:43:02, status open
Mon Dec 3 17:30:27, status close
Mon Dec 3 17:30:22, status open
Mon Dec 3 17:23:41, status close
Mon Dec 3 17:23:37, status open
Mon Dec 3 17:00:10, status close
Mon Dec 3 17:00:07, status open
Mon Dec 3 16:59:06, status close
Mon Dec 3 16:59:03, status open
Mon Dec 3 15:42:05, status close
Mon Dec 3 15:42:02, status open
Mon Dec 3 15:40:00, status close
Mon Dec 3 15:39:56, status open
Mon Dec 3 14:34:11, status close
Mon Dec 3 14:34:07, status open
Mon Dec 3 14:26:01, status close
Mon Dec 3 14:25:55, status open
Mon Dec 3 14:24:14, status close
Mon Dec 3 14:24:10, status open
Mon Dec 3 13:43:36, status close
Mon Dec 3 13:43:32, status open
Mon Dec 3 13:42:49, status close
Mon Dec 3 13:42:46, status open
Mon Dec 3 13:36:18, status close
Mon Dec 3 13:36:13, status open
Mon Dec 3 13:22:32, status close
Mon Dec 3 13:22:29, status open
Mon Dec 3 13:21:06, status close
Mon Dec 3 13:20:58, status open
Mon Dec 3 13:20:21, status close
Mon Dec 3 13:20:18, status open
Mon Dec 3 12:38:02, status close
Mon Dec 3 12:37:58, status open
Mon Dec 3 11:52:05, status close
Mon Dec 3 11:52:01, status open
Mon Dec 3 11:32:09, status close
Mon Dec 3 11:32:05, status open
Mon Dec 3 11:21:59, status close
Mon Dec 3 11:21:55, status open
Mon Dec 3 10:41:05, status close
Mon Dec 3 10:41:01, status open
Mon Dec 3 10:38:18, status close
Mon Dec 3 10:38:14, status open
Mon Dec 3 10:12:00, status close
Mon Dec 3 10:11:56, status open
Mon Dec 3 10:09:56, status close
Mon Dec 3 10:09:53, status open
Mon Dec 3 10:04:56, status close
Mon Dec 3 10:04:51, status open
Mon Dec 3 09:12:12, status close
Mon Dec 3 09:12:08, status open
Mon Dec 3 09:00:13, status close
Mon Dec 3 09:00:05, status open
Mon Dec 3 08:35:28, status close
Mon Dec 3 08:35:15, status open
Mon Dec 3 08:33:33, status close
Mon Dec 3 08:33:29, status open
Mon Dec 3 08:16:33, status close
Mon Dec 3 08:16:17, status open
Mon Dec 3 07:56:02, status close
Mon Dec 3 07:55:59, status open
Mon Dec 3 07:55:31, status close
Mon Dec 3 07:55:28, status open
Mon Dec 3 07:16:22, status close
Mon Dec 3 07:16:17, status open
Sun Dec 2 16:26:24, status close
Sun Dec 2 16:26:00, status open
Sun Dec 2 12:12:56, status close
Sun Dec 2 12:12:43, status open
Sun Dec 2 11:18:09, status close
Sun Dec 2 11:17:51, status open
Sat Dec 1 23:32:03, status close
Sat Dec 1 23:31:56, status open
Sat Dec 1 18:49:10, status close
Sat Dec 1 18:48:58, status open
Sat Dec 1 18:19:15, status close
Sat Dec 1 18:19:12, status open
Sat Dec 1 18:16:13, status close
Sat Dec 1 18:16:10, status open
Sat Dec 1 18:14:29, status close
Sat Dec 1 18:14:25, status open
Sat Dec 1 17:50:27, status close
Sat Dec 1 17:50:04, status open
Sat Dec 1 17:48:40, status close
Sat Dec 1 17:48:30, status open
Sat Dec 1 16:52:55, status close
Sat Dec 1 16:52:51, status open
Sat Dec 1 16:52:09, status close
Sat Dec 1 16:51:18, no_close 1m
Sat Dec 1 16:50:18, status open
Sat Dec 1 16:24:04, status close
Sat Dec 1 16:24:00, status open
Sat Dec 1 15:23:36, status close
Sat Dec 1 15:23:34, no_close 1m
Sat Dec 1 15:22:34, status open
Sat Dec 1 13:09:28, status close
Sat Dec 1 13:08:45, status open
Sat Dec 1 07:54:42, status close
Sat Dec 1 07:54:09, status open
Sat Dec 1 07:53:51, status close
Sat Dec 1 07:53:50, status open

Contact: HomeGuardMi at Gmail.com     HG ver Nov-17